[[{"header":{"parameterUnit":"m.s-1","parameterCategory":1,"la1":31.0,"la2":29.5877,"lo1":-88.7671,"lo2":-86.6584,"dy":0.0162,"dx":0.0185,"nx":115,"ny":88,"refTime":"2023-09-03T06:00:00:Z","depth":0,"parameterNumber":2,"parameterNumberName":"U-component_of_WINDS"},"data":[0.0,0.0,0.0,0.0,0.0,0.0,0.0,0.0,0.0,0.0,0.0,0.0,0.0,0.0,0.0,0.0,0.0,0.0,0.0,0.0,0.0,0.0,0.0,0.0,0.0,0.0,0.0,0.0,0.0,0.0,0.0,0.0,0.0,0.0,0.0,0.0,0.0,0.0,0.0,0.0,0.0,0.0,0.0,0.0,0.0,0.0,0.0,0.0,0.0,0.0,0.0,0.0,0.0,0.0,0.0,0.0,0.0,0.0,0.0,0.0,0.0,0.0,0.0,0.0,0.0,0.0,0.0,0.0,0.0,0.0,0.0,0.0,0.0,0.0,0.0,0.0,0.0,0.0,0.0,0.0,0.0,0.0,0.0,0.0,0.0,0.0,0.0,0.0,0.0,0.0,0.0,0.0,0.0,0.0,0.0,0.0,0.0,0.0,0.0,0.0,0.0,0.0,0.0,0.0,0.0,0.0,0.0,0.0,0.0,0.0,0.0,0.0,0.0,0.0,0.0,0.0,0.0,0.0,0.0,0.0,0.0,0.0,0.0,0.0,0.0,0.0,0.0,0.0,0.0,0.0,0.0,0.0,0.0,0.0,0.0,0.0,0.0,0.0,0.0,0.0,0.0,0.0,0.0,0.0,0.0,0.0,0.0,0.0,0.0,0.0,0.0,0.0,0.0,0.0,0.0,0.0,0.0,0.0,0.0,0.0,0.0,0.0,0.0,0.0,0.0,0.0,0.0,0.0,0.0,0.0,0.0,0.0,0.0,0.0,0.0,0.0,0.0,0.0,0.0,0.0,0.0,0.0,0.0,0.0,0.0,0.0,0.0,0.0,0.0,0.0,0.0,0.0,0.0,0.0,0.0,0.0,0.0,0.0,0.0,0.0,0.0,0.0,0.0,0.0,0.0,0.0,0.0,0.0,0.0,0.0,0.0,0.0,0.0,0.0,0.0,0.0,0.0,0.0,0.0,0.0,0.0,0.0,0.0,0.0,0.0,0.0,0.0,0.0,0.0,0.0,0.0,0.0,0.0,0.0,0.0,0.0,0.0,0.0,0.0,0.0,0.0,0.0,0.0,0.0,0.0,0.0,0.0,0.0,0.0,0.0,0.0,0.0,0.0,0.0,0.0,0.0,0.0,0.0,0.0,0.0,0.0,0.0,0.0,0.0,0.0,0.0,0.0,0.0,0.0,0.0,0.0,0.0,0.0,0.0,0.0,0.0,0.0,0.0,0.0,0.0,0.0,0.0,0.0,0.0,0.0,0.0,0.0,0.0,0.0,0.0,0.0,0.0,0.0,0.0,0.0,0.0,0.0,0.0,0.0,0.0,0.0,0.0,0.0,0.0,0.0,0.0,0.0,0.0,0.0,0.0,0.0,0.0,0.0,0.0,0.0,0.0,0.0,0.0,0.0,0.0,0.0,0.0,0.0,0.0,0.0,0.0,0.0,0.0,0.0,0.0,0.0,0.0,0.0,0.0,0.0,0.0,0.0,0.0,0.0,0.0,0.0,0.0,0.0,0.0,0.0,0.0,0.0,0.0,0.0,0.0,0.0,0.0,0.0,0.0,0.0,0.0,0.0,0.0,0.0,0.0,0.0,0.0,0.0,0.0,0.0,0.0,0.0,0.0,0.0,0.0,0.0,0.0,0.0,0.0,0.0,0.0,0.0,0.0,0.0,0.0,0.0,0.0,0.0,0.0,0.0,0.0,0.0,0.0,0.0,0.0,0.0,0.0,0.0,0.0,0.0,0.0,0.0,0.0,0.0,0.0,0.0,0.0,0.0,0.0,0.0,0.0,0.0,0.0,0.0,0.0,0.0,0.0,0.0,0.0,0.0,0.0,0.0,0.0,0.0,0.0,0.0,0.0,0.0,0.0,0.0,0.0,0.0,0.0,0.0,0.0,0.0,0.0,0.0,0.0,0.0,0.0,0.0,0.0,0.0,0.0,0.0,0.0,0.0,0.0,0.0,0.0,0.0,0.0,0.0,0.0,0.0,0.0,0.0,0.0,0.0,0.0,0.0,0.0,0.0,0.0,0.0,0.0,0.0,0.0,0.0,0.0,0.0,0.0,0.0,0.0,0.0,0.0,0.0,0.0,0.0,0.0,0.0,0.0,0.0,0.0,0.0,0.0,0.0,0.0,0.0,0.0,0.0,0.0,0.0,0.0,0.0,0.0,0.0,0.0,0.0,0.0,0.0,0.0,0.0,0.0,0.0,0.0,0.0,0.0,0.0,0.0,0.0,0.0,0.0,0.0,0.0,0.0,0.0,0.0,0.0,0.0,0.0,0.0,0.0,0.0,0.0,0.0,0.0,0.0,0.0,0.0,0.0,0.0,0.0,0.0,0.0,0.0,0.0,0.0,0.0,0.0,0.0,0.0,0.0,0.0,0.0,0.0,0.0,0.0,0.0,0.0,0.0,0.0,0.0,0.0,0.0,0.0,0.0,0.0,0.0,0.0,0.0,0.0,0.0,0.0,0.0,0.0,0.0,0.0,0.0,0.0,0.0,0.0,0.0,0.0,0.0,0.0,0.0,0.0,0.0,0.0,0.0,0.0,0.0,0.0,0.0,0.0,0.0,0.0,0.0,0.0,0.0,0.0,0.0,0.0,0.0,0.0,0.0,0.0,0.0,0.0,0.0,0.0,0.0,0.0,0.0,0.0,0.0,0.0,0.0,0.0,0.0,0.0,0.0,0.0,0.0,0.0,0.0,0.0,0.0,0.0,0.0,0.0,0.0,0.0,0.0,0.0,0.0,0.0,0.0,0.0,0.0,0.0,0.0,0.0,0.0,0.0,0.0,0.0,0.0,0.0,0.0,0.0,0.0,0.0,0.0,0.0,0.0,0.0,0.0,0.0,0.0,0.0,0.0,0.0,0.0,0.0,0.0,0.0,0.0,0.0,0.0,0.0,0.0,0.0,0.0,0.0,0.0,0.0,0.0,0.0,0.0,0.0,0.0,0.0,0.0,0.0,0.0,0.0,0.0,0.0,0.0,0.0,0.0,0.0,0.0,0.0,0.0,0.0,0.0,0.0,0.0,0.0,0.0,0.0,0.0,0.0,0.0,0.0,0.0,0.0,0.0,0.0,0.0,0.0,0.0,0.0,0.0,0.0,0.0,0.0,0.0,0.0,0.0,0.0,0.0,0.0,0.0,0.0,0.0,0.0,0.0,0.0,0.0,0.0,0.0,0.0,0.0,0.0,0.0,0.0,0.0,0.0,0.0,0.0,0.0,0.0,0.0,0.0,0.0,0.0,0.0,0.0,0.0,0.0,0.0,0.0,0.0,0.0,0.0,0.0,0.0,0.0,0.0,0.0,0.0,0.0,0.0,0.0,0.0,0.0,0.0,0.0,0.0,0.0,0.0,0.0,0.0,0.0,0.0,0.0,0.0,0.0,0.0,0.0,0.0,0.0,0.0,0.0,0.0,0.0,0.0,0.0,0.0,0.0,0.0,0.0,0.0,0.0,0.0,0.0,0.0,0.0,0.0,0.0,0.0,0.0,0.0,0.0,0.0,0.0,0.0,0.0,0.0,0.0,0.0,0.0,0.0,0.0,0.0,0.0,0.0,0.0,0.0,0.0,0.0,0.0,0.0,0.0,0.0,0.0,0.0,0.0,0.0,0.0,0.0,0.0,0.0,0.0,0.0,0.0,0.0,0.0,0.0,0.0,0.0,0.0,0.0,0.0,0.0,0.0,0.0,0.0,0.0,0.0,0.0,0.0,0.0,0.0,0.0,0.0,0.0,0.0,0.0,0.0,0.0,0.0,0.0,0.0,0.0,0.0,0.0,0.0,0.0,0.0,0.0,0.0,0.0,0.0,0.0,0.0,0.0,0.0,0.0,0.0,0.0,0.0,0.0,0.0,0.0,0.0,0.0,0.0,0.0,0.0,0.0,0.0,0.0,0.0,0.0,0.0,0.0,0.0,0.0,0.0,0.0,0.0,0.0,0.0,0.0,0.0,0.0,0.0,0.0,0.0,0.0,0.0,0.0,0.0,0.0,0.0,0.0,0.0,0.0,0.0,0.0,0.0,0.0,0.0,0.0,0.0,0.0,0.0,0.0,0.0,0.0,0.0,0.0,0.0,0.0,0.0,0.0,0.0,0.0,0.0,0.0,0.0,0.0,0.0,0.0,0.0,0.0,0.0,0.0,0.0,0.0,0.0,0.0,0.0,0.0,0.0,0.0,0.0,0.0,0.0,0.0,0.0,0.0,0.0,0.0,0.0,0.0,0.0,0.0,0.0,0.0,0.0,0.0,0.0,0.0,0.0,-4.0773,0.0,0.0,0.0,0.0,0.0,0.0,0.0,0.0,0.0,0.0,0.0,0.0,0.0,0.0,0.0,0.0,0.0,0.0,0.0,0.0,0.0,0.0,0.0,0.0,0.0,0.0,0.0,0.0,0.0,0.0,0.0,0.0,0.0,0.0,0.0,0.0,0.0,0.0,0.0,0.0,0.0,0.0,0.0,0.0,0.0,0.0,0.0,0.0,0.0,0.0,0.0,0.0,0.0,0.0,0.0,0.0,0.0,0.0,0.0,0.0,0.0,0.0,0.0,0.0,0.0,0.0,0.0,0.0,0.0,0.0,0.0,0.0,0.0,0.0,0.0,0.0,0.0,0.0,0.0,0.0,0.0,0.0,0.0,0.0,0.0,0.0,0.0,0.0,0.0,0.0,0.0,0.0,0.0,0.0,0.0,0.0,0.0,0.0,0.0,0.0,0.0,0.0,0.0,0.0,0.0,0.0,0.0,0.0,0.0,0.0,-4.1101,-4.1101,-4.0889,-4.0797,-4.0793,0.0,0.0,0.0,0.0,0.0,0.0,0.0,0.0,0.0,0.0,0.0,0.0,0.0,0.0,0.0,0.0,0.0,0.0,0.0,0.0,0.0,0.0,0.0,0.0,0.0,0.0,0.0,0.0,0.0,0.0,0.0,0.0,0.0,0.0,0.0,0.0,0.0,0.0,0.0,0.0,0.0,0.0,0.0,0.0,0.0,0.0,0.0,0.0,0.0,0.0,0.0,0.0,0.0,0.0,0.0,0.0,0.0,0.0,0.0,0.0,0.0,0.0,0.0,0.0,0.0,0.0,0.0,0.0,0.0,0.0,0.0,0.0,0.0,0.0,0.0,0.0,0.0,0.0,0.0,0.0,0.0,0.0,0.0,0.0,0.0,0.0,0.0,0.0,0.0,0.0,0.0,0.0,0.0,0.0,0.0,0.0,0.0,0.0,0.0,0.0,0.0,0.0,0.0,0.0,0.0,0.0,0.0,0.0,0.0,0.0,0.0,0.0,-4.0897,-4.0843,-4.0797,0.0,0.0,0.0,0.0,0.0,0.0,0.0,0.0,0.0,0.0,0.0,0.0,0.0,0.0,0.0,0.0,0.0,0.0,0.0,0.0,0.0,0.0,0.0,0.0,0.0,0.0,0.0,0.0,0.0,0.0,0.0,0.0,0.0,0.0,0.0,0.0,0.0,0.0,0.0,0.0,0.0,0.0,0.0,0.0,0.0,0.0,0.0,0.0,0.0,0.0,0.0,0.0,0.0,0.0,0.0,0.0,0.0,0.0,0.0,0.0,0.0,0.0,0.0,0.0,0.0,0.0,0.0,0.0,0.0,0.0,0.0,0.0,0.0,0.0,0.0,0.0,0.0,0.0,0.0,0.0,0.0,0.0,0.0,0.0,0.0,0.0,0.0,0.0,0.0,0.0,0.0,0.0,0.0,0.0,0.0,0.0,0.0,0.0,0.0,0.0,0.0,0.0,0.0,0.0,0.0,0.0,0.0,0.0,0.0,0.0,-4.1191,-4.1191,-4.1052,0.0,-4.0801,0.0,0.0,0.0,0.0,0.0,0.0,0.0,0.0,0.0,0.0,0.0,0.0,0.0,0.0,0.0,0.0,0.0,0.0,0.0,0.0,0.0,0.0,0.0,0.0,0.0,0.0,0.0,0.0,0.0,0.0,0.0,0.0,0.0,0.0,0.0,0.0,0.0,0.0,0.0,0.0,0.0,0.0,0.0,0.0,0.0,0.0,0.0,0.0,0.0,0.0,0.0,0.0,0.0,0.0,0.0,0.0,0.0,0.0,0.0,0.0,0.0,0.0,0.0,0.0,0.0,0.0,0.0,0.0,0.0,0.0,0.0,0.0,0.0,0.0,0.0,0.0,0.0,0.0,0.0,0.0,0.0,0.0,0.0,0.0,0.0,0.0,0.0,0.0,0.0,0.0,0.0,0.0,0.0,0.0,0.0,0.0,0.0,0.0,0.0,0.0,0.0,0.0,0.0,0.0,0.0,0.0,0.0,0.0,0.0,0.0,-4.1191,-4.1191,-4.1149,-4.1073,0.0,0.0,0.0,0.0,0.0,0.0,0.0,0.0,0.0,0.0,0.0,0.0,0.0,0.0,0.0,0.0,0.0,0.0,0.0,0.0,0.0,0.0,0.0,0.0,0.0,0.0,0.0,0.0,0.0,0.0,0.0,0.0,0.0,0.0,0.0,0.0,0.0,0.0,0.0,0.0,0.0,0.0,0.0,0.0,0.0,0.0,0.0,0.0,0.0,0.0,0.0,0.0,0.0,0.0,0.0,0.0,0.0,0.0,0.0,0.0,0.0,0.0,0.0,0.0,0.0,0.0,0.0,0.0,0.0,0.0,0.0,0.0,0.0,0.0,0.0,0.0,0.0,0.0,0.0,0.0,0.0,0.0,0.0,0.0,0.0,0.0,0.0,0.0,0.0,0.0,0.0,0.0,0.0,0.0,0.0,0.0,0.0,0.0,0.0,0.0,0.0,0.0,0.0,0.0,0.0,0.0,0.0,0.0,0.0,0.0,-4.1191,-4.1191,-4.1191,-4.1191,-4.115,-4.1054,0.0,0.0,0.0,0.0,0.0,0.0,0.0,0.0,0.0,0.0,0.0,0.0,0.0,0.0,0.0,0.0,0.0,0.0,0.0,0.0,0.0,0.0,0.0,0.0,0.0,0.0,0.0,0.0,0.0,0.0,0.0,0.0,0.0,0.0,0.0,0.0,0.0,0.0,0.0,0.0,0.0,0.0,0.0,0.0,0.0,0.0,0.0,0.0,0.0,0.0,0.0,0.0,0.0,0.0,0.0,0.0,0.0,0.0,0.0,0.0,0.0,0.0,0.0,0.0,0.0,0.0,0.0,0.0,0.0,0.0,0.0,0.0,0.0,0.0,0.0,0.0,0.0,0.0,0.0,0.0,0.0,0.0,0.0,0.0,0.0,0.0,0.0,0.0,0.0,0.0,0.0,0.0,0.0,0.0,0.0,0.0,0.0,0.0,0.0,0.0,0.0,0.0,0.0,0.0,0.0,0.0,0.0,0.0,-4.1191,-4.1191,-4.1191,-4.1191,-4.1191,-4.1191,0.0,0.0,0.0,0.0,0.0,0.0,0.0,0.0,0.0,0.0,0.0,0.0,0.0,0.0,0.0,0.0,0.0,0.0,0.0,0.0,0.0,0.0,0.0,0.0,0.0,0.0,0.0,0.0,0.0,0.0,0.0,0.0,0.0,0.0,0.0,0.0,0.0,0.0,0.0,0.0,0.0,0.0,0.0,0.0,0.0,0.0,0.0,0.0,0.0,0.0,0.0,0.0,0.0,0.0,0.0,0.0,0.0,0.0,0.0,0.0,0.0,0.0,0.0,0.0,0.0,0.0,0.0,0.0,0.0,0.0,0.0,0.0,0.0,0.0,0.0,0.0,0.0,0.0,0.0,0.0,0.0,0.0,0.0,0.0,0.0,0.0,0.0,0.0,0.0,0.0,0.0,0.0,0.0,0.0,0.0,0.0,0.0,0.0,0.0,0.0,0.0,0.0,0.0,0.0,0.0,0.0,0.0,0.0,0.0,-4.1191,-4.1191,-4.1191,-4.1191,-4.1191,-4.1191,0.0,0.0,0.0,0.0,0.0,0.0,0.0,0.0,0.0,0.0,0.0,0.0,0.0,0.0,0.0,0.0,0.0,0.0,0.0,0.0,0.0,0.0,0.0,0.0,0.0,0.0,0.0,0.0,0.0,0.0,0.0,0.0,0.0,0.0,0.0,0.0,0.0,0.0,0.0,0.0,0.0,0.0,0.0,0.0,0.0,0.0,0.0,0.0,0.0,0.0,0.0,0.0,0.0,0.0,0.0,0.0,0.0,0.0,0.0,0.0,0.0,0.0,0.0,0.0,0.0,0.0,0.0,0.0,0.0,0.0,0.0,0.0,0.0,0.0,0.0,0.0,0.0,0.0,0.0,0.0,0.0,0.0,0.0,0.0,0.0,0.0,0.0,0.0,0.0,0.0,0.0,0.0,0.0,0.0,0.0,0.0,0.0,0.0,0.0,0.0,0.0,0.0,0.0,0.0,0.0,0.0,0.0,0.0,0.0,-4.1191,0.0,-4.1191,-4.1191,-4.1191,-4.1191,0.0,0.0,0.0,0.0,0.0,0.0,0.0,0.0,0.0,0.0,0.0,0.0,0.0,0.0,0.0,0.0,0.0,0.0,0.0,0.0,0.0,0.0,0.0,0.0,0.0,0.0,0.0,0.0,0.0,0.0,0.0,0.0,0.0,0.0,0.0,0.0,0.0,0.0,0.0,0.0,0.0,0.0,0.0,0.0,0.0,0.0,0.0,0.0,0.0,0.0,0.0,0.0,0.0,0.0,0.0,0.0,0.0,0.0,0.0,0.0,0.0,0.0,0.0,0.0,0.0,0.0,0.0,0.0,0.0,0.0,0.0,0.0,0.0,0.0,0.0,0.0,0.0,0.0,0.0,0.0,0.0,0.0,0.0,0.0,0.0,0.0,0.0,0.0,0.0,0.0,0.0,0.0,0.0,0.0,0.0,0.0,0.0,0.0,0.0,0.0,0.0,0.0,0.0,0.0,0.0,0.0,0.0,0.0,-4.1191,-4.1191,-4.1191,-4.1191,-4.1191,-4.1191,-4.1191,0.0,0.0,0.0,0.0,0.0,0.0,0.0,0.0,0.0,0.0,0.0,0.0,0.0,0.0,0.0,0.0,0.0,0.0,0.0,0.0,0.0,0.0,0.0,0.0,0.0,0.0,0.0,0.0,0.0,0.0,0.0,0.0,0.0,0.0,0.0,0.0,0.0,0.0,0.0,0.0,0.0,0.0,0.0,0.0,0.0,0.0,0.0,0.0,0.0,0.0,0.0,0.0,0.0,0.0,0.0,0.0,0.0,0.0,0.0,0.0,0.0,0.0,0.0,0.0,0.0,0.0,0.0,0.0,0.0,0.0,0.0,0.0,0.0,0.0,0.0,0.0,0.0,0.0,0.0,0.0,0.0,0.0,0.0,0.0,0.0,0.0,0.0,0.0,0.0,0.0,0.0,0.0,0.0,0.0,0.0,0.0,0.0,0.0,0.0,0.0,0.0,0.0,0.0,0.0,0.0,0.0,0.0,0.0,0.0,-4.1191,-4.1191,-4.1191,-4.1191,-4.1191,-4.1191,0.0,0.0,0.0,0.0,0.0,0.0,0.0,0.0,0.0,0.0,0.0,0.0,0.0,0.0,0.0,0.0,0.0,0.0,0.0,0.0,0.0,0.0,0.0,0.0,0.0,0.0,0.0,0.0,0.0,0.0,0.0,0.0,0.0,0.0,0.0,0.0,0.0,0.0,0.0,0.0,0.0,0.0,0.0,0.0,0.0,0.0,0.0,0.0,0.0,0.0,0.0,0.0,0.0,0.0,0.0,0.0,0.0,0.0,0.0,0.0,0.0,0.0,0.0,0.0,0.0,0.0,0.0,0.0,0.0,0.0,0.0,0.0,0.0,0.0,0.0,0.0,0.0,0.0,0.0,0.0,0.0,0.0,0.0,0.0,0.0,0.0,0.0,0.0,0.0,0.0,0.0,0.0,0.0,0.0,0.0,0.0,0.0,0.0,0.0,0.0,0.0,0.0,0.0,0.0,0.0,0.0,0.0,0.0,0.0,-4.1191,-4.1191,-4.1191,-4.1191,-4.1191,-4.1191,-4.1191,0.0,0.0,0.0,0.0,0.0,0.0,0.0,0.0,0.0,0.0,0.0,0.0,0.0,0.0,0.0,0.0,0.0,0.0,0.0,0.0,0.0,0.0,0.0,0.0,0.0,0.0,0.0,0.0,0.0,0.0,0.0,0.0,0.0,0.0,0.0,0.0,0.0,0.0,0.0,0.0,0.0,0.0,0.0,0.0,0.0,0.0,0.0,0.0,0.0,0.0,0.0,0.0,0.0,0.0,0.0,0.0,0.0,0.0,0.0,0.0,0.0,0.0,0.0,0.0,0.0,0.0,0.0,0.0,0.0,0.0,0.0,0.0,0.0,0.0,0.0,0.0,0.0,0.0,0.0,0.0,0.0,0.0,0.0,0.0,0.0,0.0,0.0,0.0,0.0,0.0,0.0,0.0,0.0,0.0,0.0,0.0,0.0,0.0,0.0,0.0,0.0,0.0,0.0,0.0,0.0,0.0,0.0,0.0,-4.1191,-4.1191,-4.1191,-4.1191,-4.1191,-4.1191,0.0,0.0,0.0,0.0,0.0,0.0,0.0,0.0,0.0,0.0,0.0,0.0,0.0,0.0,0.0,0.0,0.0,0.0,0.0,0.0,0.0,0.0,0.0,0.0,0.0,0.0,0.0,0.0,0.0,0.0,0.0,0.0,0.0,0.0,0.0,0.0,0.0,0.0,0.0,0.0,0.0,0.0,0.0,0.0,0.0,0.0,0.0,0.0,0.0,0.0,0.0,0.0,0.0,0.0,0.0,0.0,0.0,0.0,0.0,0.0,0.0,0.0,0.0,0.0,0.0,0.0,0.0,0.0,0.0,0.0,0.0,0.0,0.0,0.0,0.0,0.0,0.0,0.0,0.0,0.0,0.0,0.0,0.0,0.0,0.0,0.0,0.0,0.0,0.0,0.0,0.0,0.0,0.0,0.0,0.0,0.0,0.0,0.0,0.0,0.0,0.0,0.0,0.0,0.0,0.0,0.0,0.0,0.0,0.0,-4.1191,-4.1191,-4.1191,-4.1191,-4.1191,-4.1191,0.0,0.0,0.0,0.0,0.0,0.0,0.0,0.0,0.0,0.0,0.0,0.0,0.0,0.0,0.0,0.0,0.0,0.0,0.0,0.0,0.0,0.0,0.0,0.0,0.0,0.0,0.0,0.0,0.0,0.0,0.0,0.0,0.0,0.0,0.0,0.0,0.0,0.0,0.0,0.0,0.0,0.0,0.0,0.0,0.0,0.0,0.0,0.0,0.0,0.0,0.0,0.0,0.0,0.0,0.0,0.0,0.0,0.0,0.0,0.0,0.0,0.0,0.0,0.0,0.0,0.0,0.0,0.0,0.0,0.0,0.0,0.0,0.0,0.0,0.0,0.0,0.0,0.0,0.0,0.0,0.0,0.0,0.0,0.0,0.0,0.0,0.0,0.0,0.0,0.0,0.0,0.0,0.0,0.0,0.0,0.0,0.0,0.0,0.0,0.0,0.0,0.0,0.0,0.0,0.0,0.0,0.0,0.0,-4.1191,-4.1191,-4.1191,-4.1191,-4.1191,-4.1191,-4.1191,0.0,0.0,0.0,0.0,0.0,0.0,0.0,0.0,0.0,0.0,0.0,0.0,0.0,0.0,0.0,0.0,0.0,0.0,0.0,0.0,0.0,0.0,0.0,0.0,0.0,0.0,0.0,0.0,0.0,0.0,0.0,0.0,0.0,0.0,0.0,0.0,0.0,0.0,0.0,0.0,0.0,0.0,0.0,0.0,0.0,0.0,0.0,0.0,0.0,0.0,0.0,0.0,0.0,0.0,0.0,0.0,0.0,0.0,0.0,0.0,0.0,0.0,0.0,0.0,0.0,0.0,0.0,0.0,0.0,0.0,0.0,0.0,0.0,0.0,0.0,0.0,0.0,0.0,0.0,0.0,0.0,0.0,0.0,0.0,0.0,0.0,0.0,0.0,0.0,0.0,0.0,0.0,0.0,0.0,0.0,0.0,0.0,0.0,0.0,0.0,0.0,0.0,0.0,0.0,0.0,0.0,0.0,0.0,-4.1191,-4.1191,-4.1191,-4.1191,-4.1191,-4.1191,-4.1191,0.0,0.0,0.0,0.0,0.0,0.0,0.0,0.0,0.0,0.0,0.0,0.0,0.0,0.0,0.0,0.0,0.0,0.0,0.0,0.0,0.0,0.0,0.0,0.0,0.0,0.0,0.0,0.0,0.0,0.0,0.0,0.0,0.0,0.0,0.0,0.0,0.0,0.0,0.0,0.0,0.0,0.0,0.0,0.0,0.0,0.0,0.0,0.0,0.0,0.0,0.0,0.0,0.0,0.0,0.0,0.0,0.0,0.0,0.0,0.0,0.0,0.0,0.0,0.0,0.0,0.0,0.0,0.0,0.0,0.0,0.0,0.0,0.0,0.0,0.0,0.0,0.0,0.0,0.0,0.0,0.0,0.0,0.0,0.0,0.0,0.0,0.0,0.0,0.0,0.0,0.0,0.0,0.0,0.0,0.0,0.0,0.0,0.0,0.0,0.0,0.0,0.0,0.0,0.0,0.0,0.0,0.0,0.0,-4.1191,-4.1191,-4.1191,-4.1191,-4.1191,-4.1191,-4.1191,0.0,0.0,0.0,0.0,0.0,0.0,0.0,0.0,0.0,0.0,0.0,0.0,0.0,0.0,0.0,0.0,0.0,0.0,0.0,0.0,0.0,0.0,0.0,0.0,0.0,0.0,0.0,0.0,0.0,0.0,0.0,0.0,0.0,0.0,0.0,0.0,0.0,0.0,0.0,0.0,0.0,0.0,0.0,0.0,0.0,0.0,0.0,0.0,-4.0319,0.0,0.0,0.0,0.0,0.0,0.0,0.0,0.0,0.0,0.0,0.0,0.0,0.0,0.0,0.0,0.0,0.0,0.0,0.0,0.0,0.0,0.0,0.0,0.0,0.0,0.0,0.0,0.0,0.0,0.0,0.0,0.0,0.0,0.0,0.0,0.0,0.0,0.0,0.0,0.0,0.0,0.0,0.0,0.0,0.0,0.0,0.0,0.0,0.0,0.0,0.0,0.0,0.0,0.0,0.0,0.0,0.0,0.0,0.0,-4.1191,-4.1191,-4.1191,-4.1191,-4.1191,-4.1191,-4.1191,0.0,0.0,0.0,0.0,0.0,0.0,0.0,0.0,0.0,0.0,0.0,0.0,0.0,0.0,0.0,0.0,0.0,0.0,0.0,0.0,0.0,0.0,0.0,0.0,0.0,0.0,0.0,0.0,0.0,0.0,0.0,0.0,0.0,0.0,0.0,0.0,0.0,0.0,0.0,0.0,0.0,0.0,0.0,0.0,0.0,0.0,0.0,0.0,0.0,0.0,0.0,0.0,0.0,0.0,0.0,0.0,0.0,0.0,0.0,0.0,0.0,0.0,0.0,0.0,0.0,0.0,0.0,0.0,0.0,0.0,0.0,0.0,0.0,0.0,0.0,0.0,0.0,0.0,0.0,0.0,0.0,0.0,0.0,0.0,0.0,0.0,0.0,0.0,0.0,0.0,0.0,0.0,0.0,0.0,0.0,0.0,0.0,0.0,0.0,0.0,0.0,0.0,0.0,0.0,0.0,0.0,0.0,-4.1191,-4.1191,-4.1171,-4.1191,-4.1191,-4.1191,-4.1191,-4.1191,-4.1191,0.0,0.0,0.0,0.0,0.0,0.0,0.0,0.0,0.0,0.0,0.0,0.0,0.0,0.0,0.0,0.0,0.0,0.0,0.0,0.0,0.0,0.0,0.0,0.0,0.0,0.0,0.0,0.0,0.0,0.0,0.0,0.0,0.0,0.0,0.0,0.0,0.0,0.0,-4.0496,-4.0496,0.0,0.0,0.0,0.0,0.0,0.0,0.0,0.0,-4.0267,0.0,0.0,0.0,0.0,0.0,0.0,0.0,0.0,0.0,0.0,0.0,0.0,0.0,0.0,0.0,0.0,0.0,0.0,0.0,0.0,0.0,0.0,0.0,0.0,0.0,0.0,0.0,0.0,0.0,0.0,0.0,0.0,0.0,0.0,0.0,0.0,0.0,0.0,0.0,0.0,0.0,0.0,0.0,0.0,0.0,0.0,0.0,0.0,0.0,0.0,0.0,0.0,0.0,0.0,0.0,0.0,-4.087,-4.1081,-4.1149,-4.1028,-4.1149,-4.1191,-4.1191,-4.1191,-4.1191,-4.1191,0.0,0.0,0.0,0.0,0.0,0.0,0.0,0.0,0.0,0.0,0.0,0.0,0.0,0.0,0.0,0.0,0.0,0.0,0.0,0.0,0.0,0.0,0.0,0.0,0.0,0.0,0.0,0.0,0.0,0.0,0.0,0.0,0.0,0.0,0.0,0.0,0.0,0.0,0.0,-4.0496,-4.0496,0.0,0.0,0.0,0.0,0.0,0.0,0.0,0.0,-4.0081,0.0,0.0,0.0,0.0,0.0,0.0,0.0,0.0,0.0,0.0,0.0,0.0,0.0,0.0,0.0,0.0,0.0,0.0,0.0,0.0,0.0,0.0,0.0,0.0,0.0,0.0,0.0,0.0,0.0,0.0,0.0,0.0,0.0,0.0,0.0,0.0,0.0,0.0,0.0,0.0,0.0,0.0,0.0,0.0,0.0,0.0,0.0,0.0,0.0,0.0,0.0,0.0,0.0,0.0,0.0,-4.0809,-4.0922,-4.0959,-4.0908,-4.0957,-4.0992,-4.0992,-4.1014,-4.1025,0.0,0.0,0.0,0.0,0.0,0.0,0.0,0.0,0.0,0.0,0.0,0.0,0.0,0.0,0.0,0.0,0.0,0.0,0.0,0.0,0.0,0.0,0.0,0.0,0.0,0.0,0.0,0.0,0.0,0.0,0.0,0.0,0.0,0.0,0.0,0.0,0.0,0.0,0.0,0.0,-4.0496,-4.0496,-4.0496,0.0,0.0,0.0,0.0,0.0,0.0,-4.0408,-4.025,0.0,0.0,0.0,0.0,0.0,0.0,0.0,0.0,0.0,0.0,0.0,0.0,0.0,0.0,0.0,0.0,0.0,0.0,0.0,0.0,0.0,0.0,0.0,0.0,0.0,0.0,0.0,0.0,0.0,0.0,0.0,0.0,0.0,0.0,0.0,0.0,0.0,0.0,0.0,0.0,0.0,0.0,0.0,0.0,0.0,0.0,0.0,0.0,0.0,0.0,0.0,0.0,0.0,0.0,0.0,-4.0733,-4.0777,-4.0809,-4.0768,-4.0805,-4.0797,-4.0797,-4.0797,-4.0854,0.0,0.0,0.0,0.0,0.0,0.0,0.0,0.0,0.0,0.0,0.0,0.0,0.0,0.0,0.0,0.0,0.0,0.0,0.0,0.0,0.0,0.0,0.0,0.0,0.0,0.0,0.0,0.0,0.0,0.0,0.0,0.0,0.0,0.0,0.0,0.0,0.0,0.0,0.0,0.0,0.0,-4.0496,-4.0496,-4.0496,0.0,0.0,0.0,0.0,-4.0496,-4.0496,0.0,0.0,0.0,0.0,0.0,0.0,0.0,0.0,0.0,0.0,0.0,0.0,0.0,0.0,0.0,0.0,0.0,0.0,0.0,0.0,0.0,0.0,0.0,0.0,0.0,0.0,0.0,0.0,0.0,0.0,0.0,0.0,0.0,0.0,0.0,0.0,0.0,0.0,0.0,0.0,0.0,0.0,0.0,0.0,0.0,0.0,0.0,0.0,0.0,0.0,0.0,0.0,0.0,0.0,0.0,0.0,-4.0547,-4.0713,-4.077,-4.0718,-4.0766,-4.0797,-4.0797,-4.0797,-4.0805,0.0,0.0,0.0,0.0,0.0,0.0,0.0,0.0,0.0,0.0,0.0,0.0,0.0,0.0,0.0,0.0,0.0,0.0,0.0,0.0,0.0,0.0,0.0,0.0,0.0,0.0,0.0,0.0,0.0,0.0,0.0,0.0,0.0,0.0,0.0,0.0,0.0,0.0,0.0,0.0,0.0,-4.0496,-4.0496,-4.0496,-4.0496,0.0,0.0,-4.0496,-4.0496,-4.0496,0.0,0.0,0.0,0.0,0.0,0.0,0.0,0.0,0.0,0.0,0.0,0.0,0.0,0.0,0.0,0.0,0.0,0.0,0.0,0.0,0.0,0.0,0.0,0.0,0.0,0.0,0.0,0.0,0.0,0.0,0.0,0.0,0.0,0.0,0.0,0.0,0.0,0.0,0.0,0.0,0.0,0.0,0.0,0.0,0.0,0.0,0.0,0.0,0.0,0.0,0.0,0.0,0.0,0.0,0.0,-4.0559,-4.0504,-4.0578,-4.0617,-4.0582,-4.0617,-4.0635,-4.0635,-4.0635,-4.0651,0.0,0.0,0.0,0.0,0.0,0.0,0.0,0.0,0.0,0.0,0.0,0.0,0.0,0.0,0.0,0.0,0.0,0.0,0.0,0.0,0.0,0.0,0.0,0.0,0.0,0.0,0.0,0.0,0.0,0.0,0.0,0.0,0.0,0.0,0.0,0.0,0.0,0.0,0.0,0.0,0.0,0.0,-4.0496,-4.0496,0.0,0.0,0.0,-4.0496,-4.0496,0.0,0.0,0.0,0.0,0.0,0.0,0.0,0.0,0.0,0.0,0.0,0.0,0.0,0.0,0.0,0.0,0.0,0.0,0.0,0.0,0.0,0.0,0.0,0.0,0.0,0.0,0.0,0.0,0.0,0.0,0.0,0.0,0.0,0.0,0.0,0.0,0.0,0.0,0.0,0.0,0.0,0.0,0.0,0.0,0.0,0.0,0.0,0.0,0.0,0.0,0.0,0.0,0.0,0.0,0.0,0.0,0.0,-4.0496,-4.0496,-4.0496,-4.0496,-4.0496,-4.0496,-4.0496,-4.0496,0.0,0.0,0.0,0.0,0.0,0.0,0.0,0.0,0.0,0.0,0.0,0.0,0.0,0.0,0.0,0.0,0.0,0.0,0.0,0.0,0.0,0.0,0.0,0.0,0.0,0.0,0.0,-4.117,0.0,0.0,0.0,0.0,0.0,0.0,0.0,0.0,0.0,0.0,0.0,0.0,0.0,0.0,-4.0496,-4.0496,-4.0496,-4.0496,0.0,0.0,-4.0496,-4.0496,-4.0496,-4.0496,0.0,0.0,0.0,0.0,0.0,0.0,0.0,0.0,0.0,0.0,0.0,0.0,0.0,0.0,0.0,0.0,0.0,0.0,0.0,0.0,0.0,0.0,0.0,0.0,0.0,0.0,0.0,0.0,0.0,0.0,0.0,0.0,0.0,0.0,0.0,0.0,0.0,0.0,0.0,0.0,0.0,0.0,0.0,0.0,0.0,0.0,0.0,0.0,0.0,0.0,0.0,0.0,0.0,0.0,0.0,-4.0496,-4.0496,-4.0496,-4.0496,-4.0496,-4.0496,-4.0496,-4.0496,-4.0504,0.0,0.0,0.0,0.0,0.0,0.0,0.0,0.0,0.0,0.0,0.0,0.0,0.0,0.0,0.0,0.0,0.0,0.0,0.0,0.0,0.0,0.0,0.0,0.0,0.0,0.0,0.0,0.0,0.0,0.0,0.0,0.0,0.0,0.0,0.0,0.0,0.0,0.0,0.0,0.0,0.0,-4.0496,-4.0496,-4.0496,-4.0496,0.0,0.0,-4.0496,-4.0496,-4.0496,-4.0496,-4.0496,0.0,0.0,0.0,0.0,0.0,0.0,0.0,0.0,0.0,0.0,0.0,0.0,0.0,0.0,0.0,0.0,0.0,0.0,0.0,0.0,0.0,0.0,0.0,0.0,0.0,0.0,0.0,0.0,0.0,0.0,0.0,0.0,0.0,0.0,0.0,0.0,0.0,0.0,0.0,0.0,0.0,0.0,0.0,0.0,0.0,0.0,0.0,0.0,0.0,0.0,0.0,0.0,0.0,-4.0496,-4.0496,-4.0496,-4.0496,-4.0496,-4.0496,-4.0496,-4.0496,-4.0496,-4.0496,0.0,0.0,0.0,0.0,0.0,0.0,0.0,0.0,0.0,0.0,0.0,0.0,0.0,0.0,0.0,0.0,0.0,0.0,0.0,0.0,0.0,0.0,0.0,0.0,0.0,0.0,0.0,0.0,-4.115,-4.1107,-4.1127,0.0,0.0,0.0,0.0,0.0,0.0,0.0,0.0,0.0,0.0,-4.0496,-4.0496,-4.0496,0.0,0.0,-4.0496,-4.0496,-4.0496,-4.0496,-4.0496,-4.0496,-4.0406,0.0,0.0,0.0,0.0,0.0,0.0,0.0,0.0,0.0,0.0,0.0,0.0,0.0,0.0,0.0,0.0,0.0,0.0,0.0,0.0,0.0,0.0,0.0,0.0,0.0,0.0,0.0,0.0,0.0,0.0,0.0,0.0,0.0,0.0,0.0,0.0,0.0,0.0,0.0,0.0,0.0,0.0,0.0,0.0,0.0,0.0,0.0,0.0,0.0,0.0,0.0,0.0,-4.0496,-4.0496,-4.0496,-4.0496,-4.0496,-4.0496,-4.0496,-4.0496,-4.0496,-4.0496,0.0,0.0,0.0,0.0,0.0,0.0,0.0,0.0,0.0,0.0,0.0,0.0,0.0,0.0,0.0,0.0,0.0,0.0,0.0,0.0,0.0,0.0,0.0,0.0,0.0,0.0,0.0,0.0,-4.1191,-4.1191,-4.1191,0.0,0.0,0.0,0.0,0.0,0.0,0.0,0.0,0.0,0.0,-4.0496,-4.0496,-4.0496,-4.0496,-4.0496,-4.0496,-4.0496,-4.0496,-4.0496,-4.0496,-4.0496,0.0,0.0,0.0,0.0,0.0,0.0,0.0,0.0,0.0,0.0,0.0,0.0,0.0,0.0,0.0,0.0,0.0,0.0,0.0,0.0,0.0,0.0,0.0,0.0,0.0,0.0,0.0,0.0,0.0,0.0,-3.8735,0.0,0.0,0.0,0.0,0.0,0.0,0.0,0.0,0.0,0.0,0.0,0.0,0.0,0.0,0.0,0.0,0.0,0.0,0.0,0.0,0.0,0.0,-4.0489,-4.0489,-4.0481,-4.0481,-4.0481,-4.0489,-4.0481,-4.0481,-4.0489,-4.0489,-4.0481,0.0,0.0,0.0,0.0,0.0,0.0,0.0,0.0,0.0,0.0,0.0,0.0,0.0,0.0,0.0,0.0,0.0,0.0,0.0,0.0,0.0,0.0,0.0,0.0,0.0,0.0,-4.1191,-4.1191,-4.1191,0.0,0.0,0.0,0.0,0.0,0.0,0.0,0.0,0.0,0.0,-4.0496,-4.0496,-4.0496,-4.0496,-4.0496,-4.0496,-4.0496,-4.0496,-4.0496,-4.0496,-4.0496,0.0,0.0,0.0,0.0,0.0,0.0,0.0,0.0,0.0,0.0,0.0,0.0,0.0,0.0,0.0,0.0,0.0,0.0,0.0,0.0,0.0,0.0,0.0,0.0,0.0,0.0,0.0,-3.8707,-3.8707,0.0,0.0,0.0,0.0,0.0,0.0,0.0,0.0,0.0,0.0,0.0,-3.8844,-3.8942,0.0,0.0,0.0,0.0,0.0,0.0,0.0,0.0,0.0,0.0,0.0,0.0,-4.0251,-4.0223,-4.0023,-3.9913,-3.9894,-3.9894,-3.9894,-3.9905,-3.9924,-3.9894,-3.9913,0.0,0.0,0.0,0.0,0.0,0.0,0.0,0.0,0.0,0.0,0.0,0.0,0.0,0.0,0.0,0.0,0.0,0.0,0.0,0.0,0.0,0.0,0.0,0.0,0.0,-4.1191,0.0,0.0,0.0,0.0,0.0,0.0,0.0,0.0,0.0,0.0,0.0,-4.068,-4.0623,-4.0552,-4.0496,-4.0496,-4.0496,-4.0496,0.0,0.0,0.0,0.0,0.0,0.0,0.0,0.0,0.0,0.0,0.0,0.0,0.0,0.0,-3.8957,-3.8957,-3.8833,-3.8707,-3.8707,0.0,0.0,0.0,0.0,0.0,0.0,0.0,0.0,0.0,0.0,0.0,0.0,0.0,0.0,-3.8316,0.0,-3.835,0.0,0.0,0.0,0.0,0.0,0.0,0.0,0.0,-3.8707,-3.8707,-3.8707,-3.8707,-3.8707,0.0,-3.8865,-3.9068,0.0,0.0,0.0,0.0,0.0,0.0,0.0,0.0,-3.9941,-3.9912,-3.9701,-3.9611,-3.9611,-3.9611,-3.9611,-3.9611,-3.9611,-3.9611,-3.9611,-3.9611,-3.969,0.0,0.0,0.0,0.0,0.0,0.0,0.0,0.0,0.0,0.0,0.0,0.0,0.0,0.0,0.0,0.0,0.0,0.0,0.0,0.0,0.0,0.0,0.0,-4.1147,0.0,0.0,0.0,0.0,0.0,0.0,0.0,0.0,0.0,-4.1021,-4.0893,-4.0791,-4.0742,-4.0649,-4.0574,-4.0574,0.0,0.0,0.0,0.0,0.0,0.0,0.0,-4.0496,-4.0496,-4.0496,-4.0449,-4.0278,-4.0062,-3.9905,-3.9924,0.0,0.0,-3.9133,-3.8884,-3.8707,-3.8707,-3.8707,-3.8707,-3.8707,-3.8707,-3.8707,0.0,0.0,0.0,0.0,0.0,0.0,0.0,0.0,-3.7894,-3.7632,0.0,-3.7685,0.0,0.0,0.0,0.0,0.0,-3.8707,0.0,0.0,-3.8707,-3.8707,-3.8707,-3.8707,-3.8707,-3.8707,-3.8707,-3.8723,-3.875,-3.9275,0.0,0.0,0.0,0.0,0.0,0.0,-3.9587,-3.9587,-3.9564,-3.9564,-3.9564,-3.9564,-3.9564,-3.9552,-3.9564,-3.9552,-3.9564,-3.9552,-3.9576,-3.9587,-3.9587,0.0,0.0,0.0,0.0,0.0,0.0,0.0,0.0,0.0,0.0,0.0,0.0,0.0,0.0,0.0,0.0,0.0,0.0,0.0,0.0,-4.0917,0.0,0.0,0.0,0.0,0.0,0.0,0.0,0.0,0.0,0.0,-4.1025,-4.1016,-4.0955,-4.0816,0.0,0.0,0.0,0.0,-4.0504,-4.0496,-4.0496,-4.0496,-4.0496,-4.0496,-4.0496,-4.0496,0.0,0.0,-4.0496,-4.0489,-4.0481,-4.0489,-4.025,-3.9891,-3.9257,-3.8923,-3.8719,-3.8707,-3.8707,-3.8707,-3.8707,-3.8707,-3.8707,-3.7272,0.0,0.0,0.0,0.0,-3.7632,-3.7542,-3.7414,-3.7396,-3.734,-3.7192,-3.7341,0.0,0.0,0.0,0.0,0.0,0.0,-3.8707,-3.8707,-3.8707,-3.8707,-3.8707,-3.8707,-3.8707,-3.8707,-3.8707,-3.8707,-3.8704,-3.8877,-3.8974,-3.8974,0.0,0.0,0.0,0.0,-3.9238,-3.9225,-3.9059,-3.8956,-3.8956,-3.8956,-3.8974,-3.8956,-3.8956,-3.8956,-3.8956,-3.8974,-3.9045,-3.9244,-3.9238,0.0,0.0,0.0,0.0,0.0,0.0,0.0,0.0,0.0,0.0,0.0,0.0,0.0,0.0,0.0,0.0,0.0,0.0,0.0,-4.0809,-4.0824,-4.086,0.0,0.0,0.0,0.0,0.0,0.0,0.0,0.0,0.0,-4.1149,-4.1055,-4.099,0.0,0.0,-4.0733,-4.0709,-4.0661,-4.061,-4.05,-4.0496,0.0,0.0,-4.0496,-4.0496,-4.0496,-4.0496,-4.0496,-4.0496,-4.0496,-4.0496,-4.0496,-4.0295,-3.9972,-3.9552,-3.921,-3.8937,-3.8747,-3.8707,-3.8707,-3.8707,-3.8707,-3.8707,-3.6774,-3.7056,-3.7161,-3.7209,-3.7209,-3.7209,-3.7078,-3.6882,-3.6882,-3.6764,-3.6583,-3.6803,-3.7039,-3.7305,-3.7542,0.0,0.0,0.0,-3.8201,-3.8401,-3.8401,-3.8499,-3.8673,-3.8707,-3.8707,-3.8707,-3.8707,-3.8707,-3.8707,-3.8707,-3.8707,-3.8707,0.0,0.0,-3.8947,-3.8933,-3.8933,-3.8933,-3.8773,-3.8707,-3.8707,-3.8707,-3.8707,-3.8707,-3.8707,-3.8707,-3.8707,-3.8707,-3.8758,-3.8919,-3.8933,-3.9031,0.0,0.0,0.0,0.0,0.0,0.0,0.0,0.0,0.0,0.0,0.0,-4.0229,0.0,0.0,0.0,0.0,-4.0561,-4.0642,-4.0666,-4.0718,0.0,0.0,0.0,0.0,0.0,0.0,0.0,-4.1191,-4.1191,-4.1191,-4.1191,-4.1128,-4.108,-4.106,-4.0979,-4.0873,-4.0831,0.0,-4.0667,-4.0582,-4.053,-4.0496,-4.0496,-4.0496,-4.0496,-4.0496,-4.0496,-4.0496,-4.0496,-4.0496,-4.0496,-4.0481,-4.0364,-4.0177,-3.987,-3.9541,-3.9171,-3.8792,-3.8707,-3.8707,-3.8707,-3.8707,-3.8707,-3.6897,-3.6904,-3.7152,-3.7182,-3.7058,-3.7058,-3.6803,-3.6333,-3.6333,-3.6054,-3.5644,-3.6118,-3.6371,-3.6437,-3.6943,0.0,-3.7209,-3.7209,-3.7433,-3.786,-3.786,-3.8099,-3.858,-3.8562,-3.858,-3.858,-3.8596,-3.8596,-3.8627,-3.8627,-3.8676,-3.8707,-3.8707,-3.8707,-3.8707,-3.8707,-3.8707,-3.8707,-3.8707,-3.8707,-3.8707,-3.8707,-3.8707,-3.8707,-3.8707,-3.8707,-3.8707,-3.8707,-3.8707,-3.8707,-3.8707,-3.8707,-3.8707,0.0,0.0,0.0,0.0,0.0,0.0,0.0,0.0,0.0,0.0,0.0,0.0,0.0,0.0,0.0,-4.0481,0.0,-4.0496,-4.0623,0.0,0.0,0.0,-4.085,-4.0976,-4.0986,-4.1028,-4.1151,0.0,0.0,-4.1191,0.0,-4.1191,-4.1191,-4.1083,-4.1019,-4.0996,-4.0832,-4.0732,-4.0701,-4.0603,-4.0527,-4.0534,-4.0512,-4.0496,-4.0496,-4.0496,-4.0496,-4.0496,-4.0496,-4.0496,-4.0496,-4.0496,-4.0397,-4.0148,-3.9848,-3.9463,-3.8902,-3.8735,-3.8707,-3.8707,-3.8707,-3.8707,-3.7635,-3.7642,-3.77,-3.7062,-3.6006,-3.5972,-3.5902,-3.5805,-3.5805,-3.5717,-3.5622,-3.5756,-3.6028,-3.6437,-3.6943,-3.7209,-3.7209,-3.7209,-3.7248,-3.7377,-3.736,-3.7451,-3.756,-3.756,-3.756,-3.756,-3.756,-3.7738,-3.8082,-3.8099,-3.83,-3.8673,-3.8707,-3.8707,-3.8707,-3.8707,-3.8707,-3.8707,-3.8707,-3.8707,-3.8707,-3.8707,-3.8707,-3.8707,-3.8707,-3.8707,-3.8707,-3.8707,-3.8707,-3.8707,-3.8707,-3.8707,-3.8707,-3.8707,0.0,0.0,0.0,0.0,0.0,0.0,0.0,0.0,0.0,-3.9913,-3.9821,0.0,-4.0328,0.0,-4.0381,-4.0496,-4.0496,-4.0604,0.0,0.0,-4.0687,-4.0796,-4.0772,-4.0828,-4.0905,-4.1026,-4.1051,-4.11,-4.1191,-4.1191,-4.1191,-4.1191,-4.1172,-4.1126,-4.1002,-4.0974,-4.0887,-4.0788,-4.0704,-4.0662,-4.0649,-4.0566,-4.0496,-4.0496,-4.0496,-4.0496,-4.0496,-4.0496,-4.0496,-4.0496,-4.0496,-4.0389,-4.0158,-4.0022,-3.9829,-3.9451,-3.9008,-3.8707,-3.8707,-3.8707,-3.8707,-3.8396,-3.8362,-3.8041,-3.7391,-3.658,-3.6282,-3.5943,-3.5616,-3.5616,-3.5616,-3.5616,-3.5616,-3.5761,-3.6054,-3.6336,-3.6481,-3.6464,-3.6481,-3.6623,-3.6843,-3.6843,-3.698,-3.7209,-3.7209,-3.7209,-3.7209,-3.7209,-3.7323,-3.7578,-3.7578,-3.7738,-3.8033,-3.8033,-3.8133,-3.835,-3.8578,-3.8707,-3.8707,-3.8707,-3.8707,-3.8707,-3.8707,-3.8707,-3.8707,-3.8707,-3.8707,-3.8707,-3.8707,-3.8707,-3.8707,-3.8707,-3.8707,-3.8707,-3.8707,-3.8707,0.0,0.0,0.0,0.0,0.0,0.0,0.0,0.0,0.0,0.0,0.0,-4.0167,-4.0258,-4.0425,-4.0496,-4.0496,-4.0554,-4.0588,-4.0492,-4.0604,-4.0682,-4.0697,-4.0731,-4.0807,-4.0905,-4.0959,-4.1025,-4.1104,-4.117,-4.1191,-4.1191,-4.1191,-4.1171,-4.1103,-4.103,-4.0964,-4.0905,-4.0816,-4.0731,-4.0709,-4.0623,-4.0574,-4.0512,-4.0496,-4.0496,-4.0496,-4.0496,-4.0496,-4.0496,-4.0496,-4.0457,-4.0294,-4.0167,-4.0022,-3.9819,-3.9439,-3.9073,-3.8927,-3.8884,-3.884,-3.9123,-3.9073,-3.8447,-3.8125,-3.799,-3.733,-3.6569,-3.5752,-3.5752,-3.5684,-3.5616,-3.5616,-3.5616,-3.5616,-3.5616,-3.5616,-3.5616,-3.5616,-3.5854,-3.6287,-3.6308,-3.6542,-3.6999,-3.6999,-3.6981,-3.7001,-3.7001,-3.702,-3.7097,-3.7097,-3.7133,-3.7209,-3.7209,-3.7396,-3.7807,-3.8285,-3.8549,-3.8611,-3.8658,-3.8707,-3.8707,-3.8707,-3.8707,-3.8707,-3.8707,-3.8676,-3.8593,-3.8593,-3.8593,-3.8611,-3.8593,-3.8627,-3.8692,-3.8707,-3.8707,0.0,-3.8707,0.0,0.0,0.0,0.0,0.0,0.0,0.0,0.0,-3.972,-3.9832,-4.0425,-4.05,-4.0496,-4.0496,-4.0496,-4.0496,-4.0496,-4.0496,-4.0545,-4.0668,-4.0667,-4.0707,-4.0764,-4.0893,-4.0955,-4.0966,-4.1082,-4.1172,-4.1172,-4.1191,-4.1191,-4.1191,-4.1123,-4.1028,-4.1025,-4.0914,-4.0805,-4.0731,-4.0715,-4.0649,-4.0552,-4.0512,-4.0496,-4.0496,-4.0496,-4.0496,-4.0496,-4.0496,-4.0489,-4.0496,-4.0313,-4.0167,-4.0129,-3.9903,-3.9587,-3.9186,-3.9072,-3.8994,-3.9893,-3.9893,-3.9757,-3.9334,-3.8768,-3.8633,-3.7804,-3.6592,-3.6575,-3.6197,-3.5616,-3.5616,-3.5616,-3.5616,-3.5616,-3.5616,-3.5616,-3.5616,-3.565,-3.5761,-3.5761,-3.5788,-3.5898,-3.5881,-3.5898,-3.5881,-3.5881,-3.6139,-3.656,-3.656,-3.6764,-3.719,-3.7209,-3.7229,-3.7323,0.0,0.0,0.0,-3.8481,-3.8707,-3.8707,-3.8707,-3.8707,-3.8707,-3.8707,0.0,-3.8082,-3.8047,-3.8048,-3.8065,-3.8048,0.0,0.0,0.0,0.0,0.0,0.0,0.0,0.0,0.0,0.0,0.0,-3.8615,-3.8762,-3.896,-3.9358,-3.9775,-4.0148,-4.0372,-4.0496,-4.0496,-4.0496,-4.0496,-4.0496,-4.0496,-4.0512,-4.0549,-4.0549,-4.0582,-4.0726,-4.0726,-4.0786,-4.082,-4.0957,-4.1028,-4.103,-4.1147,-4.1191,-4.1191,-4.1171,-4.117,-4.115,-4.1049,-4.0917,-4.0785,-4.0747,-4.0701,-4.0662,-4.0566,-4.0512,-4.0504,-4.0496,-4.0496,-4.0496,-4.0496,-4.0496,-4.0496,-4.0457,-4.0397,-4.0414,-4.0353,-4.0063,-3.9289,-3.9093,-3.904,-4.0113,0.0,-4.0113,-3.9893,0.0,-3.9554,-3.8928,-3.7845,-3.7117,-3.6332,-3.5616,-3.5616,-3.5616,-3.5616,-3.5616,-3.5616,-3.5616,-3.5616,-3.5616,-3.5616,-3.5616,-3.5616,-3.5616,-3.5616,-3.5616,-3.5616,-3.5616,-3.5739,-3.6006,-3.6006,-3.6161,-3.6399,-3.6399,-3.6542,-3.6803,-3.7076,-3.7304,-3.756,-3.7826,-3.7965,-3.7965,-3.7965,-3.7965,-3.7965,0.0,0.0,0.0,0.0,0.0,0.0,0.0,0.0,0.0,0.0,0.0,-3.8658,-3.8707,-3.8707,-3.8707,-3.8707,-3.8707,-3.8707,-3.8707,-3.8747,-3.8898,-3.9339,-3.9687,-3.9848,-3.9974,-4.0129,-4.0276,-4.0294,-4.0356,-4.0481,-4.0496,-4.0496,-4.0496,-4.0496,-4.0515,-4.0589,-4.0649,-4.0732,-4.0742,-4.0832,-4.0905,-4.0911,-4.1021,-4.1103,-4.1125,-4.1151,-4.1191,-4.1191,-4.115,-4.1052,-4.0922,-4.0873,-4.0807,-4.0752,-4.0666,-4.061,-4.0596,-4.0557,-4.0496,-4.0496,-4.0496,-4.0496,-4.0496,-4.0496,-4.0496,-4.0496,-4.0496,-4.0328,-3.9712,-3.9481,-3.9257,-4.0113,-4.0113,-4.0113,-4.0113,-4.0113,-4.0113,-3.969,-3.8911,0.0,0.0,0.0,-3.5616,-3.5616,-3.5616,-3.5616,-3.5616,-3.5616,-3.5616,-3.5616,-3.5616,-3.5616,-3.5616,-3.5616,-3.5616,-3.5616,-3.5616,-3.5616,-3.5616,-3.5616,-3.5616,-3.5616,-3.5616,-3.5616,-3.581,-3.6249,-3.6704,-3.6904,-3.6923,-3.7114,-3.7209,-3.7209,-3.7209,-3.7209,-3.7209,-3.7209,-3.7154,-3.7076,-3.7039,-3.7076,-3.7058,-3.7058,-3.7285,-3.7737,-3.7772,-3.8015,-3.8496,-3.8562,-3.8611,-3.8692,-3.8707,-3.8707,-3.8707,-3.8707,-3.8788,-3.9008,-3.9333,-3.9498,-3.9498,-3.9576,-3.9731,-3.9973,-4.0012,-4.012,-4.0397,-4.0441,-4.0449,-4.0508,-4.0496,-4.0496,-4.0512,-4.0589,-4.0661,-4.0661,-4.0727,-4.0788,-4.08,-4.0896,-4.0988,-4.1,-4.1126,-4.1191,-4.1191,-4.1191,-4.115,-4.1056,-4.0996,-4.0957,-4.0854,-4.0771,-4.0713,-4.0686,-4.061,-4.0523,-4.0496,-4.0496,-4.0496,-4.0496,-4.0496,-4.0496,-4.0496,-4.0489,-4.0441,-4.0204,-3.9903,-3.9587,-4.007,-4.0113,-4.0113,-4.0113,-4.0113,-4.0113,-3.969,-3.8886,-3.7455,-3.6349,-3.5616,-3.5616,-3.5616,-3.5616,-3.5616,-3.5616,-3.5616,-3.5616,-3.5616,0.0,-3.5616,-3.5616,-3.5616,-3.5616,-3.5616,-3.5616,-3.5616,-3.5616,-3.5616,-3.5616,-3.5616,-3.5616,-3.5616,-3.5644,-3.5717,-3.5805,-3.5832,-3.5854,-3.6744,-3.7209,-3.7209,-3.7209,-3.7209,-3.7209,-3.719,-3.698,-3.6522,-3.6519,-3.6519,-3.6519,-3.6501,-3.6744,-3.7248,-3.7285,-3.7506,-3.7963,-3.8013,-3.8216,-3.8658,-3.8707,-3.8707,-3.8707,-3.8707,-3.8719,-3.8762,-3.8999,-3.916,-3.9192,-3.942,-3.9622,-3.9668,-3.9687,-3.9808,-4.0091,-4.0158,-4.0232,-4.0438,-4.0481,-4.0489,-4.0496,-4.0512,-4.0542,-4.0552,-4.0642,-4.0713,-4.0729,-4.077,-4.0887,-4.0968,-4.1106,-4.1191,-4.1191,-4.1191,-4.1191,-4.115,-4.1058,-4.1017,-4.0986,-4.0883,-4.0766,-4.0735,-4.0686,-4.063,-4.0534,-4.0504,-4.0496,-4.0496,-4.0496,-4.0496,-4.0496,-4.0496,-4.0473,-4.0406,-4.0213,-3.9922,-3.9076,-3.9437,-3.9463,-3.9688,-4.0113,-4.0113,-3.9673,-3.892,-3.7855,-3.6958,-3.6248,-3.5785,-3.5616,-3.5616,-3.5616,-3.5616,-3.5616,-3.5616,-3.5616,-3.5616,-3.5616,-3.5616,-3.5616,-3.5616,-3.5616,-3.5616,-3.5616,-3.5616,-3.5616,-3.5616,-3.5616,-3.5616,-3.5616,-3.5616,-3.5616,-3.5616,-3.5616,-3.5622,-3.6097,-3.6316,-3.6336,-3.6336,-3.6316,-3.6354,-3.6316,-3.6228,-3.5985,-3.5946,-3.5963,-3.5946,-3.5985,-3.6207,-3.6724,-3.6764,-3.6981,-3.747,-3.7524,-3.7738,-3.8251,-3.8546,-3.8707,-3.8707,-3.8707,-3.8707,-3.8707,-3.88,-3.8884,-3.8898,-3.9036,-3.9176,-3.932,-3.9327,-3.945,-3.9797,-3.9838,-3.9953,-4.0223,-4.0295,-4.0347,-4.0465,-4.0496,-4.0496,-4.0496,-4.0552,-4.0582,-4.0596,-4.067,-4.0785,-4.087,-4.0998,-4.1107,-4.1172,-4.1191,-4.1191,-4.1191,-4.117,-4.1105,-4.1105,-4.0994,-4.0902,-4.0863,-4.0791,-4.0666,-4.0616,-4.0552,-4.0504,-4.0496,-4.0496,-4.0496,-4.0496,-4.0496,-4.0496,-4.0473,-4.0389,-4.0167,-3.8121,-3.8635,-3.8663,-3.9086,-3.9808,-3.9833,-3.9607,-3.9149,-3.8091,-3.7319,-3.672,-3.596,-3.5616,-3.5616,-3.5616,-3.5616,-3.5616,-3.5616,-3.5616,-3.5616,-3.5616,-3.5616,-3.5616,-3.5616,-3.5616,-3.5616,-3.5616,-3.5616,-3.5616,-3.5616,-3.5616,-3.5616,-3.5616,-3.5616,-3.5616,-3.5616,-3.5616,-3.5616,-3.5616,-3.5616,-3.5616,-3.5616,-3.5616,-3.5616,-3.5622,-3.5616,-3.5616,-3.5616,-3.5616,-3.5616,-3.5616,-3.5788,-3.6182,-3.6224,-3.6457,-3.6943,-3.7001,-3.7229,-3.7702,-3.8216,-3.853,-3.853,-3.8627,-3.8707,-3.8707,-3.8707,-3.8707,-3.8707,-3.8719,-3.8803,-3.8975,-3.9013,-3.9144,-3.9426,-3.9486,-3.9668,-4.0022,-4.0101,-4.0195,-4.043,-4.0496,-4.0496,-4.0496,-4.0496,-4.0504,-4.0527,-4.0582,-4.0684,-4.0761,-4.0854,-4.0976,-4.108,-4.115,-4.1191,-4.1191,-4.1191,-4.1191,-4.1191,-4.1126,-4.1046,-4.0983,-4.0844,-4.0731,-4.0696,-4.0616,-4.0537,-4.0512,-4.0496,-4.0496,-4.0496,-4.0496,-4.0496,-4.0496,-4.0489,-4.0336,-3.7806,-3.7892,-3.7892,-3.8346,-3.8962,-3.9016,-3.9361,-3.9598,-3.7752,-3.681,-3.6688,-3.5944,-3.5554,-3.5616,-3.5577,-3.5554,-3.5577,-3.56,-3.56,-3.5616,-3.5616,-3.5616,-3.5616,-3.5616,-3.5616,-3.5616,-3.5616,-3.5616,-3.5616,-3.5616,-3.5616,-3.5616,-3.5616,-3.5616,-3.5616,-3.5616,-3.5616,-3.5616,-3.5616,-3.5616,-3.5616,-3.5616,-3.5616,-3.5616,-3.5616,-3.5616,-3.5616,-3.5616,-3.5616,-3.5616,-3.5616,-3.5622,-3.5672,-3.5689,-3.592,-3.6437,-3.646,-3.6704,-3.7228,-3.772,-3.798,-3.7997,-3.8433,-3.8676,-3.8658,-3.8692,-3.8707,-3.8707,-3.8707,-3.8719,-3.8735,-3.8747,-3.8869,-3.9117,-3.9152,-3.9389,-3.9893,-4.0101,-4.0195,-4.0454,-4.0473,-4.0496,-4.0489,-4.0496,-4.0496,-4.0496,-4.0527,-4.0595,-4.0672,-4.0721,-4.0786,-4.0857,-4.1025,-4.1172,-4.1191,-4.1191,-4.1191,-4.1191,-4.1191,-4.1133,-4.1028,-4.0986,-4.0908,-4.0777,-4.0684,-4.0642,-4.0552,-4.0496,-4.0504,-4.0496,-4.0496,-4.0496,-4.0496,-4.0496,-4.0364,-3.6707,-3.7084,-3.71,-3.7528,-3.8189,-3.8262,-3.843,-3.8548,-3.6874,-3.6108,-3.5983,-3.4938,-3.4415,-3.4399,-3.4423,-3.4633,-3.4988,-3.4988,-3.523,-3.5577,-3.5616,-3.5616,-3.5616,-3.5616,-3.5616,-3.5616,-3.5616,-3.5616,-3.5616,-3.56,-3.5616,-3.5616,-3.5616,-3.5616,-3.5616,-3.5616,-3.5616,-3.5616,-3.5616,-3.5616,-3.5616,-3.5616,-3.5616,-3.5616,-3.5616,-3.5616,-3.5616,-3.5616,-3.5616,-3.5616,-3.5616,-3.5616,-3.5616,-3.5616,-3.5694,-3.592,-3.6245,-3.6498,-3.6721,-3.7192,-3.7488,-3.7488,-3.7947,-3.8234,-3.8251,-3.8515,-3.8707,-3.8707,-3.8707,-3.8707,-3.8707,-3.8707,-3.8747,-3.8844,-3.8869,-3.9045,-3.9426,-3.9517,-3.969,-4.0138,-4.0278,-4.0339,-4.0465,-4.0496,-4.0496,-4.0496,-4.0496,-4.0542,-4.0588,-4.0655,-4.0721,-4.0757,-4.0873,-4.099,-4.1076,-4.117,-4.1191,-4.1191,-4.1191,-4.1172,-4.1133,-4.1035,-4.0974,-4.087,-4.0812,-4.0742,-4.0636,-4.0616,-4.0603,-4.0545,-4.0496,-4.0496,-4.0496,-4.0496,-4.0441,-3.5814,-3.6275,-3.6538,-3.695,-3.7456,-3.7485,-3.7491,-3.7345,-3.5983,-3.5296,-3.5022,-3.3863,-3.3209,-3.3087,-3.3401,-3.3887,-3.4284,-3.4333,-3.4568,-3.5028,-3.5045,-3.5138,-3.5316,-3.5322,-3.5339,-3.5339,-3.5316,-3.5316,-3.5339,-3.5339,-3.5424,-3.556,-3.5616,-3.5616,-3.5616,-3.5616,-3.5616,-3.5616,-3.5616,-3.5616,-3.5616,-3.5616,-3.5616,-3.5616,-3.5616,-3.5616,-3.5616,-3.5616,-3.5616,-3.5616,-3.5616,-3.5616,-3.5616,-3.5616,-3.5616,-3.5644,-3.5963,-3.6182,-3.6182,-3.6684,-3.6962,-3.702,-3.7433,-3.772,-3.7808,-3.8183,-3.8465,-3.8465,-3.8593,-3.8707,-3.8707,-3.8707,-3.8707,-3.8707,-3.8707,-3.8818,-3.909,-3.9093,-3.9327,-3.984,-3.9953,-4.0072,-4.0311,-4.0449,-4.0496,-4.0496,-4.0496,-4.0496,-4.0504,-4.0595,-4.063,-4.0642,-4.0726,-4.0813,-4.0922,-4.1052,-4.1147,-4.1172,-4.1172,-4.1191,-4.1191,-4.1113,-4.1023,-4.0952,-4.0902,-4.0828,-4.0727,-4.0704,-4.0668,-4.0545,-4.0496,-4.0496,-4.0496,-4.0496,-4.0496,-3.5537,-3.5651,-3.6291,-3.6584,-3.6661,-3.6646,-3.6707,-3.6657,-3.5211,-3.4286,-3.3765,-3.2994,-3.2272,-3.1781,-3.2944,-3.3598,-3.3649,-3.3633,-3.371,-3.3827,-3.3786,-3.4062,-3.4616,-3.4648,-3.464,-3.464,-3.4664,-3.464,-3.4624,-3.4664,-3.4965,-3.5532,-3.5492,-3.5554,-3.5492,-3.5492,-3.5577,-3.5447,-3.5554,-3.5577,-3.5577,-3.5577,-3.5616,-3.5616,-3.5616,-3.5616,-3.5616,-3.5616,-3.5616,-3.5616,-3.5616,-3.5616,-3.5616,-3.5616,-3.5616,-3.5622,-3.5644,-3.5667,-3.5717,-3.6161,-3.6454,-3.6481,-3.6923,-3.7228,-3.7248,-3.7649,-3.7929,-3.7946,-3.8348,-3.8643,-3.8643,-3.8658,-3.8707,-3.8707,-3.8707,-3.8815,-3.9063,-3.9044,-3.9257,-3.9541,-3.9645,-3.9819,-4.011,-4.0347,-4.0465,-4.0489,-4.0496,-4.0496,-4.0496,-4.0512,-4.0527,-4.0545,-4.0617,-4.0721,-4.0805,-4.0955,-4.1023,-4.1054,-4.1133,-4.1191,-4.1191,-4.1171,-4.1105,-4.1055,-4.1021,-4.0947,-4.0828,-4.0738,-4.0661,-4.0581,-4.0519,-4.0504,-4.0496,-4.0496,-4.0496,-3.5489,-3.5522,-3.5782,-3.5894,-3.5894,-3.5894,-3.5658,-3.5247,-3.4303,-3.353,-3.2878,-3.2182,-3.1739,-3.1524,-3.202,-3.2501,-3.2933,-3.296,-3.3198,-3.3556,-3.3608,-3.3735,-3.3937,-3.3962,-3.3946,-3.3962,-3.3978,-3.3962,-3.3962,-3.3962,-3.4078,-3.4276,-3.4342,-3.4325,-3.4399,-3.4776,-3.4776,-3.4447,-3.5138,-3.5424,-3.5035,-3.5362,-3.5616,-3.5616,-3.5616,-3.5616,-3.5616,-3.5616,-3.5616,-3.5616,-3.5616,-3.5616,-3.5616,-3.5616,-3.5616,-3.5616,-3.5616,-3.5616,-3.5622,-3.5783,-3.5898,-3.592,-3.6395,-3.6684,-3.6783,-3.7135,-3.7451,-3.756,-3.7894,-3.8167,-3.8267,-3.8481,-3.8707,-3.8707,-3.8707,-3.8716,-3.88,-3.884,-3.8966,-3.9231,-3.9438,-3.9724,-3.9963,-4.0177,-4.0313,-4.0465,-4.0496,-4.0496,-4.0496,-4.0496,-4.0496,-4.0504,-4.0549,-4.0582,-4.061,-4.0839,-4.0998,-4.1049,-4.1113,-4.1172,-4.1191,-4.1191,-4.1149,-4.1133,-4.1113,-4.1052,-4.0939,-4.0803,-4.0713,-4.0649,-4.0577,-4.0523,-4.0496,-4.0512,-4.0504,-3.5489,-3.5489,-3.5489,-3.5489,-3.5489,-3.5489,-3.4996,-3.4189,-3.3679,-3.3006,-3.2183,-3.169,-3.1496,-3.1496,-3.1496,-3.1739,-3.2216,-3.2244,-3.2504,-3.2891,-3.2933,-3.305,-3.3261,-3.3287,-3.3261,-3.3209,-3.3024,-3.3024,-3.3261,-3.3287,-3.3375,-3.3582,-3.3608,-3.3608,-3.3684,-3.4062,-3.4037,-3.3862,-3.4512,-3.4688,-3.4382,-3.4728,-3.4975,-3.4958,-3.4958,-3.5184,-3.5577,-3.5616,-3.5616,-3.5616,-3.5616,-3.5616,-3.5616,-3.5616,-3.5616,-3.5616,-3.5616,-3.5616,-3.5616,-3.5616,-3.56,-3.5622,-3.592,-3.6139,-3.6182,-3.6623,-3.6902,-3.7039,-3.7396,-3.7685,-3.7737,-3.8016,-3.8352,-3.8611,-3.8707,-3.8707,-3.8707,-3.8707,-3.8788,-3.8961,-3.9231,-3.9517,-3.9735,-3.9982,-4.0167,-4.0336,-4.0422,-4.0489,-4.0496,-4.0496,-4.0496,-4.0496,-4.0496,-4.0512,-4.0559,-4.0722,-4.0848,-4.0896,-4.1021,-4.1103,-4.117,-4.1171,-4.1191,-4.1191,-4.1172,-4.1133,-4.1039,-4.0889,-4.079,-4.0742,-4.066,-4.0603,-4.0566,-4.0515,-4.0519,-3.5489,-3.5489,-3.5489,-3.5489,-3.5489,-3.5489,-3.4756,-3.3694,-3.3529,-3.2811,-3.1705,-3.1511,-3.1496,-3.1496,-3.1496,-3.1524,-3.1582,-3.1611,-3.164,-3.171,-3.1682,-3.2007,-3.2559,-3.2571,-3.2586,-3.2559,-3.191,-3.1951,-3.2574,-3.2614,-3.2853,-3.3417,-3.3391,-3.3339,-3.3505,-3.3521,-3.3556,-3.3505,-3.3633,-3.37,-3.3608,-3.371,-3.3786,-3.3735,-3.3735,-3.4301,-3.5447,-3.5532,-3.5554,-3.56,-3.5616,-3.5616,-3.5616,-3.5616,-3.5616,-3.5616,-3.5616,-3.5616,-3.5616,-3.5616,-3.5616,-3.56,-3.5644,-3.5711,-3.5783,-3.6118,-3.6395,-3.646,-3.6845,-3.7192,-3.7173,-3.7303,-3.7703,-3.8465,-3.8593,-3.8611,-3.8673,-3.8707,-3.8707,-3.8762,-3.8966,-3.9085,-3.9257,-3.9611,-3.9963,-4.0091,-4.0304,-4.0449,-4.0449,-4.0465,-4.0496,-4.0496,-4.0496,-4.0496,-4.0545,-4.061,-4.0655,-4.0724,-4.0877,-4.1017,-4.1076,-4.1102,-4.117,-4.1191,-4.1191,-4.1152,-4.1113,-4.0972,-4.0899,-4.0844,-4.0747,-4.0666,-4.0623,-4.0582,-4.0542,-3.5489,-3.5489,-3.5489,-3.5489,-3.5489,-3.5489,-3.4741,-3.3559,-3.3499,-3.2751,-3.166,-3.1496,-3.1496,-3.1496,-3.1496,-3.1496,-3.1496,-3.1496,-3.1496,-3.1496,-3.1496,-3.1611,-3.1824,-3.1853,-3.1853,-3.1824,-3.1611,-3.1611,-3.1796,-3.1853,-3.1979,-3.2132,-3.2173,-3.2145,-3.2256,-3.2641,-3.2722,-3.2324,-3.3114,-3.3391,-3.3013,-3.3365,-3.3582,-3.3608,-3.3608,-3.3836,-3.4227,-3.4664,-3.5121,-3.5554,-3.5616,-3.5616,-3.56,-3.5616,-3.5616,-3.5616,-3.5616,-3.5616,-3.5616,-3.5616,-3.5616,-3.5616,-3.5616,-3.5616,-3.5616,-3.5761,-3.5854,-3.5898,-3.6333,-3.6643,-3.6704,-3.7001,-3.7415,-3.8065,-3.815,-3.835,-3.8624,-3.8707,-3.8707,-3.8689,-3.8777,-3.8898,-3.9077,-3.9396,-3.9541,-3.9754,-4.0042,-4.0213,-4.0241,-4.0381,-4.0489,-4.0496,-4.0496,-4.0496,-4.0523,-4.0545,-4.0561,-4.0636,-4.0767,-4.089,-4.0967,-4.1049,-4.1124,-4.1172,-4.1191,-4.1191,-4.1133,-4.1077,-4.0996,-4.0928,-4.0863,-4.0776,-4.0707,-4.0661,-4.061,-3.5489,-3.5489,-3.5489,-3.5489,-3.5489,-3.5489,-3.4741,-3.3619,-3.3499,-3.2751,-3.1675,-3.1496,-3.1496,-3.1496,-3.1496,-3.1496,-3.1496,-3.1496,-3.1496,-3.1496,-3.1496,-3.1496,-3.1496,-3.1496,-3.1496,-3.1496,-3.1496,-3.1496,-3.1496,-3.1496,-3.1496,-3.1496,-3.1496,-3.1524,-3.1524,-3.1938,-3.1938,-3.1682,-3.2367,-3.2625,-3.2367,-3.2598,-3.281,-3.2826,-3.2826,-3.2971,-3.3209,-3.3675,-3.4161,-3.4752,-3.5068,-3.523,-3.523,-3.5447,-3.5616,-3.5616,-3.5616,-3.5616,-3.5616,-3.5616,-3.5616,-3.5616,-3.5616,-3.5616,-3.5616,-3.5616,-3.5616,-3.5667,-3.5898,-3.6097,-3.6161,-3.6374,-3.6825,-3.7304,-3.772,-3.8099,-3.8562,-3.8707,-3.8707,-3.8707,-3.8704,-3.8788,-3.8894,-3.909,-3.9147,-3.9414,-3.969,-4.0002,-4.0081,-4.0251,-4.0347,-4.0449,-4.0496,-4.0496,-4.0496,-4.0496,-4.0496,-4.0575,-4.0678,-4.0772,-4.0848,-4.0972,-4.1074,-4.1152,-4.1191,-4.1191,-4.1152,-4.1133,-4.108,-4.1021,-4.0957,-4.0896,-4.0832,-4.0762,-4.0707,-3.5489,-3.5489,-3.5489,-3.5489,-3.5489,-3.5489,-3.4741,-3.3604,-3.3499,-3.2766,-3.1705,-3.1496,-3.1496,-3.1496,-3.1496,-3.1496,-3.1496,-3.1496,-3.1496,-3.1496,-3.1496,-3.1496,-3.1496,-3.1496,-3.1496,-3.1496,-3.1496,-3.1496,-3.1496,-3.1496,-3.1496,-3.1496,-3.1496,-3.1496,-3.1524,-3.1524,-3.1553,-3.1553,-3.1582,-3.1611,-3.1597,-3.1582,-3.1611,-3.1625,-3.1682,-3.1936,-3.2449,-3.2598,-3.2949,-3.3598,-3.426,-3.4528,-3.4648,-3.5168,-3.547,-3.547,-3.5554,-3.5616,-3.5616,-3.5616,-3.5616,-3.5616,-3.5616,-3.5616,-3.5616,-3.5616,-3.5616,-3.5616,-3.5667,-3.5667,-3.5689,-3.5717,-3.5968,-3.6419,-3.7268,-3.7981,-3.853,-3.8611,-3.8593,-3.8658,-3.8707,-3.8707,-3.875,-3.8937,-3.9022,-3.9125,-3.9352,-3.9645,-3.988,-4.0022,-4.0213,-4.033,-4.0414,-4.0496,-4.0496,-4.0496,-4.0496,-4.0523,-4.0597,-4.0666,-4.0752,-4.087,-4.1014,-4.1094,-4.1172,-4.1172,-4.1191,-4.1172,-4.1152,-4.1133,-4.1074,-4.1016,-4.0955,-4.0877,-4.0796,-3.5489,-3.5489,-3.5489,-3.5489,-3.5489,-3.5489,-3.4741,-3.3589,-3.3499,-3.2766,-3.1705,-3.1496,-3.1496,-3.1496,-3.1496,-3.1496,-3.1496,-3.1496,-3.1496,-3.1496,-3.1496,-3.1496,-3.1496,-3.1496,-3.1496,-3.1496,-3.1496,-3.1496,-3.1496,-3.1496,-3.1496,-3.1496,-3.1496,-3.1496,-3.1496,-3.1496,-3.1496,-3.1496,-3.1496,-3.1496,-3.1496,-3.1496,-3.1496,-3.1496,-3.1496,-3.1611,-3.1796,-3.1796,-3.2394,-3.3495,-3.3751,-3.3862,-3.3937,-3.4496,-3.4871,-3.4918,-3.5293,-3.5577,-3.5554,-3.5577,-3.5577,-3.5616,-3.56,-3.5616,-3.5616,-3.5616,-3.5616,-3.5616,-3.5616,-3.5616,-3.5616,-3.5616,-3.5871,-3.6354,-3.6943,-3.7542,-3.798,-3.8115,-3.8232,-3.8593,-3.8658,-3.8707,-3.8719,-3.8762,-3.8829,-3.8869,-3.904,-3.9276,-3.9517,-3.9816,-4.0003,-4.0195,-4.0302,-4.0422,-4.0496,-4.0496,-4.0496,-4.0496,-4.0545,-4.0577,-4.0676,-4.0794,-4.0919,-4.1016,-4.1055,-4.1074,-4.1152,-4.1191,-4.1191,-4.1191,-4.1172,-4.1094,-4.1035,-4.0952,-4.0877,-3.5489,-3.5489,-3.5489,-3.5489,-3.5489,-3.5489,-3.4726,-3.3679,-3.3484,-3.2766,-3.1705,-3.1496,-3.1496,-3.1496,-3.1496,-3.1496,-3.1496,-3.1496,-3.1496,-3.1496,-3.1496,-3.1496,-3.1496,-3.1496,-3.1496,-3.1496,-3.1496,-3.1496,-3.1496,-3.1496,-3.1496,-3.1496,-3.1496,-3.1496,-3.1496,-3.1496,-3.1496,-3.1496,-3.1496,-3.1496,-3.1496,-3.1496,-3.1496,-3.1496,-3.1496,-3.1496,-3.1496,-3.1496,-3.1908,-3.261,-3.2971,-3.3182,-3.3235,-3.3827,-3.4161,-3.4211,-3.4585,-3.4752,-3.4823,-3.5005,-3.5168,-3.5253,-3.5385,-3.56,-3.5616,-3.5616,-3.5616,-3.5616,-3.5616,-3.5616,-3.5616,-3.5616,-3.5761,-3.6028,-3.6336,-3.6825,-3.7506,-3.7772,-3.8032,-3.83,-3.8546,-3.8707,-3.8707,-3.8692,-3.8707,-3.8735,-3.8848,-3.9004,-3.9165,-3.9505,-3.9775,-3.9913,-4.012,-4.025,-4.0372,-4.0397,-4.0481,-4.0489,-4.0512,-4.0533,-4.061,-4.0712,-4.0807,-4.0912,-4.0952,-4.1002,-4.1078,-4.1152,-4.1191,-4.1191,-4.1191,-4.1172,-4.1113,-4.1055,-4.0996,-3.5489,-3.5489,-3.5489,-3.5489,-3.5489,-3.5474,-3.4816,-3.3754,-3.3529,-3.2826,-3.1839,-3.1555,-3.1496,-3.1496,-3.1496,-3.1496,-3.1496,-3.1496,-3.1496,-3.1496,-3.1496,-3.1496,-3.1496,-3.1496,-3.1496,-3.1496,-3.1496,-3.1496,-3.1496,-3.1496,-3.1496,-3.1496,-3.1496,-3.1496,-3.1496,-3.1496,-3.1496,-3.1496,-3.1496,-3.1496,-3.1496,-3.1496,-3.1496,-3.1496,-3.1496,-3.1496,-3.1496,-3.1496,-3.1582,-3.1524,-3.2148,-3.2437,-3.2544,-3.3103,-3.3443,-3.3556,-3.37,-3.3786,-3.3735,-3.426,-3.452,-3.4576,-3.5098,-3.5492,-3.543,-3.5492,-3.5616,-3.5616,-3.5616,-3.5616,-3.5616,-3.5616,-3.5622,-3.5717,-3.5689,-3.6118,-3.6845,-3.7452,-3.7737,-3.7842,-3.8283,-3.8562,-3.8627,-3.8676,-3.8707,-3.8707,-3.8762,-3.8829,-3.8957,-3.9192,-3.942,-3.9534,-3.9786,-4.0061,-4.0186,-4.0304,-4.0397,-4.0481,-4.0489,-4.0523,-4.0575,-4.066,-4.0721,-4.0776,-4.0836,-4.0893,-4.0959,-4.1035,-4.1133,-4.1172,-4.1172,-4.1191,-4.1191,-4.1152,-4.1094,-3.5489,-3.5489,-3.5489,-3.5489,-3.5489,-3.5474,-3.5026,-3.4218,-3.3694,-3.3021,-3.2273,-3.1735,-3.1511,-3.1496,-3.1496,-3.1496,-3.1496,-3.1496,-3.1496,-3.1496,-3.1496,-3.1496,-3.1496,-3.1496,-3.1496,-3.1496,-3.1496,-3.1496,-3.1496,-3.1496,-3.1496,-3.1496,-3.1496,-3.1496,-3.1496,-3.1496,-3.1496,-3.1496,-3.1496,-3.1496,-3.1496,-3.1496,-3.1496,-3.1496,-3.1496,-3.1496,-3.1496,-3.1496,-3.1496,-3.1553,-3.1668,-3.1809,-3.1951,-3.2449,-3.2761,-3.2879,-3.3287,-3.3531,-3.3608,-3.3659,-3.3795,-3.3887,-3.4423,-3.4823,-3.4871,-3.5316,-3.5515,-3.56,-3.5616,-3.5616,-3.5616,-3.5616,-3.5616,-3.5616,-3.5639,-3.5711,-3.5989,-3.646,-3.6943,-3.7341,-3.7773,-3.81,-3.8117,-3.8499,-3.8596,-3.8658,-3.8704,-3.8735,-3.8826,-3.8971,-3.9077,-3.9218,-3.9462,-3.9742,-3.9872,-4.0023,-4.0167,-4.0302,-4.0372,-4.0414,-4.0481,-4.0575,-4.0636,-4.0678,-4.0729,-4.08,-4.0863,-4.0937,-4.1035,-4.1094,-4.1126,-4.1152,-4.1152,-4.1172,-4.1191,-3.5489,-3.5489,-3.5489,-3.5489,-3.5489,-3.5489,-3.5115,-3.4442,-3.3784,-3.3125,-3.2482,-3.1795,-3.1511,-3.1496,-3.1496,-3.1496,-3.1496,-3.1496,-3.1496,-3.1496,-3.1496,-3.1496,-3.1496,-3.1496,-3.1496,-3.1496,-3.1496,-3.1496,-3.1496,-3.1496,-3.1496,-3.1496,-3.1496,-3.1496,-3.1496,-3.1496,-3.1496,-3.1496,-3.1496,-3.1496,-3.1496,-3.1496,-3.1496,-3.1496,-3.1496,-3.1496,-3.1496,-3.1496,-3.1496,-3.1496,-3.1496,-3.1496,-3.1524,-3.1838,-3.2064,-3.216,-3.2367,-3.2625,-3.2625,-3.2933,-3.3145,-3.3145,-3.3735,-3.4037,-3.4284,-3.4752,-3.5075,-3.5207,-3.5385,-3.5616,-3.5616,-3.5616,-3.5616,-3.5616,-3.5616,-3.5616,-3.5689,-3.6092,-3.6478,-3.6862,-3.7267,-3.7649,-3.7947,-3.8168,-3.8465,-3.8546,-3.8658,-3.8689,-3.8704,-3.8829,-3.884,-3.8975,-3.9192,-3.9401,-3.9545,-3.9701,-3.9861,-4.0013,-4.0129,-4.0204,-4.0285,-4.0394,-4.0542,-4.0582,-4.0649,-4.0701,-4.0786,-4.0859,-4.0911,-4.0944,-4.0988,-4.1055,-4.1113,-4.1133,-4.1172,-3.5279,-3.5294,-3.5439,-3.5489,-3.5489,-3.5489,-3.519,-3.4607,-3.3675,-3.291,-3.2332,-3.1575,-3.0866,-3.1058,-3.1219,-3.1336,-3.1496,-3.1467,-3.1482,-3.119,-3.1438,-3.1351,-3.1322,-3.138,-3.1496,-3.1496,-3.1496,-3.1496,-3.1496,-3.1496,-3.1496,-3.1496,-3.1496,-3.1496,-3.1496,-3.1496,-3.1496,-3.1496,-3.1496,-3.1496,-3.1496,-3.1496,-3.1496,-3.1496,-3.1496,-3.1496,-3.1496,-3.1496,-3.1496,-3.1496,-3.1496,-3.1496,-3.1496,-3.1496,-3.1496,-3.1524,-3.1668,-3.1739,-3.1853,-3.2132,-3.2437,-3.2449,-3.3066,-3.3417,-3.3598,-3.4012,-3.4358,-3.4664,-3.4911,-3.5362,-3.5447,-3.5554,-3.5577,-3.5616,-3.5616,-3.5616,-3.5689,-3.6028,-3.6203,-3.635,-3.6724,-3.7135,-3.7433,-3.7685,-3.8083,-3.8415,-3.853,-3.8627,-3.8643,-3.8689,-3.8747,-3.8777,-3.8966,-3.9152,-3.9302,-3.9534,-3.9679,-3.9742,-3.988,-3.9992,-4.0091,-4.0232,-4.037,-4.05,-4.0575,-4.063,-4.0678,-4.0738,-4.0799,-4.0805,-4.0857,-4.093,-4.1023,-4.1101,-4.1133,-3.4245,-3.4327,-3.5166,-3.5489,-3.5489,-3.5489,-3.5382,-3.5001,-3.3226,-3.2367,-3.1968,-3.0307,-2.9535,-2.9659,-3.0238,-3.0807,-3.1175,-3.119,-3.0999,-3.0718,-3.097,-3.1073,-3.0658,-3.1102,-3.1336,-3.1496,-3.1496,-3.1496,-3.1496,-3.1496,-3.1496,-3.1496,-3.1496,-3.1496,-3.1496,-3.1496,-3.1496,-3.1496,-3.1496,-3.1496,-3.1496,-3.1496,-3.1496,-3.1496,-3.1496,-3.1496,-3.1496,-3.1496,-3.1496,-3.1496,-3.1496,-3.1496,-3.1496,-3.1496,-3.1496,-3.1496,-3.1496,-3.1496,-3.1553,-3.1611,-3.1682,-3.1853,-3.2339,-3.2707,-3.2922,-3.3349,-3.3735,-3.4012,-3.4374,-3.4759,-3.4783,-3.5184,-3.5515,-3.5577,-3.56,-3.56,-3.5644,-3.5717,-3.581,-3.5915,-3.6266,-3.6641,-3.6941,-3.721,-3.7542,-3.7911,-3.815,-3.835,-3.8496,-3.8611,-3.8704,-3.8719,-3.8732,-3.8905,-3.9099,-3.9352,-3.9552,-3.9505,-3.963,-3.9765,-3.9891,-4.0052,-4.0194,-4.0353,-4.0469,-4.0545,-4.059,-4.0648,-4.0684,-4.071,-4.0761,-4.0824,-4.0896,-4.0944,-4.1016,-3.329,-3.3325,-3.3822,-3.4293,-3.4691,-3.4725,-3.4567,-3.4141,-3.2814,-3.1761,-3.0845,-2.964,-2.8989,-2.9129,-2.9393,-2.9889,-3.0133,-3.0208,-2.9981,-2.9766,-2.9981,-3.0042,-2.9766,-3.0494,-3.0464,-3.0584,-3.0955,-3.1438,-3.1496,-3.1496,-3.1496,-3.1496,-3.1496,-3.1496,-3.1496,-3.1496,-3.1496,-3.1496,-3.1496,-3.1496,-3.1496,-3.1496,-3.1496,-3.1496,-3.1496,-3.1496,-3.1496,-3.1496,-3.1496,-3.1496,-3.1496,-3.1496,-3.1496,-3.1496,-3.1496,-3.1496,-3.1496,-3.1496,-3.1496,-3.1496,-3.1524,-3.1524,-3.1866,-3.2007,-3.2188,-3.261,-3.3156,-3.3556,-3.3761,-3.4087,-3.4112,-3.4704,-3.5028,-3.5144,-3.5362,-3.5554,-3.56,-3.56,-3.5616,-3.5616,-3.5871,-3.6182,-3.6495,-3.6764,-3.7022,-3.736,-3.7702,-3.7998,-3.8251,-3.8465,-3.8578,-3.8707,-3.8689,-3.8758,-3.8905,-3.9082,-3.9275,-3.9262,-3.9327,-3.9469,-3.9599,-3.9724,-3.9973,-4.0204,-4.0321,-4.037,-4.0519,-4.0575,-4.0589,-4.0616,-4.069,-4.0742,-4.0776,-4.082,-4.088,-3.2307,-3.2357,-3.2522,-3.3031,-3.3671,-3.3691,-3.343,-3.2835,-3.199,-3.0876,-2.9728,-2.8855,-2.8395,-2.8524,-2.8652,-2.8844,-2.8957,-2.9052,-2.9002,-2.8844,-2.9066,-2.9002,-2.9002,-2.9442,-2.9752,-2.958,-3.0133,-3.1087,-3.1204,-3.1394,-3.1496,-3.1496,-3.1496,-3.1496,-3.1496,-3.1496,-3.1496,-3.1496,-3.1496,-3.1496,-3.1496,-3.1496,-3.1496,-3.1496,-3.1496,-3.1496,-3.1496,-3.1496,-3.1496,-3.1496,-3.1496,-3.1496,-3.1496,-3.1496,-3.1496,-3.1496,-3.1496,-3.1496,-3.1496,-3.1496,-3.1496,-3.1496,-3.1496,-3.1524,-3.164,-3.2076,-3.2586,-3.3077,-3.3365,-3.3391,-3.3495,-3.4012,-3.4333,-3.4544,-3.4958,-3.5402,-3.5402,-3.5447,-3.56,-3.5616,-3.5616,-3.5761,-3.6114,-3.6203,-3.646,-3.6805,-3.7155,-3.7433,-3.7738,-3.82,-3.8399,-3.8627,-3.8707,-3.8707,-3.8747,-3.8777,-3.8902,-3.8946,-3.9008,-3.9122,-3.9244,-3.9352,-3.9645,-3.9932,-4.0053,-4.0138,-4.03,-4.0489,-4.0542,-4.0574,-4.0616,-4.0642,-4.066,-4.0721,-4.0805,-3.1352,-3.1426,-3.2249,-3.2678,-3.2735,-3.2757,-3.2458,-3.1785,-3.0507,-2.9487,-2.8678,-2.7501,-2.6939,-2.7061,-2.7637,-2.8266,-2.8671,-2.8734,-2.8395,-2.8032,-2.8427,-2.8376,-2.8071,-2.8734,-2.8925,-2.8812,-2.9192,-2.9721,-3.0269,-3.0925,-3.1351,-3.1292,-3.1219,-3.1409,-3.1161,-3.1248,-3.1496,-3.1467,-3.1467,-3.1438,-3.1438,-3.1409,-3.1438,-3.1496,-3.1496,-3.1496,-3.1496,-3.1496,-3.1496,-3.1496,-3.1496,-3.1496,-3.1496,-3.1496,-3.1496,-3.1496,-3.1496,-3.1496,-3.1496,-3.1496,-3.1496,-3.1496,-3.1496,-3.1496,-3.1553,-3.1582,-3.1824,-3.171,-3.2284,-3.2695,-3.2799,-3.3323,-3.3592,-3.3937,-3.4301,-3.4633,-3.4752,-3.4911,-3.5115,-3.5385,-3.5339,-3.5492,-3.5761,-3.5783,-3.5893,-3.6249,-3.6603,-3.6904,-3.7268,-3.779,-3.8183,-3.8382,-3.8658,-3.8707,-3.8707,-3.8707,-3.8707,-3.8707,-3.8777,-3.8855,-3.8975,-3.9117,-3.9289,-3.9534,-3.9694,-3.9915,-4.0157,-4.0328,-4.043,-4.0527,-4.0559,-4.0545,-4.0515,-4.0597,-4.0707,-3.0419,-3.0444,-3.0846,-3.1328,-3.1738,-3.1492,-3.1042,-3.0379,-2.9478,-2.8441,-2.7507,-2.6853,-2.6487,-2.6589,-2.6905,-2.7196,-2.755,-2.767,-2.7417,-2.7129,-2.7417,-2.7417,-2.7297,-2.7802,-2.8117,-2.7953,-2.8441,-2.8798,-2.9254,-2.9628,-3.0072,-3.0147,-3.0117,-3.0011,-3.0329,-3.0628,-3.0777,-3.0792,-3.0792,-3.0792,-3.0822,-3.0837,-3.1029,-3.1438,-3.1438,-3.1438,-3.1467,-3.1496,-3.1496,-3.1496,-3.1496,-3.1496,-3.1496,-3.1496,-3.1496,-3.1496,-3.1496,-3.1496,-3.1496,-3.1496,-3.1496,-3.1496,-3.1496,-3.1496,-3.1496,-3.1496,-3.1496,-3.1524,-3.1768,-3.1979,-3.2148,-3.2625,-3.2879,-3.3224,-3.3633,-3.3862,-3.4062,-3.4227,-3.4423,-3.4752,-3.5075,-3.523,-3.5447,-3.5622,-3.5694,-3.592,-3.6249,-3.6542,-3.7001,-3.7524,-3.786,-3.8133,-3.8449,-3.8707,-3.8707,-3.8707,-3.8707,-3.8707,-3.8707,-3.8773,-3.8785,-3.8923,-3.9095,-3.9192,-3.9314,-3.9603,-3.9945,-4.0138,-4.025,-4.0372,-4.0496,-4.0481,-4.0473,-4.0512,-4.0616,-2.9704,-2.9591,-2.9729,-3.0126,-3.0572,-3.0205,-2.9617,-2.8948,-2.8543,-2.7636,-2.6772,-2.6487,-2.6487,-2.6487,-2.6521,-2.6624,-2.6555,-2.6487,-2.6487,-2.6487,-2.6487,-2.6555,-2.6748,-2.7142,-2.7129,-2.6487,-2.7604,-2.792,-2.7789,-2.8084,-2.8588,-2.8971,-2.9254,-2.916,-2.9223,-2.9597,-2.995,-2.995,-2.9981,-2.9981,-2.9981,-2.9981,-3.0299,-3.0644,-3.0896,-3.0955,-3.1161,-3.0866,-3.0807,-3.1496,-3.1204,-3.1175,-3.1409,-3.1496,-3.1496,-3.1496,-3.1496,-3.1496,-3.1496,-3.1496,-3.1496,-3.1496,-3.1496,-3.1496,-3.1496,-3.1496,-3.1496,-3.1496,-3.1524,-3.1553,-3.1596,-3.2048,-3.2216,-3.2516,-3.2917,-3.3156,-3.3391,-3.3608,-3.3887,-3.4227,-3.4568,-3.4918,-3.5144,-3.547,-3.5605,-3.565,-3.5898,-3.6224,-3.6664,-3.7173,-3.7415,-3.7685,-3.81,-3.8366,-3.8415,-3.8481,-3.8562,-3.8658,-3.8643,-3.8704,-3.8732,-3.8762,-3.8859,-3.8937,-3.9027,-3.9205,-3.951,-3.9778,-4.0062,-4.0204,-4.033,-4.0414,-4.0457,-4.0481,-4.0519,-2.9478,-2.9001,-2.9553,-2.9491,-2.9101,-2.9013,-2.8445,-2.7655,-2.747,-2.7091,-2.6571,-2.6487,-2.6487,-2.6487,-2.6487,-2.6487,-2.6487,-2.6487,-2.6487,-2.6487,-2.6487,-2.6487,-2.6589,-2.6624,-2.6645,-2.6521,-2.6994,-2.6905,-2.6692,-2.6939,-2.7802,-2.8748,-2.8556,-2.8844,-2.8907,-2.8876,-2.9052,-2.9097,-2.9097,-2.9097,-2.9097,-2.9097,-2.9192,-2.9254,-2.9317,-2.9549,-3.0269,-2.9797,-2.9919,-3.1087,-3.0673,-3.0599,-3.0925,-3.1058,-3.1058,-3.1058,-3.1058,-3.1058,-3.1087,-3.1351,-3.1496,-3.1496,-3.1496,-3.1496,-3.1496,-3.1496,-3.1496,-3.1496,-3.1496,-3.1496,-3.1496,-3.1582,-3.1739,-3.1951,-3.2284,-3.2504,-3.2772,-3.3103,-3.3375,-3.3726,-3.4003,-3.4235,-3.4736,-3.5028,-3.5492,-3.5583,-3.5667,-3.5963,-3.6224,-3.6643,-3.6865,-3.7173,-3.7649,-3.7911,-3.798,-3.8082,-3.8234,-3.8401,-3.8465,-3.8596,-3.8707,-3.8738,-3.8735,-3.8747,-3.8859,-3.8961,-3.9063,-3.9339,-3.963,-3.9962,-4.0167,-4.0304,-4.0433,-4.0489,-4.0496,-2.8637,-2.8411,-2.8662,-2.8624,-2.8398,-2.8059,-2.767,-2.7304,-2.6964,-2.6713,-2.6487,-2.6487,-2.6487,-2.6487,-2.6487,-2.6487,-2.6487,-2.6487,-2.6487,-2.6487,-2.6487,-2.6487,-2.6487,-2.6487,-2.6487,-2.6487,-2.6487,-2.6487,-2.6521,-2.6487,-2.6714,-2.7364,-2.7617,-2.7451,-2.755,-2.8032,-2.8182,-2.8214,-2.8214,-2.8214,-2.8201,-2.8247,-2.8473,-2.8971,-2.8989,-2.9129,-2.9411,-2.9178,-2.9473,-2.9735,-2.9659,-2.9813,-3.0042,-3.0103,-3.0103,-3.0103,-3.0147,-3.0117,-3.0359,-3.0866,-3.1467,-3.1496,-3.1496,-3.1496,-3.1496,-3.1496,-3.1496,-3.1496,-3.1496,-3.1496,-3.1496,-3.1496,-3.1553,-3.1582,-3.171,-3.1938,-3.216,-3.2489,-3.2718,-3.2986,-3.3182,-3.3417,-3.3987,-3.4544,-3.5052,-3.5515,-3.5577,-3.5689,-3.5941,-3.6161,-3.6416,-3.6684,-3.7135,-3.7415,-3.7488,-3.7685,-3.793,-3.8066,-3.8216,-3.835,-3.8499,-3.8692,-3.8707,-3.8707,-3.8707,-3.8803,-3.8898,-3.897,-3.9234,-3.963,-3.9963,-4.0223,-4.0347,-4.0465,-4.0481,-2.8021,-2.7871,-2.7858,-2.7858,-2.7795,-2.7444,-2.718,-2.7014,-2.6675,-2.6487,-2.6487,-2.6487,-2.6487,-2.6487,-2.6487,-2.6487,-2.6487,-2.6487,-2.6487,-2.6487,-2.6487,-2.6487,-2.6487,-2.6487,-2.6487,-2.6487,-2.6487,-2.6487,-2.6487,-2.6487,-2.6589,-2.6624,-2.6487,-2.6589,-2.6714,-2.7007,-2.7364,-2.7364,-2.7364,-2.7364,-2.7351,-2.7384,-2.7484,-2.8084,-2.8084,-2.8344,-2.8363,-2.8298,-2.8524,-2.8812,-2.8876,-2.8812,-2.8907,-2.8989,-2.8989,-2.8989,-2.8957,-2.8957,-2.9366,-3.0163,-3.1219,-3.1438,-3.1496,-3.1496,-3.1496,-3.1496,-3.1496,-3.1496,-3.1496,-3.1496,-3.1496,-3.1496,-3.1496,-3.1553,-3.1553,-3.1682,-3.1682,-3.1879,-3.202,-3.2244,-3.2532,-3.2949,-3.3417,-3.4087,-3.4847,-3.5339,-3.556,-3.5622,-3.5694,-3.5898,-3.6032,-3.6291,-3.6603,-3.6805,-3.698,-3.7266,-3.7524,-3.7596,-3.7773,-3.7998,-3.8167,-3.8385,-3.8627,-3.8707,-3.8707,-3.8707,-3.875,-3.8851,-3.9059,-3.9358,-3.9668,-3.9983,-4.0195,-4.0294,-4.0406,-2.7758,-2.7354,-2.7306,-2.7329,-2.7293,-2.7316,-2.6979,-2.6625,-2.6524,-2.6487,-2.6487,-2.6487,-2.6487,-2.6487,-2.6487,-2.6487,-2.6487,-2.6487,-2.6487,-2.6487,-2.6487,-2.6487,-2.6487,-2.6487,-2.6487,-2.6487,-2.6487,-2.6487,-2.6487,-2.6487,-2.6487,-2.6487,-2.6487,-2.6487,-2.6487,-2.6521,-2.6555,-2.6568,-2.6624,-2.6658,-2.6679,-2.6714,-2.6837,-2.6905,-2.6973,-2.7297,-2.7504,-2.7284,-2.7571,-2.8247,-2.7986,-2.8051,-2.8505,-2.8588,-2.8652,-2.8684,-2.8748,-2.8844,-2.902,-2.9858,-3.0494,-3.1161,-3.1204,-3.1336,-3.1438,-3.1496,-3.1496,-3.1496,-3.1496,-3.1496,-3.1496,-3.1496,-3.1496,-3.1496,-3.1496,-3.1496,-3.1496,-3.1496,-3.171,-3.1824,-3.2216,-3.2668,-3.3093,-3.3633,-3.4544,-3.5121,-3.5453,-3.5583,-3.5583,-3.5689,-3.5827,-3.5941,-3.6186,-3.627,-3.6481,-3.6862,-3.7114,-3.7173,-3.7285,-3.7488,-3.7702,-3.7877,-3.8185,-3.853,-3.8578,-3.8481,-3.8578,-3.8723,-3.8913,-3.9122,-3.9396,-3.9679,-3.9932,-4.011,-4.0185,-2.6952,-2.6763,-2.6776,-2.6776,-2.6776,-2.6763,-2.665,-2.6512,-2.6487,-2.6487,-2.6487,-2.6487,-2.6487,-2.6487,-2.6487,-2.6487,-2.6487,-2.6487,-2.6487,-2.6487,-2.6487,-2.6487,-2.6487,-2.6487,-2.6487,-2.6487,-2.6487,-2.6487,-2.6487,-2.6487,-2.6487,-2.6487,-2.6487,-2.6487,-2.6487,-2.6487,-2.6487,-2.6487,-2.6521,-2.6487,-2.6487,-2.6487,-2.6487,-2.6487,-2.6487,-2.6679,-2.6973,-2.6577,-2.6939,-2.7484,-2.7061,-2.7217,-2.7484,-2.7504,-2.7438,-2.7417,-2.7417,-2.7637,-2.7953,-2.8556,-2.9254,-3.0103,-3.0703,-3.0896,-3.1351,-3.1467,-3.1496,-3.1438,-3.1365,-3.1365,-3.1496,-3.1496,-3.1496,-3.1496,-3.1496,-3.1496,-3.1496,-3.1496,-3.1582,-3.1582,-3.1853,-3.2244,-3.2652,-3.3013,-3.3827,-3.4496,-3.4823,-3.5339,-3.5453,-3.5577,-3.5689,-3.5672,-3.5788,-3.5832,-3.5989,-3.6333,-3.6563,-3.6643,-3.6764,-3.6904,-3.7117,-3.7378,-3.7685,-3.8015,-3.815,-3.8267,-3.8449,-3.8611,-3.8719,-3.8902,-3.9136,-3.9396,-3.9656,-3.9808,-3.9901,-2.6487,-2.6487,-2.6487,-2.6487,-2.6487,-2.6487,-2.6487,-2.6487,-2.6487,-2.6487,-2.6487,-2.6487,-2.6487,-2.6487,-2.6487,-2.6487,-2.6487,-2.6487,-2.6487,-2.6487,-2.6487,-2.6487,-2.6487,-2.6487,-2.6487,-2.6487,-2.6487,-2.6487,-2.6487,-2.6487,-2.6487,-2.6487,-2.6487,-2.6487,-2.6487,-2.6487,-2.6487,-2.6487,-2.6487,-2.6487,-2.6487,-2.6487,-2.6487,-2.6487,-2.6487,-2.6521,-2.6521,-2.6487,-2.6487,-2.6487,-2.6487,-2.6487,-2.6487,-2.6487,-2.6487,-2.6487,-2.6555,-2.6803,-2.7149,-2.7317,-2.8117,-2.9115,-2.9597,-3.0072,-3.0524,-3.0419,-3.0494,-3.0554,-3.0896,-3.1014,-3.1058,-3.1117,-3.1438,-3.1438,-3.1467,-3.1467,-3.1496,-3.1496,-3.1496,-3.1496,-3.1553,-3.1894,-3.216,-3.2532,-3.3013,-3.3598,-3.4153,-3.4681,-3.5207,-3.5339,-3.5424,-3.5424,-3.5515,-3.5611,-3.5672,-3.5783,-3.5985,-3.6114,-3.6266,-3.6378,-3.6643,-3.6904,-3.7229,-3.7524,-3.7649,-3.7878,-3.8285,-3.8496,-3.8624,-3.8732,-3.8859,-3.9109,-3.9352,-3.9481,-3.9571,-2.6487,-2.6487,-2.6487,-2.6487,-2.6487,-2.6487,-2.6487,-2.6487,-2.6487,-2.6487,-2.6487,-2.6487,-2.6487,-2.6487,-2.6487,-2.6487,-2.6487,-2.6487,-2.6487,-2.6487,-2.6487,-2.6487,-2.6487,-2.6487,-2.6487,-2.6487,-2.6487,-2.6487,-2.6487,-2.6487,-2.6487,-2.6487,-2.6487,-2.6487,-2.6487,-2.6487,-2.6487,-2.6487,-2.6487,-2.6487,-2.6487,-2.6487,-2.6487,-2.6487,-2.6487,-2.6487,-2.6487,-2.6487,-2.6487,-2.6487,-2.6487,-2.6487,-2.6487,-2.6487,-2.6487,-2.6487,-2.6487,-2.6555,-2.6611,-2.6679,-2.6926,-2.7887,-2.8441,-2.8812,-2.9209,-2.9473,-2.9566,-2.9704,-2.995,-3.0133,-3.0254,-3.0792,-3.1278,-3.1336,-3.1438,-3.1467,-3.1496,-3.1496,-3.1496,-3.1496,-3.1496,-3.1653,-3.1768,-3.2064,-3.241,-3.2707,-3.3261,-3.3751,-3.4276,-3.4887,-3.4958,-3.5068,-3.5184,-3.543,-3.547,-3.547,-3.5667,-3.5893,-3.5827,-3.5941,-3.6203,-3.6437,-3.6686,-3.6943,-3.7152,-3.7487,-3.7998,-3.835,-3.8562,-3.8652,-3.8743,-3.8844,-3.9095,-3.9104,-3.9197,-2.6487,-2.6487,-2.6487,-2.6487,-2.6487,-2.6487,-2.6487,-2.6487,-2.6487,-2.6487,-2.6487,-2.6487,-2.6487,-2.6487,-2.6487,-2.6487,-2.6487,-2.6487,-2.6487,-2.6487,-2.6487,-2.6487,-2.6487,-2.6487,-2.6487,-2.6487,-2.6487,-2.6487,-2.6487,-2.6487,-2.6487,-2.6487,-2.6487,-2.6487,-2.6487,-2.6487,-2.6487,-2.6487,-2.6487,-2.6487,-2.6487,-2.6487,-2.6487,-2.6487,-2.6487,-2.6487,-2.6487,-2.6487,-2.6487,-2.6487,-2.6487,-2.6487,-2.6487,-2.6487,-2.6487,-2.6487,-2.6487,-2.6487,-2.6487,-2.6487,-2.6645,-2.6837,-2.7229,-2.7986,-2.8524,-2.883,-2.8798,-2.8844,-2.9034,-2.9286,-2.9566,-3.0042,-3.048,-3.0673,-3.0837,-3.1029,-3.1029,-3.1014,-3.1058,-3.1307,-3.1307,-3.1496,-3.1582,-3.164,-3.1951,-3.2064,-3.2355,-3.2853,-3.3417,-3.4053,-3.4447,-3.456,-3.4728,-3.4894,-3.5144,-3.5207,-3.5447,-3.5644,-3.5622,-3.5622,-3.5805,-3.6028,-3.6165,-3.644,-3.6783,-3.7285,-3.7842,-3.8082,-3.8201,-3.858,-3.8704,-3.8747,-3.8803,-3.884,-3.8923,-2.6129,-2.6487,-2.6487,-2.6487,-2.6487,-2.6487,-2.6487,-2.6487,-2.6487,-2.6487,-2.6487,-2.6487,-2.6487,-2.6487,-2.6487,-2.6487,-2.6487,-2.6487,-2.6487,-2.6487,-2.6383,-2.6487,-2.6487,-2.6452,-2.6487,-2.6487,-2.6487,-2.6487,-2.6418,-2.6452,-2.6487,-2.6487,-2.6487,-2.6487,-2.6487,-2.6487,-2.6487,-2.6487,-2.6487,-2.6487,-2.6487,-2.6487,-2.6487,-2.6487,-2.6487,-2.6487,-2.6487,-2.6487,-2.6487,-2.6487,-2.6487,-2.6487,-2.6487,-2.6487,-2.6487,-2.6487,-2.6487,-2.6487,-2.6487,-2.6487,-2.6487,-2.6487,-2.6487,-2.7007,-2.7471,-2.7756,-2.7802,-2.7868,-2.8214,-2.8556,-2.8844,-2.9192,-2.9473,-2.9782,-3.0103,-3.0434,-3.0464,-3.045,-3.0673,-3.097,-3.119,-3.1409,-3.1496,-3.1496,-3.1524,-3.1682,-3.1824,-3.202,-3.2664,-3.3365,-3.3761,-3.3962,-3.4137,-3.4325,-3.4568,-3.4847,-3.5161,-3.5402,-3.5616,-3.5639,-3.5616,-3.5689,-3.5876,-3.6182,-3.6481,-3.6925,-3.7323,-3.756,-3.7738,-3.8135,-3.8433,-3.8481,-3.8575,-3.8747,-3.8815,-2.5406,-2.6198,-2.6349,-2.6302,-2.6383,-2.6314,-2.6233,-2.6267,-2.6082,-2.6349,-2.6418,-2.6487,-2.6487,-2.6452,-2.6314,-2.6198,-2.6013,-2.5931,-2.5721,-2.6233,-2.5826,-2.5791,-2.5861,-2.6314,-2.6094,-2.628,-2.6245,-2.5943,-2.6094,-2.5896,-2.5756,-2.6267,-2.628,-2.6176,-2.6129,-2.6418,-2.6487,-2.6487,-2.6487,-2.6487,-2.6487,-2.6487,-2.6487,-2.6487,-2.6487,-2.6487,-2.6487,-2.6487,-2.6487,-2.6487,-2.6487,-2.6487,-2.6487,-2.6487,-2.6487,-2.6487,-2.6487,-2.6487,-2.6487,-2.6487,-2.6487,-2.6487,-2.6487,-2.6624,-2.6905,-2.7027,-2.7061,-2.7129,-2.7438,-2.7604,-2.7868,-2.8395,-2.878,-2.9034,-2.9317,-2.958,-2.969,-2.969,-2.9858,-3.0238,-3.0748,-3.097,-3.119,-3.1161,-3.1496,-3.1524,-3.1553,-3.164,-3.1951,-3.2664,-3.2944,-3.3261,-3.3469,-3.3633,-3.3953,-3.4276,-3.48,-3.5115,-3.5339,-3.56,-3.5577,-3.56,-3.5616,-3.5876,-3.6139,-3.6312,-3.6606,-3.6923,-3.7285,-3.7667,-3.7947,-3.81,-3.8269,-3.8401,-3.864,-2.4,-2.4301,-2.504,-2.537,-2.5335,-2.5382,-2.4921,-2.4253,-2.4217,-2.5099,-2.6267,-2.6452,-2.6383,-2.6198,-2.5581,-2.5358,-2.5252,-2.4874,-2.4325,-2.4397,-2.4433,-2.4648,-2.4505,-2.5146,-2.5288,-2.537,-2.5264,-2.504,-2.4696,-2.4433,-2.4325,-2.4397,-2.4886,-2.537,-2.5406,-2.5838,-2.6302,-2.6117,-2.6314,-2.6233,-2.6164,-2.6383,-2.6487,-2.6487,-2.6487,-2.6418,-2.6418,-2.6418,-2.6452,-2.6487,-2.6487,-2.6487,-2.6487,-2.6452,-2.6452,-2.6487,-2.6302,-2.6349,-2.6383,-2.6418,-2.6487,-2.6487,-2.6487,-2.6487,-2.6521,-2.6487,-2.6521,-2.6589,-2.6645,-2.6782,-2.7007,-2.7571,-2.8038,-2.8279,-2.8473,-2.8684,-2.8862,-2.8971,-2.9034,-2.9549,-3.0117,-3.0464,-3.0688,-3.0999,-3.138,-3.1496,-3.1496,-3.1524,-3.1553,-3.1964,-3.2048,-3.2324,-3.268,-3.2906,-3.3277,-3.3649,-3.4128,-3.452,-3.4752,-3.5075,-3.547,-3.5577,-3.5616,-3.5622,-3.5761,-3.5968,-3.6186,-3.6419,-3.6786,-3.7193,-3.7396,-3.7542,-3.7596,-3.7721,-3.8135,-2.311,-2.3562,-2.4084,-2.4325,-2.4337,-2.4337,-2.4,-2.3551,-2.3478,-2.4097,-2.5052,-2.517,-2.5205,-2.517,-2.4552,-2.4337,-2.4264,-2.3818,-2.3745,-2.3588,-2.3331,-2.3588,-2.3818,-2.4011,-2.4228,-2.4337,-2.4301,-2.4,-2.3404,-2.3551,-2.3635,-2.3514,-2.412,-2.4384,-2.4492,-2.5252,-2.5616,-2.517,-2.5616,-2.5616,-2.5581,-2.5873,-2.6383,-2.6487,-2.6452,-2.628,-2.5886,-2.5769,-2.5511,-2.5276,-2.5016,-2.5464,-2.5394,-2.5252,-2.5134,-2.5252,-2.5429,-2.5838,-2.5908,-2.6164,-2.6383,-2.6418,-2.6487,-2.6487,-2.6487,-2.6487,-2.6487,-2.6555,-2.6555,-2.6658,-2.6658,-2.7095,-2.7149,-2.7317,-2.7384,-2.7517,-2.7802,-2.8019,-2.8182,-2.8505,-2.916,-2.9919,-3.0208,-3.0554,-3.097,-3.1511,-3.1511,-3.1496,-3.1496,-3.1496,-3.1496,-3.1582,-3.2035,-3.2394,-3.2815,-3.3119,-3.3401,-3.3786,-3.412,-3.4503,-3.4871,-3.5339,-3.56,-3.5532,-3.5538,-3.5717,-3.5941,-3.6097,-3.6333,-3.6706,-3.6845,-3.6923,-3.6999,-3.7076,-3.7433,-2.2403,-2.3257,-2.3294,-2.3294,-2.3331,-2.3294,-2.3184,-2.3073,-2.3073,-2.3084,-2.311,-2.3158,-2.3184,-2.3478,-2.3294,-2.3331,-2.3147,-2.2739,-2.2888,-2.2888,-2.2898,-2.2638,-2.2776,-2.3184,-2.3257,-2.3294,-2.3294,-2.311,-2.2787,-2.2776,-2.2776,-2.311,-2.3257,-2.3305,-2.3635,-2.4108,-2.4516,-2.4264,-2.4301,-2.4301,-2.4624,-2.5099,-2.5604,-2.5978,-2.606,-2.5616,-2.5075,-2.4671,-2.4264,-2.4036,-2.3854,-2.4217,-2.4445,-2.4301,-2.4,-2.4072,-2.448,-2.4743,-2.4969,-2.5616,-2.5978,-2.6245,-2.6383,-2.6452,-2.6418,-2.6418,-2.6418,-2.6452,-2.6452,-2.6487,-2.6487,-2.6521,-2.6555,-2.6589,-2.6624,-2.6658,-2.6939,-2.7196,-2.7384,-2.7617,-2.8312,-2.916,-2.9549,-2.9919,-3.0584,-3.1131,-3.1453,-3.1467,-3.1496,-3.1496,-3.1496,-3.1496,-3.1682,-3.2048,-3.2355,-3.2516,-3.2745,-3.313,-3.3505,-3.3912,-3.426,-3.4609,-3.4998,-3.5356,-3.5385,-3.5413,-3.5583,-3.5761,-3.6011,-3.627,-3.6291,-3.6357,-3.6501,-3.6603,-3.6764,-2.1413,-2.2291,-2.2291,-2.2291,-2.2291,-2.2291,-2.1849,-2.1231,-2.1193,-2.1165,-2.1308,-2.1346,-2.1859,-2.3441,-2.259,-2.2291,-2.2188,-2.1783,-2.1298,-2.1116,-2.1527,-2.1385,-2.1489,-2.2113,-2.2264,-2.2291,-2.2215,-2.1886,-2.1821,-2.1489,-2.1231,-2.1346,-2.2113,-2.2339,-2.2478,-2.3036,-2.3624,-2.3379,-2.3415,-2.3526,-2.3489,-2.3818,-2.3916,-2.4072,-2.4036,-2.3916,-2.3818,-2.377,-2.3661,-2.3551,-2.3368,-2.3489,-2.3526,-2.3415,-2.3195,-2.311,-2.3514,-2.3708,-2.4108,-2.4767,-2.5182,-2.537,-2.5546,-2.6094,-2.6094,-2.6117,-2.6164,-2.628,-2.6314,-2.6418,-2.6452,-2.6487,-2.6521,-2.6521,-2.6555,-2.6555,-2.6679,-2.6748,-2.6816,-2.7095,-2.7504,-2.8051,-2.8376,-2.9034,-3.0056,-3.0554,-3.097,-3.1058,-3.1248,-3.138,-3.1409,-3.1467,-3.1467,-3.1496,-3.171,-3.1853,-3.2076,-3.2504,-3.2922,-3.3313,-3.3582,-3.3735,-3.4128,-3.4633,-3.4894,-3.4941,-3.5121,-3.5402,-3.5627,-3.5815,-3.5766,-3.581,-3.5968,-3.6097,-3.627]},{"header":{"parameterUnit":"m.s-1","parameterCategory":1,"la1":31.0,"la2":29.5877,"lo1":-88.7671,"lo2":-86.6584,"dy":0.0162,"dx":0.0185,"nx":115,"ny":88,"refTime":"2023-09-03T06:00:00:Z","depth":0,"parameterNumber":3,"parameterNumberName":"V-component_of_WINDS"},"data":[0.0,0.0,0.0,0.0,0.0,0.0,0.0,0.0,0.0,0.0,0.0,0.0,0.0,0.0,0.0,0.0,0.0,0.0,0.0,0.0,0.0,0.0,0.0,0.0,0.0,0.0,0.0,0.0,0.0,0.0,0.0,0.0,0.0,0.0,0.0,0.0,0.0,0.0,0.0,0.0,0.0,0.0,0.0,0.0,0.0,0.0,0.0,0.0,0.0,0.0,0.0,0.0,0.0,0.0,0.0,0.0,0.0,0.0,0.0,0.0,0.0,0.0,0.0,0.0,0.0,0.0,0.0,0.0,0.0,0.0,0.0,0.0,0.0,0.0,0.0,0.0,0.0,0.0,0.0,0.0,0.0,0.0,0.0,0.0,0.0,0.0,0.0,0.0,0.0,0.0,0.0,0.0,0.0,0.0,0.0,0.0,0.0,0.0,0.0,0.0,0.0,0.0,0.0,0.0,0.0,0.0,0.0,0.0,0.0,0.0,0.0,0.0,0.0,0.0,0.0,0.0,0.0,0.0,0.0,0.0,0.0,0.0,0.0,0.0,0.0,0.0,0.0,0.0,0.0,0.0,0.0,0.0,0.0,0.0,0.0,0.0,0.0,0.0,0.0,0.0,0.0,0.0,0.0,0.0,0.0,0.0,0.0,0.0,0.0,0.0,0.0,0.0,0.0,0.0,0.0,0.0,0.0,0.0,0.0,0.0,0.0,0.0,0.0,0.0,0.0,0.0,0.0,0.0,0.0,0.0,0.0,0.0,0.0,0.0,0.0,0.0,0.0,0.0,0.0,0.0,0.0,0.0,0.0,0.0,0.0,0.0,0.0,0.0,0.0,0.0,0.0,0.0,0.0,0.0,0.0,0.0,0.0,0.0,0.0,0.0,0.0,0.0,0.0,0.0,0.0,0.0,0.0,0.0,0.0,0.0,0.0,0.0,0.0,0.0,0.0,0.0,0.0,0.0,0.0,0.0,0.0,0.0,0.0,0.0,0.0,0.0,0.0,0.0,0.0,0.0,0.0,0.0,0.0,0.0,0.0,0.0,0.0,0.0,0.0,0.0,0.0,0.0,0.0,0.0,0.0,0.0,0.0,0.0,0.0,0.0,0.0,0.0,0.0,0.0,0.0,0.0,0.0,0.0,0.0,0.0,0.0,0.0,0.0,0.0,0.0,0.0,0.0,0.0,0.0,0.0,0.0,0.0,0.0,0.0,0.0,0.0,0.0,0.0,0.0,0.0,0.0,0.0,0.0,0.0,0.0,0.0,0.0,0.0,0.0,0.0,0.0,0.0,0.0,0.0,0.0,0.0,0.0,0.0,0.0,0.0,0.0,0.0,0.0,0.0,0.0,0.0,0.0,0.0,0.0,0.0,0.0,0.0,0.0,0.0,0.0,0.0,0.0,0.0,0.0,0.0,0.0,0.0,0.0,0.0,0.0,0.0,0.0,0.0,0.0,0.0,0.0,0.0,0.0,0.0,0.0,0.0,0.0,0.0,0.0,0.0,0.0,0.0,0.0,0.0,0.0,0.0,0.0,0.0,0.0,0.0,0.0,0.0,0.0,0.0,0.0,0.0,0.0,0.0,0.0,0.0,0.0,0.0,0.0,0.0,0.0,0.0,0.0,0.0,0.0,0.0,0.0,0.0,0.0,0.0,0.0,0.0,0.0,0.0,0.0,0.0,0.0,0.0,0.0,0.0,0.0,0.0,0.0,0.0,0.0,0.0,0.0,0.0,0.0,0.0,0.0,0.0,0.0,0.0,0.0,0.0,0.0,0.0,0.0,0.0,0.0,0.0,0.0,0.0,0.0,0.0,0.0,0.0,0.0,0.0,0.0,0.0,0.0,0.0,0.0,0.0,0.0,0.0,0.0,0.0,0.0,0.0,0.0,0.0,0.0,0.0,0.0,0.0,0.0,0.0,0.0,0.0,0.0,0.0,0.0,0.0,0.0,0.0,0.0,0.0,0.0,0.0,0.0,0.0,0.0,0.0,0.0,0.0,0.0,0.0,0.0,0.0,0.0,0.0,0.0,0.0,0.0,0.0,0.0,0.0,0.0,0.0,0.0,0.0,0.0,0.0,0.0,0.0,0.0,0.0,0.0,0.0,0.0,0.0,0.0,0.0,0.0,0.0,0.0,0.0,0.0,0.0,0.0,0.0,0.0,0.0,0.0,0.0,0.0,0.0,0.0,0.0,0.0,0.0,0.0,0.0,0.0,0.0,0.0,0.0,0.0,0.0,0.0,0.0,0.0,0.0,0.0,0.0,0.0,0.0,0.0,0.0,0.0,0.0,0.0,0.0,0.0,0.0,0.0,0.0,0.0,0.0,0.0,0.0,0.0,0.0,0.0,0.0,0.0,0.0,0.0,0.0,0.0,0.0,0.0,0.0,0.0,0.0,0.0,0.0,0.0,0.0,0.0,0.0,0.0,0.0,0.0,0.0,0.0,0.0,0.0,0.0,0.0,0.0,0.0,0.0,0.0,0.0,0.0,0.0,0.0,0.0,0.0,0.0,0.0,0.0,0.0,0.0,0.0,0.0,0.0,0.0,0.0,0.0,0.0,0.0,0.0,0.0,0.0,0.0,0.0,0.0,0.0,0.0,0.0,0.0,0.0,0.0,0.0,0.0,0.0,0.0,0.0,0.0,0.0,0.0,0.0,0.0,0.0,0.0,0.0,0.0,0.0,0.0,0.0,0.0,0.0,0.0,0.0,0.0,0.0,0.0,0.0,0.0,0.0,0.0,0.0,0.0,0.0,0.0,0.0,0.0,0.0,0.0,0.0,0.0,0.0,0.0,0.0,0.0,0.0,0.0,0.0,0.0,0.0,0.0,0.0,0.0,0.0,0.0,0.0,0.0,0.0,0.0,0.0,0.0,0.0,0.0,0.0,0.0,0.0,0.0,0.0,0.0,0.0,0.0,0.0,0.0,0.0,0.0,0.0,0.0,0.0,0.0,0.0,0.0,0.0,0.0,0.0,0.0,0.0,0.0,0.0,0.0,0.0,0.0,0.0,0.0,0.0,0.0,0.0,0.0,0.0,0.0,0.0,0.0,0.0,0.0,0.0,0.0,0.0,0.0,0.0,0.0,0.0,0.0,0.0,0.0,0.0,0.0,0.0,0.0,0.0,0.0,0.0,0.0,0.0,0.0,0.0,0.0,0.0,0.0,0.0,0.0,0.0,0.0,0.0,0.0,0.0,0.0,0.0,0.0,0.0,0.0,0.0,0.0,0.0,0.0,0.0,0.0,0.0,0.0,0.0,0.0,0.0,0.0,0.0,0.0,0.0,0.0,0.0,0.0,0.0,0.0,0.0,0.0,0.0,0.0,0.0,0.0,0.0,0.0,0.0,0.0,0.0,0.0,0.0,0.0,0.0,0.0,0.0,0.0,0.0,0.0,0.0,0.0,0.0,0.0,0.0,0.0,0.0,0.0,0.0,0.0,0.0,0.0,0.0,0.0,0.0,0.0,0.0,0.0,0.0,0.0,0.0,0.0,0.0,0.0,0.0,0.0,0.0,0.0,0.0,0.0,0.0,0.0,0.0,0.0,0.0,0.0,0.0,0.0,0.0,0.0,0.0,0.0,0.0,0.0,0.0,0.0,0.0,0.0,0.0,0.0,0.0,0.0,0.0,0.0,0.0,0.0,0.0,0.0,0.0,0.0,0.0,0.0,0.0,0.0,0.0,0.0,0.0,0.0,0.0,0.0,0.0,0.0,0.0,0.0,0.0,0.0,0.0,0.0,0.0,0.0,0.0,0.0,0.0,0.0,0.0,0.0,0.0,0.0,0.0,0.0,0.0,0.0,0.0,0.0,0.0,0.0,0.0,0.0,0.0,0.0,0.0,0.0,0.0,0.0,0.0,0.0,0.0,0.0,0.0,0.0,0.0,0.0,0.0,0.0,0.0,0.0,0.0,0.0,0.0,0.0,0.0,0.0,0.0,0.0,0.0,0.0,0.0,0.0,0.0,0.0,0.0,0.0,0.0,0.0,0.0,0.0,0.0,0.0,0.0,0.0,0.0,0.0,0.0,0.0,0.0,0.0,0.0,0.0,0.0,0.0,0.0,0.0,0.0,0.0,0.0,0.0,0.0,0.0,0.0,0.0,0.0,0.0,0.0,0.0,0.0,0.0,0.0,0.0,0.0,0.0,0.0,0.0,0.0,0.0,0.0,0.0,0.0,0.0,0.0,0.0,0.0,0.0,0.0,0.0,0.0,0.0,0.0,0.0,0.0,0.0,0.0,0.0,0.0,0.0,0.0,0.0,0.0,0.0,-0.3881,0.0,0.0,0.0,0.0,0.0,0.0,0.0,0.0,0.0,0.0,0.0,0.0,0.0,0.0,0.0,0.0,0.0,0.0,0.0,0.0,0.0,0.0,0.0,0.0,0.0,0.0,0.0,0.0,0.0,0.0,0.0,0.0,0.0,0.0,0.0,0.0,0.0,0.0,0.0,0.0,0.0,0.0,0.0,0.0,0.0,0.0,0.0,0.0,0.0,0.0,0.0,0.0,0.0,0.0,0.0,0.0,0.0,0.0,0.0,0.0,0.0,0.0,0.0,0.0,0.0,0.0,0.0,0.0,0.0,0.0,0.0,0.0,0.0,0.0,0.0,0.0,0.0,0.0,0.0,0.0,0.0,0.0,0.0,0.0,0.0,0.0,0.0,0.0,0.0,0.0,0.0,0.0,0.0,0.0,0.0,0.0,0.0,0.0,0.0,0.0,0.0,0.0,0.0,0.0,0.0,0.0,0.0,0.0,0.0,0.0,-0.0987,-0.0987,-0.268,-0.3614,-0.3659,0.0,0.0,0.0,0.0,0.0,0.0,0.0,0.0,0.0,0.0,0.0,0.0,0.0,0.0,0.0,0.0,0.0,0.0,0.0,0.0,0.0,0.0,0.0,0.0,0.0,0.0,0.0,0.0,0.0,0.0,0.0,0.0,0.0,0.0,0.0,0.0,0.0,0.0,0.0,0.0,0.0,0.0,0.0,0.0,0.0,0.0,0.0,0.0,0.0,0.0,0.0,0.0,0.0,0.0,0.0,0.0,0.0,0.0,0.0,0.0,0.0,0.0,0.0,0.0,0.0,0.0,0.0,0.0,0.0,0.0,0.0,0.0,0.0,0.0,0.0,0.0,0.0,0.0,0.0,0.0,0.0,0.0,0.0,0.0,0.0,0.0,0.0,0.0,0.0,0.0,0.0,0.0,0.0,0.0,0.0,0.0,0.0,0.0,0.0,0.0,0.0,0.0,0.0,0.0,0.0,0.0,0.0,0.0,0.0,0.0,0.0,0.0,-0.2546,-0.3304,-0.3614,0.0,0.0,0.0,0.0,0.0,0.0,0.0,0.0,0.0,0.0,0.0,0.0,0.0,0.0,0.0,0.0,0.0,0.0,0.0,0.0,0.0,0.0,0.0,0.0,0.0,0.0,0.0,0.0,0.0,0.0,0.0,0.0,0.0,0.0,0.0,0.0,0.0,0.0,0.0,0.0,0.0,0.0,0.0,0.0,0.0,0.0,0.0,0.0,0.0,0.0,0.0,0.0,0.0,0.0,0.0,0.0,0.0,0.0,0.0,0.0,0.0,0.0,0.0,0.0,0.0,0.0,0.0,0.0,0.0,0.0,0.0,0.0,0.0,0.0,0.0,0.0,0.0,0.0,0.0,0.0,0.0,0.0,0.0,0.0,0.0,0.0,0.0,0.0,0.0,0.0,0.0,0.0,0.0,0.0,0.0,0.0,0.0,0.0,0.0,0.0,0.0,0.0,0.0,0.0,0.0,0.0,0.0,0.0,0.0,0.0,-0.018,-0.018,-0.1344,0.0,-0.357,0.0,0.0,0.0,0.0,0.0,0.0,0.0,0.0,0.0,0.0,0.0,0.0,0.0,0.0,0.0,0.0,0.0,0.0,0.0,0.0,0.0,0.0,0.0,0.0,0.0,0.0,0.0,0.0,0.0,0.0,0.0,0.0,0.0,0.0,0.0,0.0,0.0,0.0,0.0,0.0,0.0,0.0,0.0,0.0,0.0,0.0,0.0,0.0,0.0,0.0,0.0,0.0,0.0,0.0,0.0,0.0,0.0,0.0,0.0,0.0,0.0,0.0,0.0,0.0,0.0,0.0,0.0,0.0,0.0,0.0,0.0,0.0,0.0,0.0,0.0,0.0,0.0,0.0,0.0,0.0,0.0,0.0,0.0,0.0,0.0,0.0,0.0,0.0,0.0,0.0,0.0,0.0,0.0,0.0,0.0,0.0,0.0,0.0,0.0,0.0,0.0,0.0,0.0,0.0,0.0,0.0,0.0,0.0,0.0,0.0,0.0,0.0,-0.0494,-0.13,0.0,0.0,0.0,0.0,0.0,0.0,0.0,0.0,0.0,0.0,0.0,0.0,0.0,0.0,0.0,0.0,0.0,0.0,0.0,0.0,0.0,0.0,0.0,0.0,0.0,0.0,0.0,0.0,0.0,0.0,0.0,0.0,0.0,0.0,0.0,0.0,0.0,0.0,0.0,0.0,0.0,0.0,0.0,0.0,0.0,0.0,0.0,0.0,0.0,0.0,0.0,0.0,0.0,0.0,0.0,0.0,0.0,0.0,0.0,0.0,0.0,0.0,0.0,0.0,0.0,0.0,0.0,0.0,0.0,0.0,0.0,0.0,0.0,0.0,0.0,0.0,0.0,0.0,0.0,0.0,0.0,0.0,0.0,0.0,0.0,0.0,0.0,0.0,0.0,0.0,0.0,0.0,0.0,0.0,0.0,0.0,0.0,0.0,0.0,0.0,0.0,0.0,0.0,0.0,0.0,0.0,0.0,0.0,0.0,0.0,0.0,0.0,0.0,0.0,-0.0404,-0.1299,0.0,0.0,0.0,0.0,0.0,0.0,0.0,0.0,0.0,0.0,0.0,0.0,0.0,0.0,0.0,0.0,0.0,0.0,0.0,0.0,0.0,0.0,0.0,0.0,0.0,0.0,0.0,0.0,0.0,0.0,0.0,0.0,0.0,0.0,0.0,0.0,0.0,0.0,0.0,0.0,0.0,0.0,0.0,0.0,0.0,0.0,0.0,0.0,0.0,0.0,0.0,0.0,0.0,0.0,0.0,0.0,0.0,0.0,0.0,0.0,0.0,0.0,0.0,0.0,0.0,0.0,0.0,0.0,0.0,0.0,0.0,0.0,0.0,0.0,0.0,0.0,0.0,0.0,0.0,0.0,0.0,0.0,0.0,0.0,0.0,0.0,0.0,0.0,0.0,0.0,0.0,0.0,0.0,0.0,0.0,0.0,0.0,0.0,0.0,0.0,0.0,0.0,0.0,0.0,0.0,0.0,0.0,0.0,0.0,0.0,0.0,0.0,0.0,0.0,0.0,0.0,0.0,0.0,0.0,0.0,0.0,0.0,0.0,0.0,0.0,0.0,0.0,0.0,0.0,0.0,0.0,0.0,0.0,0.0,0.0,0.0,0.0,0.0,0.0,0.0,0.0,0.0,0.0,0.0,0.0,0.0,0.0,0.0,0.0,0.0,0.0,0.0,0.0,0.0,0.0,0.0,0.0,0.0,0.0,0.0,0.0,0.0,0.0,0.0,0.0,0.0,0.0,0.0,0.0,0.0,0.0,0.0,0.0,0.0,0.0,0.0,0.0,0.0,0.0,0.0,0.0,0.0,0.0,0.0,0.0,0.0,0.0,0.0,0.0,0.0,0.0,0.0,0.0,0.0,0.0,0.0,0.0,0.0,0.0,0.0,0.0,0.0,0.0,0.0,0.0,0.0,0.0,0.0,0.0,0.0,0.0,0.0,0.0,0.0,0.0,0.0,0.0,0.0,0.0,0.0,0.0,0.0,0.0,0.0,0.0,0.0,0.0,0.0,0.0,0.0,0.0,0.0,0.0,0.0,0.0,0.0,0.0,0.0,0.0,0.0,0.0,0.0,0.0,0.0,0.0,0.0,0.0,0.0,0.0,0.0,0.0,0.0,0.0,0.0,0.0,0.0,0.0,0.0,0.0,0.0,0.0,0.0,0.0,0.0,0.0,0.0,0.0,0.0,0.0,0.0,0.0,0.0,0.0,0.0,0.0,0.0,0.0,0.0,0.0,0.0,0.0,0.0,0.0,0.0,0.0,0.0,0.0,0.0,0.0,0.0,0.0,0.0,0.0,0.0,0.0,0.0,0.0,0.0,0.0,0.0,0.0,0.0,0.0,0.0,0.0,0.0,0.0,0.0,0.0,0.0,0.0,0.0,0.0,0.0,0.0,0.0,0.0,0.0,0.0,0.0,0.0,0.0,0.0,0.0,0.0,0.0,0.0,0.0,0.0,0.0,0.0,0.0,0.0,0.0,0.0,0.0,0.0,0.0,0.0,0.0,0.0,0.0,0.0,0.0,0.0,0.0,0.0,0.0,0.0,0.0,0.0,0.0,0.0,0.0,0.0,0.0,0.0,0.0,0.0,0.0,0.0,0.0,0.0,0.0,0.0,0.0,0.0,0.0,0.0,0.0,0.0,0.0,0.0,0.0,0.0,0.0,0.0,0.0,0.0,0.0,0.0,0.0,0.0,0.0,0.0,0.0,0.0,0.0,0.0,0.0,0.0,0.0,0.0,0.0,0.0,0.0,0.0,0.0,0.0,0.0,0.0,0.0,0.0,0.0,0.0,0.0,0.0,0.0,0.0,0.0,0.0,0.0,0.0,0.0,0.0,0.0,0.0,0.0,0.0,0.0,0.0,0.0,0.0,0.0,0.0,0.0,0.0,0.0,0.0,0.0,0.0,0.0,0.0,0.0,0.0,0.0,0.0,0.0,0.0,0.0,0.0,0.0,0.0,0.0,0.0,0.0,0.0,0.0,0.0,0.0,0.0,0.0,0.0,0.0,0.0,0.0,0.0,0.0,0.0,0.0,0.0,0.0,0.0,0.0,0.0,0.0,0.0,0.0,0.0,0.0,0.0,0.0,0.0,0.0,0.0,0.0,0.0,0.0,0.0,0.0,0.0,0.0,0.0,0.0,0.0,0.0,0.0,0.0,0.0,0.0,0.0,0.0,0.0,0.0,0.0,0.0,0.0,0.0,0.0,0.0,0.0,0.0,0.0,0.0,0.0,0.0,0.0,0.0,0.0,0.0,0.0,0.0,0.0,0.0,0.0,0.0,0.0,0.0,0.0,0.0,0.0,0.0,0.0,0.0,0.0,0.0,0.0,0.0,0.0,0.0,0.0,0.0,0.0,0.0,0.0,0.0,0.0,0.0,0.0,0.0,0.0,0.0,0.0,0.0,0.0,0.0,0.0,0.0,0.0,0.0,0.0,0.0,0.0,0.0,0.0,0.0,0.0,0.0,0.0,0.0,0.0,0.0,0.0,0.0,0.0,0.0,0.0,0.0,0.0,0.0,0.0,0.0,0.0,0.0,0.0,0.0,0.0,0.0,0.0,0.0,0.0,0.0,0.0,0.0,0.0,0.0,0.0,0.0,0.0,0.0,0.0,0.0,0.0,0.0,0.0,0.0,0.0,0.0,0.0,0.0,0.0,0.0,0.0,0.0,0.0,0.0,0.0,0.0,0.0,0.0,0.0,0.0,0.0,0.0,0.0,0.0,0.0,0.0,0.0,0.0,0.0,0.0,0.0,0.0,0.0,0.0,0.0,0.0,0.0,0.0,0.0,0.0,0.0,0.0,0.0,0.0,0.0,0.0,0.0,0.0,0.0,0.0,0.0,0.0,0.0,0.0,0.0,0.0,0.0,0.0,0.0,0.0,0.0,0.0,0.0,0.0,0.0,0.0,0.0,0.0,0.0,0.0,0.0,0.0,0.0,0.0,0.0,0.0,0.0,0.0,0.0,0.0,0.0,0.0,0.0,0.0,0.0,0.0,0.0,0.0,0.0,0.0,0.0,0.0,0.0,0.0,0.0,0.0,0.0,0.0,0.0,0.0,0.0,0.0,0.0,0.0,0.0,0.0,0.0,0.0,0.0,0.0,0.0,0.0,0.0,0.0,0.0,0.0,0.0,0.0,0.0,0.0,0.0,0.0,0.0,0.0,0.0,0.0,0.0,0.0,0.0,0.0,0.0,0.0,0.0,0.0,0.0,0.0,0.0,0.0,0.0,0.0,0.0,0.0,0.0,0.0,0.0,0.0,0.0,0.0,0.0,0.0,0.0,0.0,0.0,0.0,0.0,0.0,0.0,0.0,0.0,0.0,0.0,0.0,0.0,0.0,0.0,0.0,0.0,0.0,0.0,0.0,0.0,0.0,0.0,0.0,0.0,0.0,0.0,0.0,0.0,0.0,0.0,0.0,0.0,0.0,0.0,0.0,0.0,0.0,0.0,0.0,0.0,0.0,0.0,0.0,0.0,0.0,0.0,0.0,0.0,0.0,0.0,0.0,0.0,0.0,0.0,0.0,0.0,0.0,0.0,0.0,0.0,0.0,0.0,0.0,0.0,0.0,0.0,0.0,0.0,0.0,0.0,0.0,0.0,0.0,0.0,0.0,0.0,0.0,0.0,0.0,0.0,0.0,0.0,0.0,0.0,0.0,0.0,0.0,0.0,0.0,0.0,0.0,0.0,0.0,0.0,0.0,0.0,0.0,0.0,0.0,0.0,0.0,0.0,0.0,0.0,0.0,0.0,0.0,0.0,0.0,0.0,0.0,0.0,0.0,0.0,0.0,0.0,0.0,0.0,0.0,0.0,0.0,0.0,0.0,0.0,0.0,0.0,0.0,0.0,0.0,0.0,0.0,0.0,0.0,0.0,0.0,0.0,0.0,0.0,0.0,0.0,0.0,0.0,0.0,0.0,0.0,0.0,0.0,0.0,0.0,0.0,0.0,0.0,0.0,0.0,0.0,0.0,0.0,0.0,0.0,0.0,0.0,0.0,0.0,0.0,0.0,0.0,0.0,0.0,0.0,0.0,0.0,0.0,0.0,0.0,0.0,0.0,0.0,0.0,0.0,0.0,0.0,0.0,0.0,0.0,0.0,0.0,0.0,0.0,0.0,0.0,0.0,0.0,0.0,0.0,0.0,0.0,0.0,0.0,0.0,0.0,0.0,0.0,0.0,0.0,0.0,0.0,0.0,0.0,0.0,0.0,0.0,0.0,0.0,0.0,0.0,0.0,0.0,0.0,0.0,0.0,0.0,0.0,0.0,0.0,0.0,0.0,0.0,0.0,0.0,0.0,0.0,0.0,0.0,0.0,0.0,0.0,0.0,0.0,0.0,0.0,0.0,0.0,0.0,0.0,0.0,0.0,0.0,0.0,0.0,0.0,0.0,0.0,0.0,0.0,0.0,0.0,0.0,0.0,0.0,0.0,0.0,0.0,0.0,0.0,0.0,0.0,0.0,0.0,0.0,0.0,0.0,0.0,0.0,0.0,0.0,0.0,0.0,0.0,0.0,0.0,0.0,0.0,0.0,0.0,0.0,0.0,0.0,0.0,0.0,0.0,0.0,0.0,0.0,0.0,0.0,0.0,0.0,0.0,0.0,0.0,0.0,0.0,0.0,0.0,0.0,0.0,0.0,0.0,0.0,0.0,0.0,0.0,0.0,0.0,0.0,0.0,0.0,0.0,0.0,0.0,0.0,0.0,0.0,0.0,0.0,0.0,0.0,0.0,0.0,0.0,0.0,0.0,0.0,0.0,0.0,0.0,0.0,0.0,0.0,0.0,0.0,0.0,0.0,0.0,0.0,0.0,0.0,0.0,0.0,0.0,0.0,0.0,0.0,0.0,0.0,0.0,0.0,0.0,0.0,0.0,0.0,0.0,0.0,0.0,0.0,0.0,0.0,0.0,0.0,0.0,0.0,0.0,0.0,0.0,0.0,0.0,0.0,0.0,0.0,0.0,0.0,0.0,0.0,0.0,0.0,0.0,0.0,0.0,0.0,0.0,0.0,0.0,0.0,0.0,0.0,0.0,0.0,0.0,0.0,0.0,0.0,0.0,0.0,0.0,0.0,0.0,0.0,0.0,0.0,0.0,0.0,0.0,0.0,0.0,0.0,0.0,0.0,0.0,0.0,0.0,0.0,0.0,0.0,0.0,0.0,0.0,0.0,0.0,0.0,0.0,0.0,0.0,0.0,0.0,0.0,0.0,0.0,0.0,0.0,0.0,0.0,0.0,0.0,0.0,0.0,0.0,0.0,0.0,0.0,0.0,0.0,0.0,0.0,0.0,0.0,0.0,0.0,0.0,0.0,0.0,0.0,0.0,0.0,0.0,0.0,0.0,0.0,0.0,0.0,0.0,0.0,0.0,0.0,0.0,0.0,0.0,0.0,0.0,0.0,0.0,0.0,0.0,0.0,0.0,0.0,0.0,0.0,0.0,0.0,0.0,0.0,0.0,0.0,0.0,0.0,0.0,0.0,0.0,0.0,0.0,0.0,0.0,0.0,0.0,0.0,0.0,0.0,0.0,0.0,0.0,0.0,0.0,0.0,0.0,0.0,0.0,0.0,0.0,0.0,0.0,0.0,0.0,0.0,0.0,0.0,0.0,0.0,0.0,0.0,0.0,0.0,0.0,0.0,0.0,0.0,0.0,0.0,0.0,0.0,0.0,0.0,0.0,0.0,0.0,0.0,0.0,0.0,0.0,0.0,0.0,0.0,0.0,0.0,0.0,0.0,0.0,0.0,0.0,0.0,0.0,0.0,0.0,0.0,0.0,0.0,0.0,0.0,0.0,0.0,-0.7837,0.0,0.0,0.0,0.0,0.0,0.0,0.0,0.0,0.0,0.0,0.0,0.0,0.0,0.0,0.0,0.0,0.0,0.0,0.0,0.0,0.0,0.0,0.0,0.0,0.0,0.0,0.0,0.0,0.0,0.0,0.0,0.0,0.0,0.0,0.0,0.0,0.0,0.0,0.0,0.0,0.0,0.0,0.0,0.0,0.0,0.0,0.0,0.0,0.0,0.0,0.0,0.0,0.0,0.0,0.0,0.0,0.0,0.0,0.0,0.0,0.0,0.0,0.0,0.0,0.0,0.0,0.0,0.0,0.0,0.0,0.0,0.0,0.0,0.0,0.0,0.0,0.0,0.0,0.0,0.0,0.0,0.0,0.0,0.0,0.0,0.0,0.0,0.0,0.0,0.0,0.0,0.0,0.0,0.0,0.0,0.0,0.0,0.0,0.0,0.0,0.0,0.0,0.0,0.0,0.0,0.0,0.0,0.0,0.0,0.0,0.0,0.0,0.0,0.0,0.0,0.0,0.0,0.0,0.0,0.0,0.0,0.0,0.0,0.0,0.0,0.0,0.0,0.0,0.0,0.0,0.0,0.0,0.0,0.0,0.0,0.0,0.0,0.0,0.0,0.0,0.0,0.0,0.0,0.0,0.0,0.0,0.0,0.0,0.0,0.0,0.0,0.0,0.0,0.0,0.0,0.0,0.0,0.0,0.0,0.0,0.0,0.0,0.0,0.0,0.0,0.0,0.0,0.0,0.0,0.0,0.0,0.0,0.0,0.018,0.009,0.0269,0.009,0.0,0.0,0.0,0.0,0.0,0.0,0.0,0.0,0.0,0.0,0.0,0.0,0.0,0.0,0.0,0.0,0.0,0.0,0.0,0.0,0.0,0.0,0.0,0.0,0.0,0.0,0.0,0.0,0.0,0.0,0.0,0.0,0.0,0.0,0.0,0.0,0.0,0.0,0.0,0.0,0.0,0.0,0.0,-0.7095,-0.7095,0.0,0.0,0.0,0.0,0.0,0.0,0.0,0.0,-0.8101,0.0,0.0,0.0,0.0,0.0,0.0,0.0,0.0,0.0,0.0,0.0,0.0,0.0,0.0,0.0,0.0,0.0,0.0,0.0,0.0,0.0,0.0,0.0,0.0,0.0,0.0,0.0,0.0,0.0,0.0,0.0,0.0,0.0,0.0,0.0,0.0,0.0,0.0,0.0,0.0,0.0,0.0,0.0,0.0,0.0,0.0,0.0,0.0,0.0,0.0,0.0,0.0,0.0,0.0,0.0,0.0,0.2948,0.1031,0.0494,0.1478,0.0539,0.0,0.0,0.0,0.0,0.0,0.0,0.0,0.0,0.0,0.0,0.0,0.0,0.0,0.0,0.0,0.0,0.0,0.0,0.0,0.0,0.0,0.0,0.0,0.0,0.0,0.0,0.0,0.0,0.0,0.0,0.0,0.0,0.0,0.0,0.0,0.0,0.0,0.0,0.0,0.0,0.0,0.0,0.0,0.0,-0.7095,-0.7095,0.0,0.0,0.0,0.0,0.0,0.0,0.0,0.0,-0.8978,0.0,0.0,0.0,0.0,0.0,0.0,0.0,0.0,0.0,0.0,0.0,0.0,0.0,0.0,0.0,0.0,0.0,0.0,0.0,0.0,0.0,0.0,0.0,0.0,0.0,0.0,0.0,0.0,0.0,0.0,0.0,0.0,0.0,0.0,0.0,0.0,0.0,0.0,0.0,0.0,0.0,0.0,0.0,0.0,0.0,0.0,0.0,0.0,0.0,0.0,0.0,0.0,0.0,0.0,0.0,0.3481,0.2458,0.2147,0.2681,0.2191,0.1879,0.1879,0.1836,0.1567,0.0,0.0,0.0,0.0,0.0,0.0,0.0,0.0,0.0,0.0,0.0,0.0,0.0,0.0,0.0,0.0,0.0,0.0,0.0,0.0,0.0,0.0,0.0,0.0,0.0,0.0,0.0,0.0,0.0,0.0,0.0,0.0,0.0,0.0,0.0,0.0,0.0,0.0,0.0,0.0,-0.7095,-0.7095,-0.7095,0.0,0.0,0.0,0.0,0.0,0.0,-0.758,-0.8189,0.0,0.0,0.0,0.0,0.0,0.0,0.0,0.0,0.0,0.0,0.0,0.0,0.0,0.0,0.0,0.0,0.0,0.0,0.0,0.0,0.0,0.0,0.0,0.0,0.0,0.0,0.0,0.0,0.0,0.0,0.0,0.0,0.0,0.0,0.0,0.0,0.0,0.0,0.0,0.0,0.0,0.0,0.0,0.0,0.0,0.0,0.0,0.0,0.0,0.0,0.0,0.0,0.0,0.0,0.0,0.4281,0.3837,0.3705,0.3926,0.3749,0.3614,0.3614,0.3614,0.317,0.0,0.0,0.0,0.0,0.0,0.0,0.0,0.0,0.0,0.0,0.0,0.0,0.0,0.0,0.0,0.0,0.0,0.0,0.0,0.0,0.0,0.0,0.0,0.0,0.0,0.0,0.0,0.0,0.0,0.0,0.0,0.0,0.0,0.0,0.0,0.0,0.0,0.0,0.0,0.0,0.0,-0.7095,-0.7095,-0.7095,0.0,0.0,0.0,0.0,-0.7095,-0.7095,0.0,0.0,0.0,0.0,0.0,0.0,0.0,0.0,0.0,0.0,0.0,0.0,0.0,0.0,0.0,0.0,0.0,0.0,0.0,0.0,0.0,0.0,0.0,0.0,0.0,0.0,0.0,0.0,0.0,0.0,0.0,0.0,0.0,0.0,0.0,0.0,0.0,0.0,0.0,0.0,0.0,0.0,0.0,0.0,0.0,0.0,0.0,0.0,0.0,0.0,0.0,0.0,0.0,0.0,0.0,0.0,0.6558,0.4639,0.4105,0.509,0.415,0.3614,0.3614,0.3614,0.3525,0.0,0.0,0.0,0.0,0.0,0.0,0.0,0.0,0.0,0.0,0.0,0.0,0.0,0.0,0.0,0.0,0.0,0.0,0.0,0.0,0.0,0.0,0.0,0.0,0.0,0.0,0.0,0.0,0.0,0.0,0.0,0.0,0.0,0.0,0.0,0.0,0.0,0.0,0.0,0.0,0.0,-0.7095,-0.7095,-0.7095,-0.7095,0.0,0.0,-0.7095,-0.7095,-0.7095,0.0,0.0,0.0,0.0,0.0,0.0,0.0,0.0,0.0,0.0,0.0,0.0,0.0,0.0,0.0,0.0,0.0,0.0,0.0,0.0,0.0,0.0,0.0,0.0,0.0,0.0,0.0,0.0,0.0,0.0,0.0,0.0,0.0,0.0,0.0,0.0,0.0,0.0,0.0,0.0,0.0,0.0,0.0,0.0,0.0,0.0,0.0,0.0,0.0,0.0,0.0,0.0,0.0,0.0,0.0,0.6605,0.7051,0.611,0.5844,0.6337,0.5844,0.5575,0.5575,0.5575,0.5307,0.0,0.0,0.0,0.0,0.0,0.0,0.0,0.0,0.0,0.0,0.0,0.0,0.0,0.0,0.0,0.0,0.0,0.0,0.0,0.0,0.0,0.0,0.0,0.0,0.0,0.0,0.0,0.0,0.0,0.0,0.0,0.0,0.0,0.0,0.0,0.0,0.0,0.0,0.0,0.0,0.0,0.0,-0.7095,-0.7095,0.0,0.0,0.0,-0.7095,-0.7095,0.0,0.0,0.0,0.0,0.0,0.0,0.0,0.0,0.0,0.0,0.0,0.0,0.0,0.0,0.0,0.0,0.0,0.0,0.0,0.0,0.0,0.0,0.0,0.0,0.0,0.0,0.0,0.0,0.0,0.0,0.0,0.0,0.0,0.0,0.0,0.0,0.0,0.0,0.0,0.0,0.0,0.0,0.0,0.0,0.0,0.0,0.0,0.0,0.0,0.0,0.0,0.0,0.0,0.0,0.0,0.0,0.0,0.7095,0.7095,0.7095,0.7095,0.7095,0.7095,0.7095,0.7095,0.0,0.0,0.0,0.0,0.0,0.0,0.0,0.0,0.0,0.0,0.0,0.0,0.0,0.0,0.0,0.0,0.0,0.0,0.0,0.0,0.0,0.0,0.0,0.0,0.0,0.0,0.0,-0.0359,0.0,0.0,0.0,0.0,0.0,0.0,0.0,0.0,0.0,0.0,0.0,0.0,0.0,0.0,-0.7095,-0.7095,-0.7095,-0.7095,0.0,0.0,-0.7095,-0.7095,-0.7095,-0.7095,0.0,0.0,0.0,0.0,0.0,0.0,0.0,0.0,0.0,0.0,0.0,0.0,0.0,0.0,0.0,0.0,0.0,0.0,0.0,0.0,0.0,0.0,0.0,0.0,0.0,0.0,0.0,0.0,0.0,0.0,0.0,0.0,0.0,0.0,0.0,0.0,0.0,0.0,0.0,0.0,0.0,0.0,0.0,0.0,0.0,0.0,0.0,0.0,0.0,0.0,0.0,0.0,0.0,0.0,0.0,0.7095,0.7095,0.7095,0.7095,0.7095,0.7095,0.7095,0.7095,0.7051,0.0,0.0,0.0,0.0,0.0,0.0,0.0,0.0,0.0,0.0,0.0,0.0,0.0,0.0,0.0,0.0,0.0,0.0,0.0,0.0,0.0,0.0,0.0,0.0,0.0,0.0,0.0,0.0,0.0,0.0,0.0,0.0,0.0,0.0,0.0,0.0,0.0,0.0,0.0,0.0,0.0,-0.7095,-0.7095,-0.7095,-0.7095,0.0,0.0,-0.7095,-0.7095,-0.7095,-0.7095,-0.7095,0.0,0.0,0.0,0.0,0.0,0.0,0.0,0.0,0.0,0.0,0.0,0.0,0.0,0.0,0.0,0.0,0.0,0.0,0.0,0.0,0.0,0.0,0.0,0.0,0.0,0.0,0.0,0.0,0.0,0.0,0.0,0.0,0.0,0.0,0.0,0.0,0.0,0.0,0.0,0.0,0.0,0.0,0.0,0.0,0.0,0.0,0.0,0.0,0.0,0.0,0.0,0.0,0.0,0.7095,0.7095,0.7095,0.7095,0.7095,0.7095,0.7095,0.7095,0.7095,0.7095,0.0,0.0,0.0,0.0,0.0,0.0,0.0,0.0,0.0,0.0,0.0,0.0,0.0,0.0,0.0,0.0,0.0,0.0,0.0,0.0,0.0,0.0,0.0,0.0,0.0,0.0,0.0,0.0,-0.0404,-0.0718,-0.0673,0.0,0.0,0.0,0.0,0.0,0.0,0.0,0.0,0.0,0.0,-0.7095,-0.7095,-0.7095,0.0,0.0,-0.7095,-0.7095,-0.7095,-0.7095,-0.7095,-0.7095,-0.7489,0.0,0.0,0.0,0.0,0.0,0.0,0.0,0.0,0.0,0.0,0.0,0.0,0.0,0.0,0.0,0.0,0.0,0.0,0.0,0.0,0.0,0.0,0.0,0.0,0.0,0.0,0.0,0.0,0.0,0.0,0.0,0.0,0.0,0.0,0.0,0.0,0.0,0.0,0.0,0.0,0.0,0.0,0.0,0.0,0.0,0.0,0.0,0.0,0.0,0.0,0.0,0.0,0.7095,0.7095,0.7095,0.7095,0.7095,0.7095,0.7095,0.7095,0.7095,0.7095,0.0,0.0,0.0,0.0,0.0,0.0,0.0,0.0,0.0,0.0,0.0,0.0,0.0,0.0,0.0,0.0,0.0,0.0,0.0,0.0,0.0,0.0,0.0,0.0,0.0,0.0,0.0,0.0,0.0,0.0,0.0,0.0,0.0,0.0,0.0,0.0,0.0,0.0,0.0,0.0,0.0,-0.7095,-0.7095,-0.7095,-0.7095,-0.7095,-0.7095,-0.7095,-0.7095,-0.7095,-0.7095,-0.7095,0.0,0.0,0.0,0.0,0.0,0.0,0.0,0.0,0.0,0.0,0.0,0.0,0.0,0.0,0.0,0.0,0.0,0.0,0.0,0.0,0.0,0.0,0.0,0.0,0.0,0.0,0.0,0.0,0.0,0.0,1.3955,0.0,0.0,0.0,0.0,0.0,0.0,0.0,0.0,0.0,0.0,0.0,0.0,0.0,0.0,0.0,0.0,0.0,0.0,0.0,0.0,0.0,0.0,0.7139,0.7139,0.7183,0.7183,0.7183,0.7139,0.7183,0.7183,0.7139,0.7139,0.7183,0.0,0.0,0.0,0.0,0.0,0.0,0.0,0.0,0.0,0.0,0.0,0.0,0.0,0.0,0.0,0.0,0.0,0.0,0.0,0.0,0.0,0.0,0.0,0.0,0.0,0.0,0.0,0.0,0.0,0.0,0.0,0.0,0.0,0.0,0.0,0.0,0.0,0.0,0.0,-0.7095,-0.7095,-0.7095,-0.7095,-0.7095,-0.7095,-0.7095,-0.7095,-0.7095,-0.7095,-0.7095,0.0,0.0,0.0,0.0,0.0,0.0,0.0,0.0,0.0,0.0,0.0,0.0,0.0,0.0,0.0,0.0,0.0,0.0,0.0,0.0,0.0,0.0,0.0,0.0,0.0,0.0,0.0,1.4088,1.4088,0.0,0.0,0.0,0.0,0.0,0.0,0.0,0.0,0.0,0.0,0.0,1.347,1.3124,0.0,0.0,0.0,0.0,0.0,0.0,0.0,0.0,0.0,0.0,0.0,0.0,0.8281,0.8321,0.9056,0.9444,0.944,0.944,0.944,0.9396,0.9401,0.944,0.9444,0.0,0.0,0.0,0.0,0.0,0.0,0.0,0.0,0.0,0.0,0.0,0.0,0.0,0.0,0.0,0.0,0.0,0.0,0.0,0.0,0.0,0.0,0.0,0.0,0.0,0.0,0.0,0.0,0.0,0.0,0.0,0.0,0.0,0.0,0.0,0.0,0.0,-0.5536,-0.5935,-0.665,-0.7095,-0.7095,-0.7095,-0.7095,0.0,0.0,0.0,0.0,0.0,0.0,0.0,0.0,0.0,0.0,0.0,0.0,0.0,0.0,-1.2893,-1.2893,-1.3561,-1.4088,-1.4088,0.0,0.0,0.0,0.0,0.0,0.0,0.0,0.0,0.0,0.0,0.0,0.0,0.0,0.0,1.4852,0.0,1.4817,0.0,0.0,0.0,0.0,0.0,0.0,0.0,0.0,1.4088,1.4088,1.4088,1.4088,1.4088,0.0,1.3288,1.2553,0.0,0.0,0.0,0.0,0.0,0.0,0.0,0.0,0.9497,0.9536,1.0221,1.0567,1.0567,1.0567,1.0567,1.0567,1.0567,1.0567,1.0567,1.0567,1.0265,0.0,0.0,0.0,0.0,0.0,0.0,0.0,0.0,0.0,0.0,0.0,0.0,0.0,0.0,0.0,0.0,0.0,0.0,0.0,0.0,0.0,0.0,0.0,0.0628,0.0,0.0,0.0,0.0,0.0,0.0,0.0,0.0,0.0,-0.1657,-0.3173,-0.4287,-0.4732,-0.5758,-0.6517,-0.6517,0.0,0.0,0.0,0.0,0.0,0.0,0.0,-0.7095,-0.7095,-0.7095,-0.736,-0.8149,-0.8882,-0.9396,-0.9401,0.0,0.0,-1.2151,-1.3294,-1.4088,-1.4088,-1.4088,-1.4088,-1.4088,-1.4088,-1.4088,0.0,0.0,0.0,0.0,0.0,0.0,0.0,0.0,1.5745,1.6314,0.0,1.6191,0.0,0.0,0.0,0.0,0.0,1.4088,0.0,0.0,1.4088,1.4088,1.4088,1.4088,1.4088,1.4088,1.4088,1.4046,1.3913,1.1821,0.0,0.0,0.0,0.0,0.0,0.0,1.0654,1.0654,1.074,1.074,1.074,1.074,1.074,1.0783,1.074,1.0783,1.074,1.0783,1.0697,1.0654,1.0654,0.0,0.0,0.0,0.0,0.0,0.0,0.0,0.0,0.0,0.0,0.0,0.0,0.0,0.0,0.0,0.0,0.0,0.0,0.0,0.0,0.2547,0.0,0.0,0.0,0.0,0.0,0.0,0.0,0.0,0.0,0.0,-0.1567,-0.1791,-0.2236,-0.3392,0.0,0.0,0.0,0.0,-0.7051,-0.7095,-0.7095,-0.7095,-0.7095,-0.7095,-0.7095,-0.7095,0.0,0.0,-0.7095,-0.7139,-0.7183,-0.7139,-0.8189,-0.9623,-1.1815,-1.3118,-1.3997,-1.4088,-1.4088,-1.4088,-1.4088,-1.4088,-1.4088,1.7628,0.0,0.0,0.0,0.0,1.6363,1.6568,1.6854,1.6846,1.7017,1.7293,1.6968,0.0,0.0,0.0,0.0,0.0,0.0,1.4088,1.4088,1.4088,1.4088,1.4088,1.4088,1.4088,1.4088,1.4088,1.4088,1.4039,1.3434,1.3088,1.3088,0.0,0.0,0.0,0.0,1.1809,1.1852,1.2644,1.3082,1.3082,1.3082,1.3088,1.3082,1.3082,1.3082,1.3082,1.3088,1.2687,1.1858,1.1809,0.0,0.0,0.0,0.0,0.0,0.0,0.0,0.0,0.0,0.0,0.0,0.0,0.0,0.0,0.0,0.0,0.0,0.0,0.0,0.3705,0.3303,0.3081,0.0,0.0,0.0,0.0,0.0,0.0,0.0,0.0,0.0,-0.0494,-0.1254,-0.1924,0.0,0.0,-0.4461,-0.5314,-0.5669,-0.616,-0.6959,-0.7095,0.0,0.0,-0.7095,-0.7095,-0.7095,-0.7095,-0.7095,-0.7095,-0.7095,-0.7095,-0.7095,-0.8061,-0.9366,-1.0783,-1.2035,-1.3075,-1.3864,-1.4088,-1.4088,-1.4088,-1.4088,-1.4088,1.9451,1.8779,1.7725,1.7302,1.7302,1.7302,1.7536,1.7989,1.7989,1.823,1.859,1.8149,1.7617,1.7001,1.6519,0.0,0.0,0.0,1.5144,1.4741,1.4741,1.4538,1.4124,1.4088,1.4088,1.4088,1.4088,1.4088,1.4088,1.4088,1.4088,1.4088,0.0,0.0,1.2984,1.3027,1.3027,1.3027,1.373,1.4088,1.4088,1.4088,1.4088,1.4088,1.4088,1.4088,1.4088,1.4088,1.3773,1.3069,1.3027,1.2729,0.0,0.0,0.0,0.0,0.0,0.0,0.0,0.0,0.0,0.0,0.0,0.8093,0.0,0.0,0.0,0.0,0.647,0.5802,0.5038,0.4594,0.0,0.0,0.0,0.0,0.0,0.0,0.0,0.0045,0.0,0.0,0.0,-0.0628,-0.1076,-0.1075,-0.2148,-0.3172,-0.3887,0.0,-0.5625,-0.6337,-0.6782,-0.7095,-0.7095,-0.7095,-0.7095,-0.7095,-0.7095,-0.7095,-0.7095,-0.7095,-0.7095,-0.7183,-0.7709,-0.854,-0.971,-1.0826,-1.2163,-1.3737,-1.4088,-1.4088,-1.4088,-1.4088,-1.4088,2.1249,2.1039,1.8675,1.7635,1.7577,1.7577,1.8149,1.9116,1.9116,1.9678,2.0527,1.9559,1.9085,1.8917,1.7819,0.0,1.7302,1.7302,1.6764,1.5827,1.5827,1.5296,1.4377,1.437,1.4377,1.4377,1.4334,1.4334,1.425,1.425,1.4173,1.4088,1.4088,1.4088,1.4088,1.4088,1.4088,1.4088,1.4088,1.4088,1.4088,1.4088,1.4088,1.4088,1.4088,1.4088,1.4088,1.4088,1.4088,1.4088,1.4088,1.4088,1.4088,0.0,0.0,0.0,0.0,0.0,0.0,0.0,0.0,0.0,0.0,0.0,0.0,0.0,0.0,0.0,0.7183,0.0,0.7095,0.6071,0.0,0.0,0.0,0.3215,0.2192,0.2013,0.1478,0.0269,0.0,0.0,0.0,0.0,0.0,0.0,-0.0941,-0.1701,-0.179,-0.3662,-0.5137,-0.5223,-0.6204,-0.6918,-0.6874,-0.7007,-0.7095,-0.7095,-0.7095,-0.7095,-0.7095,-0.7095,-0.7095,-0.7095,-0.7095,-0.7533,-0.8671,-0.9797,-1.1176,-1.33,-1.3955,-1.4088,-1.4088,-1.4088,-1.4088,2.1728,2.1678,2.1059,2.0438,1.9805,1.9786,1.9952,2.0206,2.0206,2.0362,2.0566,2.0333,1.9766,1.8917,1.7819,1.7302,1.7302,1.7302,1.7172,1.6935,1.6927,1.6772,1.6527,1.6527,1.6527,1.6527,1.6527,1.6116,1.5338,1.5296,1.4894,1.4124,1.4088,1.4088,1.4088,1.4088,1.4088,1.4088,1.4088,1.4088,1.4088,1.4088,1.4088,1.4088,1.4088,1.4088,1.4088,1.4088,1.4088,1.4088,1.4088,1.4088,1.4088,1.4088,0.0,0.0,0.0,0.0,0.0,0.0,0.0,0.0,0.0,0.9444,0.9744,0.0,0.7793,0.0,0.7621,0.7095,0.7095,0.6068,0.0,0.0,0.4861,0.3838,0.4465,0.3707,0.2726,0.1522,0.1389,0.1031,0.0135,0.0,0.0,0.0,0.0,-0.0763,-0.1656,-0.2237,-0.2994,-0.3927,-0.5043,-0.5805,-0.5894,-0.6561,-0.7095,-0.7095,-0.7095,-0.7095,-0.7095,-0.7095,-0.7095,-0.7095,-0.7095,-0.7577,-0.8627,-0.9148,-0.9792,-1.1219,-1.2863,-1.4088,-1.4088,-1.4088,-1.4088,2.2168,2.2148,2.1963,2.1642,2.1173,2.0947,2.0752,2.0615,2.0615,2.0615,2.0615,2.0615,2.0284,1.9678,1.9067,1.8789,1.878,1.8789,1.851,1.8069,1.8069,1.7787,1.7302,1.7302,1.7302,1.7302,1.7302,1.7009,1.6437,1.6437,1.6116,1.5511,1.5511,1.5262,1.4817,1.4328,1.4088,1.4088,1.4088,1.4088,1.4088,1.4088,1.4088,1.4088,1.4088,1.4088,1.4088,1.4088,1.4088,1.4088,1.4088,1.4088,1.4088,1.4088,1.4088,0.0,0.0,0.0,0.0,0.0,0.0,0.0,0.0,0.0,0.0,0.0,0.8492,0.8145,0.7492,0.7095,0.7095,0.6514,0.6428,0.7003,0.5933,0.522,0.5403,0.4821,0.3929,0.2726,0.2147,0.1567,0.0852,0.0359,0.0,0.0,0.0,-0.0225,-0.0897,-0.1433,-0.2057,-0.2726,-0.384,-0.4821,-0.5314,-0.5935,-0.6517,-0.7007,-0.7095,-0.7095,-0.7095,-0.7095,-0.7095,-0.7095,-0.7095,-0.7316,-0.7969,-0.8584,-0.9148,-0.9836,-1.1262,-1.2601,-1.3167,-1.3294,-1.3421,2.2588,2.2559,2.2197,2.2012,2.1934,2.1553,2.1113,2.0693,2.0693,2.0654,2.0615,2.0615,2.0615,2.0615,2.0615,2.0615,2.0615,2.0615,2.0079,1.9244,1.9204,1.8669,1.7747,1.7747,1.7738,1.7698,1.7698,1.7658,1.7496,1.7496,1.7464,1.7302,1.7302,1.6846,1.5902,1.4985,1.4461,1.4292,1.4166,1.4088,1.4088,1.4088,1.4088,1.4088,1.4088,1.4173,1.4286,1.4286,1.4286,1.4292,1.4286,1.425,1.413,1.4088,1.4088,0.0,1.4088,0.0,0.0,0.0,0.0,0.0,0.0,0.0,0.0,1.0226,0.9701,0.7492,0.7187,0.7095,0.7095,0.7095,0.7095,0.7095,0.7095,0.6694,0.5761,0.5625,0.5179,0.397,0.2904,0.2236,0.2013,0.0986,0.0,0.0,0.0,0.0,0.0,-0.0897,-0.1478,-0.1567,-0.2592,-0.3749,-0.4821,-0.527,-0.5758,-0.665,-0.7007,-0.7095,-0.7095,-0.7095,-0.7095,-0.7095,-0.7095,-0.7139,-0.7095,-0.7973,-0.8584,-0.8667,-0.9488,-1.0654,-1.198,-1.2413,-1.2717,2.2974,2.2974,2.2896,2.2652,2.2383,2.2305,2.1826,2.1073,2.1064,2.0898,2.0615,2.0615,2.0615,2.0615,2.0615,2.0615,2.0615,2.0615,2.0479,2.0284,2.0284,2.0196,2.0001,1.9991,2.0001,1.9991,1.9991,1.952,1.8678,1.8678,1.823,1.7342,1.7302,1.7212,1.7009,0.0,0.0,0.0,1.4531,1.4088,1.4088,1.4088,1.4088,1.4088,1.4088,0.0,1.5338,1.5372,1.5421,1.5379,1.5421,0.0,0.0,0.0,0.0,0.0,0.0,0.0,0.0,0.0,0.0,0.0,1.4055,1.3822,1.313,1.1612,1.0009,0.8671,0.7665,0.7095,0.7095,0.7095,0.7095,0.7095,0.7095,0.7007,0.6786,0.6786,0.6337,0.5181,0.4865,0.4332,0.3347,0.2191,0.1478,0.1433,0.0628,0.0,0.0,-0.018,-0.0359,-0.0449,-0.1433,-0.2547,-0.3748,-0.4688,-0.5223,-0.5805,-0.6561,-0.7007,-0.7051,-0.7095,-0.7095,-0.7095,-0.7095,-0.7095,-0.7095,-0.7316,-0.7533,-0.7445,-0.7661,-0.8698,-1.1638,-1.2279,-1.2638,2.3101,0.0,2.3101,2.2974,0.0,2.2779,2.2418,2.1795,2.1375,2.0977,2.0615,2.0615,2.0615,2.0615,2.0615,2.0615,2.0615,2.0615,2.0615,2.0615,2.0615,2.0615,2.0615,2.0615,2.0615,2.0615,2.0615,2.0323,1.9805,1.9805,1.9481,1.8948,1.8948,1.8669,1.8149,1.7585,1.705,1.6478,1.5959,1.5677,1.5677,1.5677,1.5677,1.5677,0.0,0.0,0.0,0.0,0.0,0.0,0.0,0.0,0.0,0.0,0.0,1.4166,1.4088,1.4088,1.4088,1.4088,1.4088,1.4088,1.4088,1.3864,1.3252,1.1606,1.0356,0.9797,0.9183,0.8575,0.8057,0.7969,0.7753,0.7183,0.7095,0.7095,0.7095,0.7095,0.6871,0.6293,0.5758,0.5137,0.4552,0.3438,0.2726,0.2637,0.1657,0.0897,0.0808,0.0359,0.0,0.0,-0.0449,-0.1344,-0.2458,-0.3172,-0.3929,-0.4463,-0.5489,-0.616,-0.6248,-0.6741,-0.7095,-0.7095,-0.7095,-0.7095,-0.7095,-0.7095,-0.7095,-0.7095,-0.7095,-0.7793,-1.0178,-1.1042,-1.1815,2.3101,2.3101,2.3101,2.3101,2.3101,2.3101,2.2857,2.2409,0.0,0.0,0.0,2.0615,2.0615,2.0615,2.0615,2.0615,2.0615,2.0615,2.0615,2.0615,2.0615,2.0615,2.0615,2.0615,2.0615,2.0615,2.0615,2.0615,2.0615,2.0615,2.0615,2.0615,2.0615,2.0157,1.9274,1.835,1.79,1.7859,1.7504,1.7302,1.7302,1.7302,1.7302,1.7302,1.7302,1.7374,1.7585,1.7617,1.7585,1.7577,1.7577,1.709,1.6067,1.5985,1.5504,1.4489,1.437,1.4292,1.413,1.4088,1.4088,1.4088,1.4088,1.3688,1.2674,1.1558,1.0907,1.0907,1.0697,1.0183,0.9274,0.9192,0.8711,0.7533,0.7404,0.736,0.7143,0.7095,0.7095,0.7007,0.6293,0.5669,0.5669,0.4685,0.3927,0.3794,0.286,0.1969,0.17,0.0718,0.0,0.0,0.0,-0.0449,-0.121,-0.179,-0.2191,-0.317,-0.4285,-0.5134,-0.5492,-0.616,-0.6827,-0.7095,-0.7095,-0.7095,-0.7095,-0.7095,-0.7095,-0.7095,-0.7139,-0.7404,-0.8408,-0.9488,-1.0654,2.3135,2.3101,2.3101,2.3101,2.3101,2.3101,2.2857,2.2451,2.157,2.0986,2.0615,2.0615,2.0615,2.0615,2.0615,2.0615,2.0615,2.0615,2.0615,0.0,2.0615,2.0615,2.0615,2.0615,2.0615,2.0615,2.0615,2.0615,2.0615,2.0615,2.0615,2.0615,2.0615,2.0527,2.0362,2.0206,2.0118,2.0079,1.827,1.7302,1.7302,1.7302,1.7302,1.7302,1.7342,1.7787,1.8709,1.8758,1.8758,1.8758,1.8749,1.827,1.7172,1.709,1.6601,1.5579,1.5455,1.5054,1.4166,1.4088,1.4088,1.4088,1.4088,1.3997,1.3822,1.2766,1.2066,1.2029,1.1257,1.0524,1.0351,1.0356,0.9879,0.8842,0.8627,0.8277,0.7312,0.7183,0.7139,0.7095,0.7007,0.683,0.665,0.5802,0.5134,0.5001,0.4105,0.2994,0.1968,0.0762,0.0,0.0,0.0,0.0,-0.0404,-0.1165,-0.1746,-0.2013,-0.3038,-0.415,-0.4956,-0.5492,-0.6027,-0.6874,-0.7051,-0.7095,-0.7095,-0.7095,-0.7095,-0.7095,-0.7095,-0.7228,-0.7489,-0.8364,-0.9492,2.4595,2.4049,2.4006,2.3671,2.3101,2.3101,2.2847,2.2471,2.1855,2.1338,2.0928,2.0713,2.0615,2.0615,2.0615,2.0615,2.0615,2.0615,2.0615,2.0615,2.0615,2.0615,2.0615,2.0615,2.0615,2.0615,2.0615,2.0615,2.0615,2.0615,2.0615,2.0615,2.0615,2.0615,2.0615,2.0615,2.0615,2.0566,1.9599,1.9107,1.9067,1.9067,1.9107,1.9076,1.9107,1.9313,1.9844,1.9874,1.9883,1.9874,1.9844,1.9353,1.831,1.823,1.7738,1.6683,1.656,1.6116,1.5019,1.4412,1.4088,1.4088,1.4088,1.4088,1.4088,1.3597,1.3294,1.3252,1.2778,1.2211,1.1601,1.1509,1.108,0.9923,0.984,0.9362,0.8321,0.8061,0.7797,0.7272,0.7095,0.7095,0.7095,0.665,0.6337,0.6248,0.5309,0.4152,0.2948,0.1745,0.0718,0.0,0.0,0.0,0.0,-0.0404,-0.0807,-0.0807,-0.1835,-0.2771,-0.353,-0.4287,-0.5489,-0.6115,-0.665,-0.7051,-0.7095,-0.7095,-0.7095,-0.7095,-0.7095,-0.7095,-0.7228,-0.7577,-0.8492,2.6016,2.521,2.5168,2.4542,2.3507,2.3464,2.3156,2.266,2.2381,2.2037,2.163,2.0919,2.0615,2.0615,2.0615,2.0615,2.0615,2.0615,2.0615,2.0615,2.0615,2.0615,2.0615,2.0615,2.0615,2.0615,2.0615,2.0615,2.0615,2.0615,2.0615,2.0615,2.0615,2.0615,2.0615,2.0615,2.0615,2.0615,2.0615,2.0615,2.0615,2.0615,2.0615,2.0615,2.0566,2.0615,2.0615,2.0615,2.0615,2.0615,2.0615,2.0196,1.9441,1.9362,1.8877,1.7819,1.7698,1.7212,1.615,1.5054,1.4454,1.4454,1.425,1.4088,1.4088,1.4088,1.4088,1.4088,1.3997,1.3646,1.2899,1.2723,1.2248,1.1166,1.095,1.0351,0.9148,0.889,0.8452,0.7356,0.7095,0.7095,0.7095,0.7095,0.7051,0.6918,0.6337,0.5356,0.4194,0.317,0.2192,0.1076,0.0404,0.0,0.0,0.0,0.0,0.0,-0.0763,-0.1523,-0.2058,-0.3528,-0.4821,-0.5267,-0.6115,-0.6738,-0.7007,-0.7095,-0.7095,-0.7095,-0.7095,-0.7095,-0.7095,-0.7139,-0.7749,2.6472,2.6348,2.6348,2.5683,2.4702,2.4617,2.4061,2.3209,2.3248,2.3282,2.2925,2.1331,2.0683,2.0615,2.0644,2.0683,2.0644,2.0605,2.0605,2.0615,2.0615,2.0615,2.0615,2.0615,2.0615,2.0615,2.0615,2.0615,2.0615,2.0615,2.0615,2.0615,2.0615,2.0615,2.0615,2.0615,2.0615,2.0615,2.0615,2.0615,2.0615,2.0615,2.0615,2.0615,2.0615,2.0615,2.0615,2.0615,2.0615,2.0615,2.0615,2.0566,2.044,2.045,1.9962,1.8917,1.8829,1.835,1.7261,1.6157,1.5538,1.5496,1.4657,1.4173,1.4166,1.413,1.4088,1.4088,1.4088,1.3997,1.3955,1.3864,1.3336,1.2334,1.2157,1.1295,0.9531,0.889,0.8452,0.7224,0.7228,0.7095,0.7139,0.7095,0.7095,0.7095,0.6918,0.6384,0.5445,0.491,0.4332,0.3126,0.1567,0.0,0.0,0.0,0.0,0.0,0.0,0.0,-0.1478,-0.2013,-0.2681,-0.4421,-0.5356,-0.5802,-0.665,-0.7095,-0.7051,-0.7095,-0.7095,-0.7095,-0.7095,-0.7095,-0.7709,2.8039,2.7441,2.7452,2.683,2.588,2.5808,2.5557,2.5093,2.4581,2.4355,2.4157,2.2906,2.2349,2.2339,2.2301,2.201,2.1441,2.1441,2.1116,2.0644,2.0615,2.0615,2.0615,2.0615,2.0615,2.0615,2.0615,2.0615,2.0615,2.0605,2.0615,2.0615,2.0615,2.0615,2.0615,2.0615,2.0615,2.0615,2.0615,2.0615,2.0615,2.0615,2.0615,2.0615,2.0615,2.0615,2.0615,2.0615,2.0615,2.0615,2.0615,2.0615,2.0615,2.0615,2.0401,1.9962,1.9323,1.8798,1.8359,1.7293,1.6642,1.6642,1.567,1.5061,1.5019,1.4496,1.4088,1.4088,1.4088,1.4088,1.4088,1.4088,1.3864,1.347,1.3336,1.2687,1.1166,1.0913,1.0265,0.8532,0.8149,0.7841,0.7272,0.7095,0.7095,0.7095,0.7095,0.683,0.6428,0.5849,0.5225,0.4599,0.3172,0.1924,0.121,0.0404,0.0,0.0,0.0,0.0,0.0,0.0,-0.2237,-0.3217,-0.3885,-0.4732,-0.5847,-0.6115,-0.6204,-0.6694,-0.7095,-0.7095,-0.7095,-0.7095,-0.7404,2.9326,2.8597,2.8227,2.7654,2.6964,2.6924,2.668,2.621,2.5667,2.5351,2.5097,2.4266,2.4072,2.4205,2.377,2.3073,2.2478,2.2403,2.2075,2.1413,2.1423,2.127,2.1011,2.0962,2.0972,2.0972,2.1011,2.1011,2.0972,2.0972,2.0867,2.0634,2.0615,2.0615,2.0615,2.0615,2.0615,2.0615,2.0615,2.0615,2.0615,2.0615,2.0615,2.0615,2.0615,2.0615,2.0615,2.0615,2.0615,2.0615,2.0615,2.0615,2.0615,2.0615,2.0615,2.0527,1.9883,1.9441,1.9441,1.839,1.7779,1.7658,1.6764,1.6108,1.5951,1.5137,1.4573,1.4573,1.4286,1.4088,1.4088,1.4088,1.4088,1.4088,1.4088,1.3603,1.2419,1.2279,1.1509,0.9749,0.9362,0.893,0.7881,0.736,0.7095,0.7095,0.7095,0.7095,0.7051,0.6384,0.5891,0.5802,0.4865,0.366,0.2458,0.1344,0.0628,0.0,0.0,0.0,0.0,0.0,-0.1612,-0.2281,-0.2771,-0.3482,-0.4685,-0.5043,-0.5761,-0.6694,-0.7095,-0.7095,-0.7095,-0.7095,-0.7095,2.9753,2.9585,2.8545,2.8136,2.8004,2.8056,2.7162,2.5966,2.6294,2.619,2.5617,2.5146,2.5441,2.6082,2.4433,2.3526,2.3452,2.3441,2.3331,2.3195,2.322,2.2813,2.2,2.1914,2.1962,2.1962,2.1924,2.1962,2.1952,2.1924,2.1479,2.0722,2.075,2.0683,2.075,2.075,2.0644,2.0828,2.0683,2.0644,2.0644,2.0644,2.0615,2.0615,2.0615,2.0615,2.0615,2.0615,2.0615,2.0615,2.0615,2.0615,2.0615,2.0615,2.0615,2.0566,2.0527,2.0489,2.0362,1.9481,1.8926,1.8789,1.7859,1.7261,1.7172,1.6273,1.5662,1.5621,1.4768,1.4208,1.4208,1.4166,1.4088,1.4088,1.4088,1.3555,1.2504,1.2498,1.1815,1.0826,1.0438,0.9836,0.8846,0.7797,0.7272,0.7139,0.7095,0.7095,0.7095,0.7007,0.6918,0.6694,0.598,0.491,0.3749,0.2236,0.1612,0.1299,0.0,0.0,0.0,-0.018,-0.0807,0.0,-0.1657,-0.237,-0.3482,-0.4596,-0.5669,-0.6473,-0.6962,-0.7051,-0.7095,-0.7095,-0.7095,2.9779,2.974,2.9365,2.9197,2.9197,2.9197,2.8619,2.7724,2.7593,2.7213,2.6684,2.6177,2.6164,2.6452,2.5756,2.5052,2.448,2.4445,2.412,2.3551,2.3478,2.3294,2.2999,2.2962,2.2951,2.2962,2.2973,2.2962,2.2962,2.2962,2.2824,2.2526,2.2462,2.2451,2.2339,2.1783,2.1783,2.2264,2.127,2.0867,2.1364,2.0934,2.0615,2.0615,2.0615,2.0615,2.0615,2.0615,2.0615,2.0615,2.0615,2.0615,2.0615,2.0615,2.0615,2.0615,2.0615,2.0615,2.0566,2.0245,2.0001,1.9962,1.8997,1.839,1.8189,1.7415,1.6723,1.6527,1.5745,1.5179,1.4977,1.4531,1.4088,1.4088,1.4088,1.3948,1.3597,1.3421,1.2991,1.1901,1.1123,1.0135,0.9318,0.854,0.7973,0.7272,0.7095,0.7095,0.7095,0.7095,0.7095,0.7051,0.6786,0.6337,0.6024,0.3349,0.1745,0.1433,0.0,0.0,0.0,0.0045,-0.0494,0.0,0.0,-0.1344,-0.2504,-0.3974,-0.5134,-0.5758,-0.6245,-0.6827,-0.7095,-0.7007,-0.7051,2.9779,2.9779,2.9779,2.9779,2.9779,2.9779,2.9365,2.8624,2.826,2.7695,2.7065,2.665,2.6487,2.6487,2.6487,2.6164,2.5511,2.5476,2.5111,2.4505,2.448,2.4289,2.4,2.3963,2.4,2.4072,2.4325,2.4325,2.4,2.3963,2.3806,2.3514,2.3478,2.3478,2.3368,2.2813,2.285,2.311,2.2199,2.1886,2.2328,2.1859,2.1538,2.1527,2.1527,2.1193,2.0644,2.0615,2.0615,2.0615,2.0615,2.0615,2.0615,2.0615,2.0615,2.0615,2.0615,2.0615,2.0615,2.0615,2.0605,2.0566,1.9962,1.952,1.9441,1.851,1.7948,1.7617,1.6846,1.6191,1.6067,1.5553,1.4866,1.4292,1.4088,1.4088,1.4088,1.4088,1.3688,1.2942,1.1901,1.0913,1.0091,0.9323,0.8584,0.7749,0.7401,0.7139,0.7095,0.7095,0.7095,0.7095,0.7095,0.7007,0.6605,0.473,0.3484,0.3129,0.1657,0.0897,0.0359,0.0269,0.0,0.0,0.0,0.0,-0.1702,-0.3218,-0.4107,-0.4732,-0.5534,-0.6204,-0.6561,-0.6871,-0.6962,2.9779,2.9779,2.9779,2.9779,2.9779,2.9779,2.9164,2.8273,2.8134,2.7532,2.6663,2.6499,2.6487,2.6487,2.6487,2.6452,2.6383,2.6349,2.6314,2.6198,2.6233,2.5804,2.504,2.4992,2.5004,2.504,2.5955,2.5873,2.5052,2.4969,2.4588,2.3781,2.3818,2.3891,2.3624,2.3635,2.3551,2.3624,2.3441,2.3379,2.3478,2.3331,2.322,2.3294,2.3294,2.2489,2.0828,2.0722,2.0683,2.0605,2.0615,2.0615,2.0615,2.0615,2.0615,2.0615,2.0615,2.0615,2.0615,2.0615,2.0615,2.0605,2.0527,2.0411,2.0245,1.9559,1.8997,1.8829,1.802,1.7293,1.7334,1.7098,1.6247,1.4573,1.4286,1.4292,1.4124,1.4088,1.4088,1.3822,1.2991,1.237,1.1815,1.0567,0.9318,0.8842,0.8017,0.736,0.736,0.7272,0.7095,0.7095,0.7095,0.7095,0.6694,0.616,0.5714,0.5045,0.3127,0.1746,0.121,0.0942,0.0359,0.0,0.0,0.0,0.0,-0.2282,-0.2815,-0.3528,-0.4508,-0.5489,-0.5935,-0.6337,-0.683,2.9779,2.9779,2.9779,2.9779,2.9779,2.9779,2.9151,2.816,2.8109,2.7482,2.6625,2.6487,2.6487,2.6487,2.6487,2.6487,2.6487,2.6487,2.6487,2.6487,2.6487,2.6349,2.606,2.6025,2.6025,2.606,2.6349,2.6349,2.6094,2.6025,2.5838,2.5616,2.5534,2.5569,2.5429,2.4933,2.4826,2.5311,2.4169,2.3818,2.4373,2.3854,2.3514,2.3478,2.3478,2.3147,2.2601,2.1924,2.126,2.0683,2.0615,2.0615,2.0605,2.0615,2.0615,2.0615,2.0615,2.0615,2.0615,2.0615,2.0615,2.0615,2.0615,2.0615,2.0615,2.0284,2.0079,2.0001,1.9116,1.847,1.835,1.7698,1.6805,1.5379,1.522,1.4817,1.4201,1.4088,1.4088,1.4082,1.3779,1.3252,1.2462,1.1343,1.0826,1.0096,0.9061,0.8364,0.8233,0.7621,0.7139,0.7095,0.7095,0.7095,0.6827,0.6694,0.647,0.5847,0.433,0.2949,0.2371,0.1433,0.0852,0.0,0.0,0.0,0.0,-0.1165,-0.179,-0.2369,-0.3306,-0.4241,-0.5179,-0.5669,-0.6024,2.9779,2.9779,2.9779,2.9779,2.9779,2.9779,2.9151,2.821,2.8109,2.7482,2.6637,2.6487,2.6487,2.6487,2.6487,2.6487,2.6487,2.6487,2.6487,2.6487,2.6487,2.6487,2.6487,2.6487,2.6487,2.6487,2.6487,2.6487,2.6487,2.6487,2.6487,2.6487,2.6487,2.6452,2.6452,2.5921,2.5921,2.6233,2.5288,2.4921,2.5288,2.4957,2.4612,2.4624,2.4624,2.4397,2.4072,2.3415,2.2664,2.1821,2.1385,2.1116,2.1116,2.0828,2.0615,2.0615,2.0615,2.0615,2.0615,2.0615,2.0615,2.0615,2.0615,2.0615,2.0615,2.0615,2.0615,2.0489,2.0001,1.9599,1.9481,1.9036,1.806,1.705,1.6108,1.5296,1.437,1.4088,1.4088,1.4088,1.4039,1.3688,1.3203,1.2419,1.2109,1.1209,1.0265,0.9235,0.8978,0.8281,0.7797,0.736,0.7095,0.7095,0.7095,0.7095,0.7095,0.6381,0.5401,0.4465,0.3708,0.2282,0.0,0.0,0.0,0.0,0.0,0.0,-0.1076,-0.1657,0.0,-0.286,-0.3662,-0.4374,-0.4863,2.9779,2.9779,2.9779,2.9779,2.9779,2.9779,2.9151,2.8197,2.8109,2.7494,2.6663,2.6487,2.6487,2.6487,2.6487,2.6487,2.6487,2.6487,2.6487,2.6487,2.6487,2.6487,2.6487,2.6487,2.6487,2.6487,2.6487,2.6487,2.6487,2.6487,2.6487,2.6487,2.6487,2.6487,2.6452,2.6452,2.6418,2.6418,2.6383,2.6349,2.6396,2.6383,2.6349,2.6302,2.6233,2.5861,2.5182,2.4957,2.4492,2.3526,2.2515,2.2103,2.1914,2.1183,2.0789,2.0789,2.0683,2.0615,2.0615,2.0615,2.0615,2.0615,2.0615,2.0615,2.0615,2.0615,2.0615,2.0615,2.0489,2.0489,2.045,2.0362,1.9835,1.8908,1.7082,1.5587,1.4454,1.4292,1.4286,1.4166,1.4088,1.4088,1.3913,1.3075,1.2632,1.2242,1.1423,1.0438,0.9666,0.9148,0.8364,0.7885,0.7445,0.7095,0.7095,0.7095,0.7095,0.6827,0.6113,0.5489,0.4643,0.3217,0.1836,0.0,0.0,0.0,0.0,0.0,0.0,0.0,0.0,0.0,-0.2236,-0.3127,-0.3838,2.9779,2.9779,2.9779,2.9779,2.9779,2.9779,2.9151,2.8185,2.8109,2.7494,2.6663,2.6487,2.6487,2.6487,2.6487,2.6487,2.6487,2.6487,2.6487,2.6487,2.6487,2.6487,2.6487,2.6487,2.6487,2.6487,2.6487,2.6487,2.6487,2.6487,2.6487,2.6487,2.6487,2.6487,2.6487,2.6487,2.6487,2.6487,2.6487,2.6487,2.6487,2.6487,2.6487,2.6487,2.6487,2.6349,2.6094,2.6094,2.5252,2.3672,2.3305,2.311,2.2999,2.2188,2.1631,2.1555,2.1049,2.0644,2.0683,2.0644,2.0644,2.0615,2.0605,2.0615,2.0615,2.0615,2.0615,2.0615,2.0615,2.0615,2.0615,2.0615,2.0089,1.9076,1.7819,1.6519,1.5538,1.5255,1.5012,1.4286,1.4166,1.4088,1.3997,1.3822,1.3512,1.3336,1.2638,1.1681,1.0913,0.9927,0.9144,0.8452,0.7925,0.7401,0.7095,0.7095,0.7095,0.7095,0.6694,0.6245,0.5265,0.4063,0.2816,0.0,0.0,0.0,0.0,0.0,0.0,0.0,0.0,0.0,0.0,-0.2281,-0.2858,2.9779,2.9779,2.9779,2.9779,2.9779,2.9779,2.9139,2.826,2.8097,2.7494,2.6663,2.6487,2.6487,2.6487,2.6487,2.6487,2.6487,2.6487,2.6487,2.6487,2.6487,2.6487,2.6487,2.6487,2.6487,2.6487,2.6487,2.6487,2.6487,2.6487,2.6487,2.6487,2.6487,2.6487,2.6487,2.6487,2.6487,2.6487,2.6487,2.6487,2.6487,2.6487,2.6487,2.6487,2.6487,2.6487,2.6487,2.6487,2.5896,2.4909,2.4397,2.4108,2.4036,2.3195,2.2664,2.259,2.2086,2.1821,2.1707,2.1451,2.1183,2.1078,2.0895,2.0605,2.0615,2.0615,2.0615,2.0615,2.0615,2.0615,2.0615,2.0615,2.0284,1.9766,1.9067,1.806,1.6552,1.5936,1.5462,1.4894,1.4412,1.4088,1.4088,1.413,1.4088,1.3955,1.3519,1.2814,1.2114,1.0956,1.0009,0.9444,0.8711,0.8189,0.7665,0.7533,0.7183,0.7139,0.7007,0.6647,0.5888,0.4819,0.3929,0.2906,0.2281,0.1656,0.1121,0.0,0.0,0.0,0.0,0.0,0.0,0.0,0.0,2.9779,2.9779,2.9779,2.9779,2.9779,2.9767,2.9214,2.8323,2.8134,2.7544,2.6776,2.6537,2.6487,2.6487,2.6487,2.6487,2.6487,2.6487,2.6487,2.6487,2.6487,2.6487,2.6487,2.6487,2.6487,2.6487,2.6487,2.6487,2.6487,2.6487,2.6487,2.6487,2.6487,2.6487,2.6487,2.6487,2.6487,2.6487,2.6487,2.6487,2.6487,2.6487,2.6487,2.6487,2.6487,2.6487,2.6487,2.6487,2.6383,2.6452,2.5629,2.5229,2.5028,2.4217,2.3745,2.3551,2.3379,2.322,2.3294,2.2515,2.2151,2.2027,2.1298,2.075,2.0818,2.075,2.0615,2.0615,2.0615,2.0615,2.0615,2.0615,2.0566,2.0362,2.045,1.9559,1.802,1.6675,1.6018,1.582,1.4936,1.437,1.425,1.4173,1.4088,1.4088,1.3822,1.3512,1.2893,1.2029,1.1257,1.0778,0.9966,0.9065,0.8496,0.8017,0.7533,0.7183,0.7139,0.6827,0.6381,0.5534,0.491,0.4241,0.3618,0.2904,0.2147,0.0,0.0,0.0,0.0,0.0,0.0,0.0,0.0,2.9779,2.9779,2.9779,2.9779,2.9779,2.9767,2.939,2.8712,2.8273,2.7708,2.714,2.6688,2.6499,2.6487,2.6487,2.6487,2.6487,2.6487,2.6487,2.6487,2.6487,2.6487,2.6487,2.6487,2.6487,2.6487,2.6487,2.6487,2.6487,2.6487,2.6487,2.6487,2.6487,2.6487,2.6487,2.6487,2.6487,2.6487,2.6487,2.6487,2.6487,2.6487,2.6487,2.6487,2.6487,2.6487,2.6487,2.6487,2.6487,2.6418,2.628,2.6047,2.5873,2.5182,2.4743,2.4552,2.3963,2.3588,2.3478,2.3404,2.3172,2.3073,2.2301,2.1707,2.1631,2.1011,2.0712,2.0605,2.0615,2.0615,2.0615,2.0615,2.0615,2.0615,2.0576,2.0411,1.9795,1.8829,1.7819,1.6968,1.6034,1.5345,1.5304,1.4538,1.4334,1.4166,1.4039,1.3955,1.3464,1.2851,1.2462,1.1943,1.1037,1.0139,0.9618,0.9056,0.8492,0.7925,0.7665,0.7445,0.6956,0.6381,0.5847,0.5401,0.5001,0.4198,0.3306,0.0,0.0,0.0,0.0763,0.0,0.0,0.0,0.0,2.9779,2.9779,2.9779,2.9779,2.9779,2.9779,2.9465,2.89,2.8348,2.7795,2.7256,2.6738,2.6499,2.6487,2.6487,2.6487,2.6487,2.6487,2.6487,2.6487,2.6487,2.6487,2.6487,2.6487,2.6487,2.6487,2.6487,2.6487,2.6487,2.6487,2.6487,2.6487,2.6487,2.6487,2.6487,2.6487,2.6487,2.6487,2.6487,2.6487,2.6487,2.6487,2.6487,2.6487,2.6487,2.6487,2.6487,2.6487,2.6487,2.6487,2.6487,2.6487,2.6452,2.6013,2.5734,2.5581,2.5288,2.4921,2.4921,2.448,2.4192,2.4192,2.3294,2.285,2.2478,2.1821,2.1336,2.1155,2.0895,2.0615,2.0615,2.0615,2.0615,2.0615,2.0615,2.0615,2.045,1.9648,1.8838,1.8029,1.7131,1.6273,1.567,1.5228,1.4573,1.4412,1.4166,1.4082,1.4039,1.3512,1.3421,1.2899,1.2029,1.1252,1.0735,1.0221,0.9662,0.91,0.8667,0.8408,0.8013,0.7441,0.683,0.6337,0.5758,0.5223,0.4332,0.335,0.2637,0.2415,0.1969,0.1254,0.0,0.0,0.0,2.9998,3.0011,2.9869,2.9779,2.9779,2.9779,2.9528,2.9038,2.8508,2.817,2.7614,2.7087,2.7129,2.6939,2.6782,2.6645,2.6487,2.6521,2.6533,2.6816,2.6555,2.6658,2.6692,2.6624,2.6487,2.6487,2.6487,2.6487,2.6487,2.6487,2.6487,2.6487,2.6487,2.6487,2.6487,2.6487,2.6487,2.6487,2.6487,2.6487,2.6487,2.6487,2.6487,2.6487,2.6487,2.6487,2.6487,2.6487,2.6487,2.6487,2.6487,2.6487,2.6487,2.6487,2.6487,2.6452,2.628,2.6164,2.6025,2.5616,2.5229,2.5182,2.4301,2.3781,2.3526,2.2888,2.2366,2.1924,2.1603,2.0934,2.0828,2.0683,2.0644,2.0615,2.0615,2.0615,2.045,1.9766,1.9402,1.9125,1.831,1.7415,1.6764,1.6239,1.5387,1.465,1.4454,1.425,1.4208,1.4082,1.3864,1.3779,1.2991,1.2157,1.1595,1.0778,1.0308,1.0139,0.9666,0.9279,0.8934,0.8277,0.7573,0.6959,0.6381,0.5891,0.5401,0.4596,0.4018,0.3749,0.3126,0.2324,0.1612,0.0987,0.0,3.097,3.0908,3.0101,2.9779,2.9779,2.9779,2.9755,2.9631,2.9267,2.9144,2.8974,2.8698,2.846,2.833,2.7769,2.7196,2.6803,2.6816,2.7007,2.7297,2.704,2.6952,2.7364,2.6918,2.6645,2.6487,2.6487,2.6487,2.6487,2.6487,2.6487,2.6487,2.6487,2.6487,2.6487,2.6487,2.6487,2.6487,2.6487,2.6487,2.6487,2.6487,2.6487,2.6487,2.6487,2.6487,2.6487,2.6487,2.6487,2.6487,2.6487,2.6487,2.6487,2.6487,2.6487,2.6487,2.6487,2.6487,2.6418,2.6349,2.6233,2.6025,2.5323,2.4814,2.4528,2.3843,2.3294,2.2888,2.2376,2.1773,2.1735,2.1193,2.0712,2.0644,2.0605,2.0605,2.0527,2.0362,2.0157,2.001,1.9283,1.8519,1.7868,1.7253,1.6519,1.5703,1.522,1.4817,1.4489,1.4292,1.4039,1.3997,1.3906,1.3112,1.2328,1.1423,1.0783,1.0956,1.0572,1.0053,0.9623,0.9017,0.836,0.7661,0.7136,0.6694,0.6157,0.5622,0.5356,0.4999,0.4194,0.3303,0.286,0.2415,0.1791,3.1938,3.1901,3.1402,3.0945,3.0558,3.052,3.0314,2.9941,2.9611,2.9488,2.9464,2.9191,2.8989,2.8876,2.8634,2.8117,2.7855,2.7802,2.8019,2.8247,2.8019,2.7953,2.8247,2.7517,2.755,2.7417,2.7027,2.6555,2.6487,2.6487,2.6487,2.6487,2.6487,2.6487,2.6487,2.6487,2.6487,2.6487,2.6487,2.6487,2.6487,2.6487,2.6487,2.6487,2.6487,2.6487,2.6487,2.6487,2.6487,2.6487,2.6487,2.6487,2.6487,2.6487,2.6487,2.6487,2.6487,2.6487,2.6487,2.6487,2.6452,2.6452,2.5978,2.5804,2.5546,2.4909,2.4145,2.3551,2.3257,2.2776,2.2739,2.1897,2.1413,2.1221,2.0934,2.0683,2.0605,2.0605,2.0615,2.0615,2.0089,1.9441,1.8847,1.823,1.7609,1.6879,1.615,1.5545,1.5019,1.4573,1.4328,1.4088,1.4082,1.3773,1.3112,1.251,1.1821,1.1863,1.1649,1.1085,1.0611,1.0135,0.9274,0.8408,0.7929,0.7573,0.6962,0.6381,0.6293,0.6115,0.5312,0.4552,0.4241,0.3796,0.3083,3.2876,3.2855,3.2664,3.2177,3.1536,3.1486,3.1106,3.0485,3.0159,3.0079,2.9989,2.975,2.9597,2.9473,2.9348,2.916,2.902,2.8925,2.9002,2.916,2.8939,2.9002,2.9002,2.8556,2.8233,2.8441,2.7855,2.6905,2.6769,2.6577,2.6487,2.6487,2.6487,2.6487,2.6487,2.6487,2.6487,2.6487,2.6487,2.6487,2.6487,2.6487,2.6487,2.6487,2.6487,2.6487,2.6487,2.6487,2.6487,2.6487,2.6487,2.6487,2.6487,2.6487,2.6487,2.6487,2.6487,2.6487,2.6487,2.6487,2.6487,2.6487,2.6487,2.6452,2.6314,2.5687,2.5004,2.4253,2.3854,2.3818,2.3672,2.2888,2.2403,2.2113,2.1527,2.0905,2.0905,2.0828,2.0605,2.0615,2.0615,2.0284,1.9608,1.9402,1.8829,1.8101,1.7326,1.6715,1.6116,1.5095,1.4692,1.425,1.4088,1.4088,1.3864,1.3779,1.33,1.3173,1.2863,1.2382,1.1858,1.1423,1.0438,0.9449,0.8925,0.8532,0.7834,0.7139,0.683,0.6517,0.6115,0.5802,0.5534,0.491,0.4154,3.3842,3.3774,3.2961,3.2536,3.2451,3.2401,3.2036,3.144,3.1522,3.1415,3.0888,3.1085,3.1058,3.0925,3.0359,2.9721,2.9303,2.924,2.9597,2.9995,2.9566,2.9642,2.9905,2.924,2.9052,2.9192,2.8812,2.8266,2.7736,2.7061,2.6658,2.6726,2.6782,2.6589,2.685,2.6748,2.6487,2.6521,2.6521,2.6555,2.6555,2.6589,2.6555,2.6487,2.6487,2.6487,2.6487,2.6487,2.6487,2.6487,2.6487,2.6487,2.6487,2.6487,2.6487,2.6487,2.6487,2.6487,2.6487,2.6487,2.6487,2.6487,2.6487,2.6487,2.6418,2.6383,2.606,2.6198,2.5394,2.4862,2.466,2.3879,2.3467,2.2999,2.2489,2.201,2.1821,2.1603,2.1308,2.0895,2.0972,2.075,2.0284,2.0245,2.005,1.9274,1.855,1.79,1.7082,1.5992,1.5137,1.4734,1.4166,1.4088,1.4088,1.4088,1.4088,1.4088,1.3779,1.3379,1.2899,1.2334,1.1638,1.0778,1.0173,0.9353,0.8444,0.7793,0.7356,0.6918,0.6605,0.6694,0.6871,0.6113,0.5179,3.4839,3.4791,3.4409,3.3891,3.3372,3.3041,3.2498,3.1943,3.1611,3.1449,3.1366,3.1441,3.1496,3.1409,3.1087,3.0807,3.0464,3.0329,3.0584,3.0866,3.0584,3.0584,3.0718,3.0208,2.9889,3.0042,2.958,2.9178,2.8748,2.8363,2.792,2.7868,2.7901,2.7986,2.767,2.7397,2.7229,2.7183,2.7183,2.7183,2.7149,2.7162,2.6973,2.6555,2.6555,2.6555,2.6521,2.6487,2.6487,2.6487,2.6487,2.6487,2.6487,2.6487,2.6487,2.6487,2.6487,2.6487,2.6487,2.6487,2.6487,2.6487,2.6487,2.6487,2.6487,2.6487,2.6487,2.6452,2.6129,2.5838,2.5629,2.4921,2.4552,2.4084,2.3441,2.311,2.2813,2.2601,2.2301,2.1821,2.1336,2.1116,2.0828,2.0566,2.0401,1.9962,1.9274,1.8669,1.7698,1.656,1.5827,1.5262,1.4615,1.4088,1.4088,1.4088,1.4088,1.4088,1.4088,1.373,1.3639,1.3118,1.2467,1.2029,1.1552,1.0519,0.9222,0.8532,0.8189,0.7665,0.7095,0.7183,0.7228,0.7007,0.6115,3.54,3.5265,3.5429,3.4963,3.4103,3.362,3.2966,3.215,3.17,3.1513,3.1485,3.1496,3.1496,3.1496,3.1467,3.138,3.1438,3.1496,3.1496,3.1496,3.1496,3.1438,3.1248,3.0881,3.0866,3.1496,3.0389,3.0072,3.0194,2.9919,2.9411,2.9034,2.8748,2.8844,2.878,2.8395,2.8051,2.8051,2.8019,2.8019,2.8019,2.8019,2.7703,2.7351,2.7095,2.7027,2.685,2.7129,2.7196,2.6487,2.6769,2.6803,2.6589,2.6487,2.6487,2.6487,2.6487,2.6487,2.6487,2.6487,2.6487,2.6487,2.6487,2.6487,2.6487,2.6487,2.6487,2.6487,2.6452,2.6418,2.6336,2.5721,2.5511,2.5063,2.4469,2.4145,2.3818,2.3478,2.3073,2.2601,2.2075,2.1555,2.1221,2.0789,2.0557,2.0479,2.0001,1.9362,1.843,1.7334,1.6805,1.6239,1.5345,1.4776,1.465,1.4531,1.437,1.4166,1.4208,1.4039,1.3906,1.3822,1.3428,1.3075,1.2681,1.1986,1.0864,0.9918,0.8973,0.8408,0.7885,0.7445,0.7316,0.7183,0.6962,3.513,3.4638,3.522,3.5068,3.4375,3.4424,3.36,3.2451,3.2378,3.1931,3.1526,3.1496,3.1496,3.1496,3.1496,3.1496,3.1496,3.1496,3.1496,3.1496,3.1496,3.1496,3.1409,3.138,3.1336,3.1467,3.0984,3.1087,3.1322,3.1058,3.0208,2.9254,2.9442,2.916,2.9097,2.9129,2.8925,2.8907,2.8907,2.8907,2.8907,2.8907,2.8812,2.8748,2.8684,2.8473,2.7736,2.8214,2.8084,2.6905,2.7317,2.7371,2.7061,2.6939,2.6939,2.6939,2.6939,2.6939,2.6905,2.6658,2.6487,2.6487,2.6487,2.6487,2.6487,2.6487,2.6487,2.6487,2.6487,2.6487,2.6487,2.6383,2.6164,2.5873,2.5394,2.5111,2.4696,2.4217,2.3806,2.3342,2.2936,2.2553,2.1811,2.1413,2.075,2.0595,2.0489,1.9883,1.9362,1.847,1.798,1.7334,1.6273,1.5703,1.5538,1.5338,1.5061,1.4741,1.4573,1.4334,1.4088,1.4004,1.3955,1.3864,1.3428,1.2942,1.2504,1.1606,1.0572,0.941,0.8584,0.8017,0.7448,0.7139,0.7095,3.4128,3.3934,3.4158,3.4113,3.3844,3.344,3.2976,3.2467,3.2064,3.1765,3.1496,3.1496,3.1496,3.1496,3.1496,3.1496,3.1496,3.1496,3.1496,3.1496,3.1496,3.1496,3.1496,3.1496,3.1496,3.1496,3.1496,3.1496,3.1467,3.1496,3.1278,3.0658,3.0404,3.0554,3.0464,2.9995,2.9827,2.9797,2.9797,2.9797,2.9782,2.9766,2.9549,2.9034,2.8989,2.8876,2.8588,2.8798,2.8524,2.8279,2.833,2.8168,2.7953,2.7887,2.7887,2.7887,2.7868,2.7901,2.7637,2.7129,2.6521,2.6487,2.6487,2.6487,2.6487,2.6487,2.6487,2.6487,2.6487,2.6487,2.6487,2.6487,2.6418,2.6383,2.6198,2.5921,2.5581,2.5099,2.4767,2.4409,2.4108,2.3781,2.2925,2.2113,2.1375,2.0712,2.0644,2.045,1.9923,1.9481,1.8957,1.839,1.7415,1.6805,1.6642,1.6239,1.576,1.5428,1.5054,1.4817,1.4538,1.413,1.4088,1.4088,1.4088,1.3646,1.3252,1.3039,1.2089,1.0572,0.9318,0.8321,0.7797,0.7272,0.7183,3.3395,3.3215,3.32,3.32,3.3125,3.2706,3.2392,3.2123,3.172,3.1496,3.1496,3.1496,3.1496,3.1496,3.1496,3.1496,3.1496,3.1496,3.1496,3.1496,3.1496,3.1496,3.1496,3.1496,3.1496,3.1496,3.1496,3.1496,3.1496,3.1496,3.1409,3.138,3.1496,3.1409,3.1278,3.0999,3.0658,3.0658,3.0658,3.0658,3.0644,3.0614,3.0524,2.9919,2.9919,2.9673,2.9628,2.969,2.9473,2.9192,2.9129,2.9192,2.9097,2.8989,2.8989,2.8989,2.902,2.902,2.8607,2.7822,2.6782,2.6555,2.6487,2.6487,2.6487,2.6487,2.6487,2.6487,2.6487,2.6487,2.6487,2.6487,2.6487,2.6418,2.6418,2.6233,2.6233,2.5931,2.5756,2.5476,2.5075,2.4492,2.3781,2.2776,2.1669,2.0972,2.0634,2.0566,2.0401,2.0001,1.9717,1.9195,1.855,1.8101,1.7787,1.718,1.6609,1.6445,1.6034,1.5545,1.5179,1.4783,1.425,1.4088,1.4088,1.4088,1.3913,1.3568,1.2644,1.1472,1.0351,0.9231,0.8452,0.7969,0.7489,3.308,3.2527,3.2542,3.2497,3.2527,3.2482,3.2153,3.166,3.154,3.1496,3.1496,3.1496,3.1496,3.1496,3.1496,3.1496,3.1496,3.1496,3.1496,3.1496,3.1496,3.1496,3.1496,3.1496,3.1496,3.1496,3.1496,3.1496,3.1496,3.1496,3.1496,3.1496,3.1496,3.1496,3.1496,3.1467,3.1438,3.1453,3.138,3.1351,3.1307,3.1278,3.1146,3.1087,3.1029,3.0718,3.048,3.0703,3.0419,2.9766,3.0011,2.995,2.9518,2.9411,2.9348,2.9317,2.9254,2.916,2.8957,2.8149,2.7517,2.685,2.6769,2.6645,2.6555,2.6487,2.6487,2.6487,2.6487,2.6487,2.6487,2.6487,2.6487,2.6487,2.6487,2.6487,2.6487,2.6487,2.6198,2.606,2.5511,2.4898,2.4264,2.3441,2.2113,2.126,2.0779,2.0595,2.0595,2.045,2.0167,1.9923,1.9392,1.9234,1.8789,1.8029,1.7504,1.7334,1.709,1.6642,1.615,1.5786,1.5186,1.4454,1.4328,1.4531,1.4328,1.4046,1.3209,1.2382,1.1343,1.0308,0.9449,0.8755,0.8404,3.2049,3.1824,3.1839,3.1839,3.1839,3.1824,3.169,3.1525,3.1496,3.1496,3.1496,3.1496,3.1496,3.1496,3.1496,3.1496,3.1496,3.1496,3.1496,3.1496,3.1496,3.1496,3.1496,3.1496,3.1496,3.1496,3.1496,3.1496,3.1496,3.1496,3.1496,3.1496,3.1496,3.1496,3.1496,3.1496,3.1496,3.1496,3.1467,3.1496,3.1496,3.1496,3.1496,3.1496,3.1496,3.1307,3.1029,3.1394,3.1058,3.0524,3.0925,3.0763,3.0524,3.048,3.0539,3.0584,3.0584,3.0359,3.0042,2.9442,2.8748,2.7887,2.7284,2.7095,2.6658,2.6521,2.6487,2.6555,2.6611,2.6611,2.6487,2.6487,2.6487,2.6487,2.6487,2.6487,2.6487,2.6487,2.6383,2.6383,2.6025,2.5476,2.4886,2.4373,2.3195,2.2188,2.1707,2.0972,2.0779,2.0644,2.045,2.044,2.0196,2.0118,1.9795,1.9116,1.863,1.847,1.823,1.79,1.7407,1.6887,1.6191,1.5504,1.522,1.4977,1.4615,1.4292,1.3997,1.33,1.2339,1.1343,1.0394,0.9879,0.9579,3.1496,3.1496,3.1496,3.1496,3.1496,3.1496,3.1496,3.1496,3.1496,3.1496,3.1496,3.1496,3.1496,3.1496,3.1496,3.1496,3.1496,3.1496,3.1496,3.1496,3.1496,3.1496,3.1496,3.1496,3.1496,3.1496,3.1496,3.1496,3.1496,3.1496,3.1496,3.1496,3.1496,3.1496,3.1496,3.1496,3.1496,3.1496,3.1496,3.1496,3.1496,3.1496,3.1496,3.1496,3.1496,3.1467,3.1467,3.1496,3.1496,3.1496,3.1496,3.1496,3.1496,3.1496,3.1496,3.1496,3.1438,3.1175,3.0822,3.0673,2.9889,2.8862,2.8395,2.792,2.7484,2.7571,2.7517,2.7451,2.7095,2.696,2.6939,2.6871,2.6555,2.6555,2.6521,2.6521,2.6487,2.6487,2.6487,2.6487,2.6418,2.5943,2.5581,2.5075,2.4373,2.3526,2.2713,2.1935,2.1155,2.0972,2.0867,2.0867,2.0712,2.0508,2.044,2.0245,1.9844,1.9608,1.9283,1.8988,1.847,1.79,1.7212,1.656,1.6322,1.5835,1.4985,1.4489,1.4201,1.3906,1.3428,1.2425,1.1423,1.1042,1.0788,3.1496,3.1496,3.1496,3.1496,3.1496,3.1496,3.1496,3.1496,3.1496,3.1496,3.1496,3.1496,3.1496,3.1496,3.1496,3.1496,3.1496,3.1496,3.1496,3.1496,3.1496,3.1496,3.1496,3.1496,3.1496,3.1496,3.1496,3.1496,3.1496,3.1496,3.1496,3.1496,3.1496,3.1496,3.1496,3.1496,3.1496,3.1496,3.1496,3.1496,3.1496,3.1496,3.1496,3.1496,3.1496,3.1496,3.1496,3.1496,3.1496,3.1496,3.1496,3.1496,3.1496,3.1496,3.1496,3.1496,3.1496,3.1438,3.1365,3.1307,3.1043,3.0103,2.958,2.9192,2.8766,2.8524,2.8427,2.8312,2.8051,2.7855,2.7723,2.7183,2.6714,2.6645,2.6555,2.6521,2.6487,2.6487,2.6487,2.6487,2.6487,2.6267,2.6129,2.5734,2.5264,2.4814,2.4,2.3305,2.2526,2.1642,2.1527,2.1385,2.1193,2.0818,2.0789,2.0789,2.0489,2.005,2.0167,1.9923,1.9402,1.8917,1.8341,1.7819,1.7423,1.669,1.5545,1.4817,1.437,1.4068,1.3815,1.347,1.2467,1.2376,1.2077,3.1496,3.1496,3.1496,3.1496,3.1496,3.1496,3.1496,3.1496,3.1496,3.1496,3.1496,3.1496,3.1496,3.1496,3.1496,3.1496,3.1496,3.1496,3.1496,3.1496,3.1496,3.1496,3.1496,3.1496,3.1496,3.1496,3.1496,3.1496,3.1496,3.1496,3.1496,3.1496,3.1496,3.1496,3.1496,3.1496,3.1496,3.1496,3.1496,3.1496,3.1496,3.1496,3.1496,3.1496,3.1496,3.1496,3.1496,3.1496,3.1496,3.1496,3.1496,3.1496,3.1496,3.1496,3.1496,3.1496,3.1496,3.1496,3.1496,3.1496,3.1336,3.1146,3.0777,3.0011,2.9473,2.9146,2.9178,2.916,2.8971,2.8716,2.8427,2.7953,2.7504,2.7317,2.7162,2.6973,2.6973,2.696,2.6939,2.6679,2.6679,2.6487,2.6383,2.6314,2.5873,2.5734,2.5335,2.4588,2.3781,2.2861,2.2264,2.2124,2.1859,2.1593,2.1221,2.1155,2.0828,2.0527,2.0566,2.0566,2.0206,1.9766,1.9432,1.8868,1.8189,1.709,1.582,1.5338,1.5144,1.4377,1.4039,1.3864,1.3646,1.3421,1.3118,3.1768,3.1496,3.1496,3.1496,3.1496,3.1496,3.1496,3.1496,3.1496,3.1496,3.1496,3.1496,3.1496,3.1496,3.1496,3.1496,3.1496,3.1496,3.1496,3.1496,3.1582,3.1496,3.1496,3.1524,3.1496,3.1496,3.1496,3.1496,3.1553,3.1524,3.1496,3.1496,3.1496,3.1496,3.1496,3.1496,3.1496,3.1496,3.1496,3.1496,3.1496,3.1496,3.1496,3.1496,3.1496,3.1496,3.1496,3.1496,3.1496,3.1496,3.1496,3.1496,3.1496,3.1496,3.1496,3.1496,3.1496,3.1496,3.1496,3.1496,3.1496,3.1496,3.1496,3.0999,3.051,3.0224,3.0208,3.0147,2.9797,2.9442,2.916,2.8812,2.8524,2.8201,2.7887,2.7584,2.755,2.7537,2.7317,2.704,2.6816,2.6589,2.6487,2.6487,2.6452,2.6233,2.606,2.5756,2.4838,2.3854,2.3257,2.2962,2.2702,2.2451,2.2075,2.1669,2.1231,2.0905,2.0615,2.0576,2.0615,2.045,2.004,1.9441,1.8789,1.7811,1.696,1.6478,1.6116,1.5311,1.4657,1.4531,1.4279,1.3864,1.3555,3.2299,3.171,3.1611,3.1625,3.1582,3.164,3.1682,3.1653,3.1781,3.1611,3.1553,3.1496,3.1496,3.1524,3.164,3.171,3.1838,3.1879,3.2048,3.1682,3.1964,3.1992,3.1936,3.164,3.1796,3.1668,3.1697,3.1894,3.1796,3.1908,3.202,3.1653,3.1668,3.1754,3.1768,3.1553,3.1496,3.1496,3.1496,3.1496,3.1496,3.1496,3.1496,3.1496,3.1496,3.1496,3.1496,3.1496,3.1496,3.1496,3.1496,3.1496,3.1496,3.1496,3.1496,3.1496,3.1496,3.1496,3.1496,3.1496,3.1496,3.1496,3.1496,3.138,3.1087,3.0955,3.0925,3.0866,3.0539,3.0389,3.0147,2.9597,2.9223,2.8971,2.8684,2.8441,2.8298,2.8298,2.8149,2.7769,2.7263,2.704,2.6816,2.685,2.6487,2.6452,2.6418,2.6314,2.5873,2.4838,2.4433,2.4,2.3708,2.3441,2.301,2.2526,2.1745,2.1308,2.0972,2.0605,2.0644,2.0605,2.0615,2.004,1.952,1.9155,1.8501,1.7859,1.709,1.6232,1.567,1.5345,1.5026,1.4741,1.4159,3.3261,3.3066,3.2559,3.2327,3.2355,3.2342,3.2625,3.3077,3.3103,3.2489,3.1653,3.1524,3.1582,3.171,3.216,3.2312,3.2394,3.2637,3.3024,3.2971,3.2944,3.2783,3.2891,3.2477,3.2367,3.2327,3.241,3.2559,3.2772,3.2944,3.3024,3.2971,3.2652,3.2327,3.2299,3.1979,3.1625,3.1752,3.164,3.1682,3.1739,3.1582,3.1496,3.1496,3.1496,3.1553,3.1553,3.1553,3.1524,3.1496,3.1496,3.1496,3.1496,3.1524,3.1524,3.1496,3.1625,3.1611,3.1582,3.1553,3.1496,3.1496,3.1496,3.1496,3.1467,3.1496,3.1467,3.1409,3.1336,3.1219,3.0999,3.0419,2.9936,2.9735,2.9549,2.9317,2.9115,2.9034,2.8971,2.8473,2.7901,2.755,2.733,2.7007,2.6624,2.6487,2.6487,2.6452,2.6418,2.5826,2.5721,2.5311,2.485,2.4516,2.4011,2.3452,2.275,2.2151,2.1821,2.1336,2.0789,2.0644,2.0615,2.0566,2.0284,1.9835,1.9392,1.8908,1.8141,1.7245,1.6846,1.6568,1.6445,1.6206,1.5311,3.3862,3.3572,3.3224,3.3024,3.3039,3.3039,3.3261,3.3556,3.3608,3.3166,3.2501,3.2434,3.2407,3.2434,3.2879,3.3039,3.3093,3.3391,3.3443,3.3531,3.371,3.3531,3.3391,3.3277,3.3119,3.3039,3.3066,3.3261,3.3659,3.3556,3.3521,3.3582,3.3198,3.3029,3.2949,3.2394,3.2132,3.2434,3.2132,3.2132,3.216,3.1951,3.1582,3.1496,3.1524,3.1668,3.1966,3.2035,3.2216,3.2351,3.2528,3.2228,3.2284,3.2394,3.2461,3.2394,3.2256,3.1979,3.1923,3.1739,3.1582,3.1553,3.1496,3.1496,3.1496,3.1496,3.1496,3.1438,3.1438,3.1351,3.1351,3.0896,3.0822,3.0673,3.0614,3.0494,3.0208,2.9981,2.9827,2.9518,2.8844,2.8084,2.7802,2.7451,2.704,2.6499,2.6499,2.6487,2.6487,2.6487,2.6487,2.6383,2.5769,2.5252,2.4671,2.4228,2.377,2.322,2.2691,2.214,2.1631,2.0972,2.0605,2.0722,2.0673,2.0362,1.9923,1.9599,1.9116,1.8301,1.802,1.7859,1.7747,1.7585,1.6813,3.4333,3.3761,3.3735,3.3735,3.371,3.3735,3.3811,3.3887,3.3887,3.3903,3.3862,3.3853,3.3811,3.3608,3.3735,3.371,3.3836,3.4112,3.4012,3.4012,3.4028,3.4202,3.4087,3.3811,3.3761,3.3735,3.3735,3.3862,3.4103,3.4087,3.4087,3.3862,3.3761,3.3751,3.3521,3.3182,3.2906,3.3093,3.3066,3.3066,3.2826,3.2489,3.2117,3.1866,3.1824,3.2132,3.2532,3.2815,3.3093,3.3235,3.3365,3.3103,3.296,3.3066,3.3261,3.3209,3.2933,3.2761,3.2614,3.2132,3.1866,3.1697,3.1582,3.1524,3.1553,3.1553,3.1553,3.1524,3.1524,3.1496,3.1496,3.1467,3.1438,3.1409,3.138,3.1351,3.1058,3.0807,3.0614,3.0404,2.9704,2.8844,2.8473,2.8084,2.7417,2.6884,2.6568,2.6521,2.6487,2.6487,2.6487,2.6487,2.6233,2.5721,2.5335,2.5063,2.4731,2.4181,2.3624,2.3036,2.2515,2.2048,2.1499,2.0982,2.0895,2.0808,2.0595,2.0284,1.9756,1.9234,1.9195,1.9027,1.8749,1.855,1.823,3.5028,3.4406,3.4406,3.4406,3.4406,3.4406,3.4712,3.5161,3.5184,3.5224,3.5115,3.5091,3.4728,3.3633,3.4211,3.4406,3.4496,3.4776,3.5098,3.523,3.4958,3.5068,3.4981,3.4544,3.4447,3.4406,3.4455,3.4688,3.4752,3.4981,3.5161,3.5091,3.4544,3.4399,3.4284,3.3912,3.3505,3.37,3.3675,3.3598,3.3624,3.3391,3.3297,3.3209,3.3235,3.3297,3.3391,3.3401,3.3479,3.3556,3.3684,3.3624,3.3598,3.3675,3.3827,3.3862,3.3582,3.3469,3.3182,3.2718,3.2449,3.2327,3.2188,3.1796,3.1796,3.1752,3.1739,3.1668,3.164,3.1553,3.1524,3.1496,3.1467,3.1467,3.1438,3.1438,3.1307,3.1248,3.119,3.0896,3.048,2.995,2.9642,2.8971,2.7966,2.7451,2.704,2.6939,2.6748,2.6624,2.6589,2.6521,2.6521,2.6487,2.6198,2.6025,2.5687,2.5111,2.4528,2.3927,2.3514,2.3294,2.275,2.201,2.1593,2.1517,2.126,2.0905,2.0518,2.0109,2.0235,2.0157,1.9835,1.9599,1.9234]}]]